<?xml version="1.0" encoding="UTF-8" standalone="no" ?>
<gpx xmlns="http://www.topografix.com/GPX/1/1" xmlns:xsi="http://www.w3.org/2001/XMLSchema-instance" xsi:schemaLocation="http://www.topografix.com/GPX/1/1 http://www.topografix.com/GPX/1/1/gpx.xsd" version="1.1" creator="VisuGPX - https://www.visugpx.com">
  <metadata>
    <name>Revel-la pierre-saint agnes-revel </name>
    <desc><![CDATA[File with points/tracks from Locus Map/4.7.1]]></desc>
  </metadata>
  <trk>
    <name><![CDATA[2022-03-27 14:12]]></name>
    <extensions>
      <line xmlns="http://www.topografix.com/GPX/gpx_style/0/2">
        <color>0000FF</color>
        <opacity>0.59</opacity>
        <width>6.0</width>
      </line>
    </extensions>
    <trkseg>
      <trkpt lat="45.18386" lon="5.87348">
        <ele>690.14</ele>
        <time>2022-03-27T12:12:08.000Z</time>
      </trkpt>
      <trkpt lat="45.18383" lon="5.87295">
        <ele>692.7</ele>
        <time>2022-03-27T12:12:13.000Z</time>
      </trkpt>
      <trkpt lat="45.18397" lon="5.87247">
        <ele>689.3</ele>
        <time>2022-03-27T12:12:18.000Z</time>
      </trkpt>
      <trkpt lat="45.18418" lon="5.87222">
        <ele>682.94</ele>
        <time>2022-03-27T12:12:23.000Z</time>
      </trkpt>
      <trkpt lat="45.18438" lon="5.87194">
        <ele>681.54</ele>
        <time>2022-03-27T12:12:28.000Z</time>
      </trkpt>
      <trkpt lat="45.18437" lon="5.8717">
        <ele>681.55</ele>
        <time>2022-03-27T12:12:33.000Z</time>
      </trkpt>
      <trkpt lat="45.1842" lon="5.87145">
        <ele>678.66</ele>
        <time>2022-03-27T12:12:38.000Z</time>
      </trkpt>
      <trkpt lat="45.18439" lon="5.87118">
        <ele>674.83</ele>
        <time>2022-03-27T12:12:43.000Z</time>
      </trkpt>
      <trkpt lat="45.1847" lon="5.87103">
        <ele>675.45</ele>
        <time>2022-03-27T12:12:48.000Z</time>
      </trkpt>
      <trkpt lat="45.18507" lon="5.87069">
        <ele>670.42</ele>
        <time>2022-03-27T12:12:53.000Z</time>
      </trkpt>
      <trkpt lat="45.18544" lon="5.87057">
        <ele>667.48</ele>
        <time>2022-03-27T12:12:58.000Z</time>
      </trkpt>
      <trkpt lat="45.18579" lon="5.87032">
        <ele>669.63</ele>
        <time>2022-03-27T12:13:03.000Z</time>
      </trkpt>
      <trkpt lat="45.18593" lon="5.8697">
        <ele>668.87</ele>
        <time>2022-03-27T12:13:08.000Z</time>
      </trkpt>
      <trkpt lat="45.18593" lon="5.86908">
        <ele>664.66</ele>
        <time>2022-03-27T12:13:13.000Z</time>
      </trkpt>
      <trkpt lat="45.18585" lon="5.86863">
        <ele>659.64</ele>
        <time>2022-03-27T12:13:18.000Z</time>
      </trkpt>
      <trkpt lat="45.18608" lon="5.86872">
        <ele>655.77</ele>
        <time>2022-03-27T12:13:23.000Z</time>
      </trkpt>
      <trkpt lat="45.18625" lon="5.86911">
        <ele>652.82</ele>
        <time>2022-03-27T12:13:28.000Z</time>
      </trkpt>
      <trkpt lat="45.18668" lon="5.869">
        <ele>650.09</ele>
        <time>2022-03-27T12:13:33.000Z</time>
      </trkpt>
      <trkpt lat="45.18684" lon="5.86836">
        <ele>646.67</ele>
        <time>2022-03-27T12:13:38.000Z</time>
      </trkpt>
      <trkpt lat="45.18705" lon="5.8678">
        <ele>638.28</ele>
        <time>2022-03-27T12:13:43.000Z</time>
      </trkpt>
      <trkpt lat="45.18739" lon="5.86715">
        <ele>629.19</ele>
        <time>2022-03-27T12:13:48.000Z</time>
      </trkpt>
      <trkpt lat="45.18783" lon="5.8665">
        <ele>621.68</ele>
        <time>2022-03-27T12:13:53.000Z</time>
      </trkpt>
      <trkpt lat="45.18797" lon="5.86564">
        <ele>615.48</ele>
        <time>2022-03-27T12:13:58.000Z</time>
      </trkpt>
      <trkpt lat="45.18779" lon="5.86485">
        <ele>604.92</ele>
        <time>2022-03-27T12:14:03.000Z</time>
      </trkpt>
      <trkpt lat="45.18809" lon="5.86451">
        <ele>601.59</ele>
        <time>2022-03-27T12:14:08.000Z</time>
      </trkpt>
      <trkpt lat="45.18855" lon="5.8642">
        <ele>591.71</ele>
        <time>2022-03-27T12:14:13.000Z</time>
      </trkpt>
      <trkpt lat="45.18893" lon="5.86361">
        <ele>586.31</ele>
        <time>2022-03-27T12:14:18.000Z</time>
      </trkpt>
      <trkpt lat="45.18916" lon="5.86276">
        <ele>580.03</ele>
        <time>2022-03-27T12:14:23.000Z</time>
      </trkpt>
      <trkpt lat="45.18935" lon="5.86186">
        <ele>573.46</ele>
        <time>2022-03-27T12:14:28.000Z</time>
      </trkpt>
      <trkpt lat="45.18943" lon="5.8609">
        <ele>567.6</ele>
        <time>2022-03-27T12:14:33.000Z</time>
      </trkpt>
      <trkpt lat="45.18966" lon="5.86001">
        <ele>561.42</ele>
        <time>2022-03-27T12:14:38.000Z</time>
      </trkpt>
      <trkpt lat="45.18964" lon="5.85909">
        <ele>557.82</ele>
        <time>2022-03-27T12:14:43.000Z</time>
      </trkpt>
      <trkpt lat="45.18957" lon="5.85817">
        <ele>554.9</ele>
        <time>2022-03-27T12:14:48.000Z</time>
      </trkpt>
      <trkpt lat="45.1895" lon="5.85722">
        <ele>551.47</ele>
        <time>2022-03-27T12:14:53.000Z</time>
      </trkpt>
      <trkpt lat="45.18945" lon="5.85643">
        <ele>545.05</ele>
        <time>2022-03-27T12:14:58.000Z</time>
      </trkpt>
      <trkpt lat="45.18974" lon="5.8558">
        <ele>538.52</ele>
        <time>2022-03-27T12:15:03.000Z</time>
      </trkpt>
      <trkpt lat="45.19013" lon="5.85517">
        <ele>532.54</ele>
        <time>2022-03-27T12:15:08.000Z</time>
      </trkpt>
      <trkpt lat="45.19073" lon="5.85488">
        <ele>526.47</ele>
        <time>2022-03-27T12:15:13.000Z</time>
      </trkpt>
      <trkpt lat="45.19126" lon="5.8544">
        <ele>521.25</ele>
        <time>2022-03-27T12:15:18.000Z</time>
      </trkpt>
      <trkpt lat="45.19178" lon="5.85384">
        <ele>517.08</ele>
        <time>2022-03-27T12:15:23.000Z</time>
      </trkpt>
      <trkpt lat="45.19235" lon="5.85363">
        <ele>510.96</ele>
        <time>2022-03-27T12:15:28.000Z</time>
      </trkpt>
      <trkpt lat="45.19301" lon="5.85332">
        <ele>502.6</ele>
        <time>2022-03-27T12:15:33.000Z</time>
      </trkpt>
      <trkpt lat="45.19347" lon="5.85347">
        <ele>502.27</ele>
        <time>2022-03-27T12:15:38.000Z</time>
      </trkpt>
      <trkpt lat="45.19375" lon="5.85377">
        <ele>500.15</ele>
        <time>2022-03-27T12:15:43.000Z</time>
      </trkpt>
      <trkpt lat="45.19377" lon="5.85363">
        <ele>499.39</ele>
        <time>2022-03-27T12:16:28.000Z</time>
      </trkpt>
      <trkpt lat="45.19372" lon="5.85327">
        <ele>497.39</ele>
        <time>2022-03-27T12:16:33.000Z</time>
      </trkpt>
      <trkpt lat="45.19374" lon="5.85271">
        <ele>498.08</ele>
        <time>2022-03-27T12:16:38.000Z</time>
      </trkpt>
      <trkpt lat="45.19393" lon="5.85206">
        <ele>492.98</ele>
        <time>2022-03-27T12:16:43.000Z</time>
      </trkpt>
      <trkpt lat="45.19437" lon="5.85183">
        <ele>485.41</ele>
        <time>2022-03-27T12:16:48.000Z</time>
      </trkpt>
      <trkpt lat="45.19473" lon="5.85172">
        <ele>481.68</ele>
        <time>2022-03-27T12:16:53.000Z</time>
      </trkpt>
      <trkpt lat="45.19477" lon="5.85083">
        <ele>476</ele>
        <time>2022-03-27T12:16:58.000Z</time>
      </trkpt>
      <trkpt lat="45.19521" lon="5.8502">
        <ele>474.35</ele>
        <time>2022-03-27T12:17:03.000Z</time>
      </trkpt>
      <trkpt lat="45.19578" lon="5.84989">
        <ele>468.6</ele>
        <time>2022-03-27T12:17:08.000Z</time>
      </trkpt>
      <trkpt lat="45.19636" lon="5.84946">
        <ele>462.08</ele>
        <time>2022-03-27T12:17:13.000Z</time>
      </trkpt>
      <trkpt lat="45.19685" lon="5.84883">
        <ele>455.31</ele>
        <time>2022-03-27T12:17:18.000Z</time>
      </trkpt>
      <trkpt lat="45.19751" lon="5.84847">
        <ele>448.38</ele>
        <time>2022-03-27T12:17:23.000Z</time>
      </trkpt>
      <trkpt lat="45.19811" lon="5.84806">
        <ele>442.94</ele>
        <time>2022-03-27T12:17:28.000Z</time>
      </trkpt>
      <trkpt lat="45.19863" lon="5.84791">
        <ele>438.04</ele>
        <time>2022-03-27T12:17:33.000Z</time>
      </trkpt>
      <trkpt lat="45.19869" lon="5.84753">
        <ele>435.07</ele>
        <time>2022-03-27T12:17:38.000Z</time>
      </trkpt>
      <trkpt lat="45.19858" lon="5.84688">
        <ele>431.01</ele>
        <time>2022-03-27T12:17:43.000Z</time>
      </trkpt>
      <trkpt lat="45.19896" lon="5.8463">
        <ele>418.46</ele>
        <time>2022-03-27T12:17:48.000Z</time>
      </trkpt>
      <trkpt lat="45.19937" lon="5.84565">
        <ele>416.29</ele>
        <time>2022-03-27T12:17:53.000Z</time>
      </trkpt>
      <trkpt lat="45.19968" lon="5.84493">
        <ele>412.42</ele>
        <time>2022-03-27T12:17:58.000Z</time>
      </trkpt>
      <trkpt lat="45.20027" lon="5.84475">
        <ele>406.2</ele>
        <time>2022-03-27T12:18:03.000Z</time>
      </trkpt>
      <trkpt lat="45.20086" lon="5.8447">
        <ele>400.2</ele>
        <time>2022-03-27T12:18:08.000Z</time>
      </trkpt>
      <trkpt lat="45.20129" lon="5.84533">
        <ele>394.84</ele>
        <time>2022-03-27T12:18:13.000Z</time>
      </trkpt>
      <trkpt lat="45.20163" lon="5.84619">
        <ele>385.7</ele>
        <time>2022-03-27T12:18:18.000Z</time>
      </trkpt>
      <trkpt lat="45.20206" lon="5.84694">
        <ele>384.5</ele>
        <time>2022-03-27T12:18:23.000Z</time>
      </trkpt>
      <trkpt lat="45.20259" lon="5.84753">
        <ele>379.55</ele>
        <time>2022-03-27T12:18:28.000Z</time>
      </trkpt>
      <trkpt lat="45.20293" lon="5.84836">
        <ele>374.43</ele>
        <time>2022-03-27T12:18:33.000Z</time>
      </trkpt>
      <trkpt lat="45.2033" lon="5.84924">
        <ele>364.64</ele>
        <time>2022-03-27T12:18:38.000Z</time>
      </trkpt>
      <trkpt lat="45.20369" lon="5.85009">
        <ele>356.77</ele>
        <time>2022-03-27T12:18:43.000Z</time>
      </trkpt>
      <trkpt lat="45.20405" lon="5.85085">
        <ele>352.07</ele>
        <time>2022-03-27T12:18:48.000Z</time>
      </trkpt>
      <trkpt lat="45.2042" lon="5.85115">
        <ele>343.55</ele>
        <time>2022-03-27T12:18:53.000Z</time>
      </trkpt>
      <trkpt lat="45.20415" lon="5.8507">
        <ele>338.72</ele>
        <time>2022-03-27T12:18:58.000Z</time>
      </trkpt>
      <trkpt lat="45.20391" lon="5.8501">
        <ele>336.11</ele>
        <time>2022-03-27T12:19:03.000Z</time>
      </trkpt>
      <trkpt lat="45.20373" lon="5.84941">
        <ele>332.95</ele>
        <time>2022-03-27T12:19:08.000Z</time>
      </trkpt>
      <trkpt lat="45.20345" lon="5.84865">
        <ele>328.54</ele>
        <time>2022-03-27T12:19:13.000Z</time>
      </trkpt>
      <trkpt lat="45.20334" lon="5.84776">
        <ele>319.78</ele>
        <time>2022-03-27T12:19:18.000Z</time>
      </trkpt>
      <trkpt lat="45.20318" lon="5.84681">
        <ele>313.93</ele>
        <time>2022-03-27T12:19:23.000Z</time>
      </trkpt>
      <trkpt lat="45.20281" lon="5.84601">
        <ele>308.5</ele>
        <time>2022-03-27T12:19:28.000Z</time>
      </trkpt>
      <trkpt lat="45.20262" lon="5.84507">
        <ele>304.39</ele>
        <time>2022-03-27T12:19:33.000Z</time>
      </trkpt>
      <trkpt lat="45.20243" lon="5.84412">
        <ele>299.63</ele>
        <time>2022-03-27T12:19:38.000Z</time>
      </trkpt>
      <trkpt lat="45.20209" lon="5.84316">
        <ele>292.36</ele>
        <time>2022-03-27T12:19:43.000Z</time>
      </trkpt>
      <trkpt lat="45.20183" lon="5.84226">
        <ele>286.14</ele>
        <time>2022-03-27T12:19:48.000Z</time>
      </trkpt>
      <trkpt lat="45.20138" lon="5.84196">
        <ele>281.01</ele>
        <time>2022-03-27T12:19:53.000Z</time>
      </trkpt>
      <trkpt lat="45.20076" lon="5.84233">
        <ele>279.11</ele>
        <time>2022-03-27T12:19:58.000Z</time>
      </trkpt>
      <trkpt lat="45.20015" lon="5.84248">
        <ele>272.65</ele>
        <time>2022-03-27T12:20:03.000Z</time>
      </trkpt>
      <trkpt lat="45.20002" lon="5.84222">
        <ele>270.18</ele>
        <time>2022-03-27T12:20:08.000Z</time>
      </trkpt>
      <trkpt lat="45.20043" lon="5.84184">
        <ele>265.98</ele>
        <time>2022-03-27T12:20:13.000Z</time>
      </trkpt>
      <trkpt lat="45.20074" lon="5.84159">
        <ele>262.84</ele>
        <time>2022-03-27T12:20:18.000Z</time>
      </trkpt>
      <trkpt lat="45.20095" lon="5.84121">
        <ele>259.57</ele>
        <time>2022-03-27T12:20:23.000Z</time>
      </trkpt>
      <trkpt lat="45.20115" lon="5.84072">
        <ele>258.14</ele>
        <time>2022-03-27T12:20:28.000Z</time>
      </trkpt>
      <trkpt lat="45.20141" lon="5.84031">
        <ele>256.96</ele>
        <time>2022-03-27T12:20:33.000Z</time>
      </trkpt>
      <trkpt lat="45.20154" lon="5.83996">
        <ele>259.84</ele>
        <time>2022-03-27T12:20:38.000Z</time>
      </trkpt>
      <trkpt lat="45.20161" lon="5.83986">
        <ele>255.45</ele>
        <time>2022-03-27T12:20:50.000Z</time>
      </trkpt>
      <trkpt lat="45.2017" lon="5.83974">
        <ele>254.51</ele>
        <time>2022-03-27T12:20:55.000Z</time>
      </trkpt>
      <trkpt lat="45.2017" lon="5.83945">
        <ele>250.18</ele>
        <time>2022-03-27T12:21:00.000Z</time>
      </trkpt>
      <trkpt lat="45.20163" lon="5.83917">
        <ele>245.56</ele>
        <time>2022-03-27T12:21:05.000Z</time>
      </trkpt>
      <trkpt lat="45.20158" lon="5.83883">
        <ele>247.63</ele>
        <time>2022-03-27T12:21:10.000Z</time>
      </trkpt>
      <trkpt lat="45.20169" lon="5.83845">
        <ele>246.09</ele>
        <time>2022-03-27T12:21:15.000Z</time>
      </trkpt>
      <trkpt lat="45.20197" lon="5.83829">
        <ele>243.66</ele>
        <time>2022-03-27T12:21:20.000Z</time>
      </trkpt>
      <trkpt lat="45.20228" lon="5.83814">
        <ele>243.06</ele>
        <time>2022-03-27T12:21:25.000Z</time>
      </trkpt>
      <trkpt lat="45.20265" lon="5.83798">
        <ele>240.81</ele>
        <time>2022-03-27T12:21:30.000Z</time>
      </trkpt>
      <trkpt lat="45.20299" lon="5.83768">
        <ele>237.88</ele>
        <time>2022-03-27T12:21:35.000Z</time>
      </trkpt>
      <trkpt lat="45.2033" lon="5.83741">
        <ele>241.23</ele>
        <time>2022-03-27T12:21:40.000Z</time>
      </trkpt>
      <trkpt lat="45.20363" lon="5.83711">
        <ele>239.61</ele>
        <time>2022-03-27T12:21:45.000Z</time>
      </trkpt>
      <trkpt lat="45.2039" lon="5.83681">
        <ele>237.84</ele>
        <time>2022-03-27T12:21:50.000Z</time>
      </trkpt>
      <trkpt lat="45.20425" lon="5.83648">
        <ele>235.86</ele>
        <time>2022-03-27T12:21:55.000Z</time>
      </trkpt>
      <trkpt lat="45.20453" lon="5.83617">
        <ele>238.27</ele>
        <time>2022-03-27T12:22:00.000Z</time>
      </trkpt>
      <trkpt lat="45.20485" lon="5.83587">
        <ele>234.57</ele>
        <time>2022-03-27T12:22:05.000Z</time>
      </trkpt>
      <trkpt lat="45.20514" lon="5.8356">
        <ele>230.88</ele>
        <time>2022-03-27T12:22:10.000Z</time>
      </trkpt>
      <trkpt lat="45.20547" lon="5.83533">
        <ele>228.61</ele>
        <time>2022-03-27T12:22:15.000Z</time>
      </trkpt>
      <trkpt lat="45.20579" lon="5.83509">
        <ele>227.98</ele>
        <time>2022-03-27T12:22:20.000Z</time>
      </trkpt>
      <trkpt lat="45.20612" lon="5.83486">
        <ele>225.59</ele>
        <time>2022-03-27T12:22:25.000Z</time>
      </trkpt>
      <trkpt lat="45.20643" lon="5.83461">
        <ele>223.52</ele>
        <time>2022-03-27T12:22:30.000Z</time>
      </trkpt>
      <trkpt lat="45.20675" lon="5.83438">
        <ele>224.36</ele>
        <time>2022-03-27T12:22:35.000Z</time>
      </trkpt>
      <trkpt lat="45.20708" lon="5.83413">
        <ele>221.82</ele>
        <time>2022-03-27T12:22:40.000Z</time>
      </trkpt>
      <trkpt lat="45.20741" lon="5.83388">
        <ele>223.24</ele>
        <time>2022-03-27T12:22:45.000Z</time>
      </trkpt>
      <trkpt lat="45.20775" lon="5.83363">
        <ele>224.26</ele>
        <time>2022-03-27T12:22:50.000Z</time>
      </trkpt>
      <trkpt lat="45.20809" lon="5.83335">
        <ele>223.43</ele>
        <time>2022-03-27T12:22:55.000Z</time>
      </trkpt>
      <trkpt lat="45.20839" lon="5.83311">
        <ele>221.15</ele>
        <time>2022-03-27T12:23:00.000Z</time>
      </trkpt>
      <trkpt lat="45.20871" lon="5.83285">
        <ele>221.48</ele>
        <time>2022-03-27T12:23:05.000Z</time>
      </trkpt>
      <trkpt lat="45.20904" lon="5.83259">
        <ele>223.62</ele>
        <time>2022-03-27T12:23:10.000Z</time>
      </trkpt>
      <trkpt lat="45.20935" lon="5.83239">
        <ele>218.8</ele>
        <time>2022-03-27T12:23:15.000Z</time>
      </trkpt>
      <trkpt lat="45.20962" lon="5.83225">
        <ele>219.5</ele>
        <time>2022-03-27T12:23:20.000Z</time>
      </trkpt>
      <trkpt lat="45.20991" lon="5.83224">
        <ele>219.08</ele>
        <time>2022-03-27T12:23:25.000Z</time>
      </trkpt>
      <trkpt lat="45.21014" lon="5.83238">
        <ele>218.61</ele>
        <time>2022-03-27T12:23:30.000Z</time>
      </trkpt>
      <trkpt lat="45.21039" lon="5.83255">
        <ele>219.44</ele>
        <time>2022-03-27T12:23:35.000Z</time>
      </trkpt>
      <trkpt lat="45.21066" lon="5.83243">
        <ele>218.28</ele>
        <time>2022-03-27T12:23:40.000Z</time>
      </trkpt>
      <trkpt lat="45.2108" lon="5.83212">
        <ele>221.39</ele>
        <time>2022-03-27T12:23:45.000Z</time>
      </trkpt>
      <trkpt lat="45.21095" lon="5.83182">
        <ele>218.22</ele>
        <time>2022-03-27T12:23:50.000Z</time>
      </trkpt>
      <trkpt lat="45.21111" lon="5.83154">
        <ele>216.98</ele>
        <time>2022-03-27T12:23:55.000Z</time>
      </trkpt>
      <trkpt lat="45.21127" lon="5.83127">
        <ele>218.32</ele>
        <time>2022-03-27T12:24:00.000Z</time>
      </trkpt>
      <trkpt lat="45.21139" lon="5.83098">
        <ele>218.9</ele>
        <time>2022-03-27T12:24:05.000Z</time>
      </trkpt>
      <trkpt lat="45.21159" lon="5.83072">
        <ele>211.99</ele>
        <time>2022-03-27T12:24:10.000Z</time>
      </trkpt>
      <trkpt lat="45.21171" lon="5.8304">
        <ele>212.94</ele>
        <time>2022-03-27T12:24:15.000Z</time>
      </trkpt>
      <trkpt lat="45.21182" lon="5.83006">
        <ele>215.2</ele>
        <time>2022-03-27T12:24:20.000Z</time>
      </trkpt>
      <trkpt lat="45.212" lon="5.82971">
        <ele>218.22</ele>
        <time>2022-03-27T12:24:25.000Z</time>
      </trkpt>
      <trkpt lat="45.21217" lon="5.82942">
        <ele>217.21</ele>
        <time>2022-03-27T12:24:30.000Z</time>
      </trkpt>
      <trkpt lat="45.21235" lon="5.82907">
        <ele>218.42</ele>
        <time>2022-03-27T12:24:35.000Z</time>
      </trkpt>
      <trkpt lat="45.21254" lon="5.82869">
        <ele>215.51</ele>
        <time>2022-03-27T12:24:40.000Z</time>
      </trkpt>
      <trkpt lat="45.21273" lon="5.82833">
        <ele>215.46</ele>
        <time>2022-03-27T12:24:45.000Z</time>
      </trkpt>
      <trkpt lat="45.21291" lon="5.82792">
        <ele>214.89</ele>
        <time>2022-03-27T12:24:50.000Z</time>
      </trkpt>
      <trkpt lat="45.21311" lon="5.8275">
        <ele>212.75</ele>
        <time>2022-03-27T12:24:55.000Z</time>
      </trkpt>
      <trkpt lat="45.21344" lon="5.82718">
        <ele>213.11</ele>
        <time>2022-03-27T12:25:00.000Z</time>
      </trkpt>
      <trkpt lat="45.21374" lon="5.8269">
        <ele>213.98</ele>
        <time>2022-03-27T12:25:05.000Z</time>
      </trkpt>
      <trkpt lat="45.21397" lon="5.82655">
        <ele>215.74</ele>
        <time>2022-03-27T12:25:10.000Z</time>
      </trkpt>
      <trkpt lat="45.21424" lon="5.82624">
        <ele>220.39</ele>
        <time>2022-03-27T12:25:15.000Z</time>
      </trkpt>
      <trkpt lat="45.21453" lon="5.82602">
        <ele>220.81</ele>
        <time>2022-03-27T12:25:20.000Z</time>
      </trkpt>
      <trkpt lat="45.21481" lon="5.82585">
        <ele>221.61</ele>
        <time>2022-03-27T12:25:25.000Z</time>
      </trkpt>
      <trkpt lat="45.21508" lon="5.82563">
        <ele>220.21</ele>
        <time>2022-03-27T12:25:30.000Z</time>
      </trkpt>
      <trkpt lat="45.21533" lon="5.82542">
        <ele>218.75</ele>
        <time>2022-03-27T12:25:35.000Z</time>
      </trkpt>
      <trkpt lat="45.21557" lon="5.82524">
        <ele>217.59</ele>
        <time>2022-03-27T12:25:40.000Z</time>
      </trkpt>
      <trkpt lat="45.21583" lon="5.82504">
        <ele>217.83</ele>
        <time>2022-03-27T12:25:45.000Z</time>
      </trkpt>
      <trkpt lat="45.21605" lon="5.82489">
        <ele>220.75</ele>
        <time>2022-03-27T12:25:50.000Z</time>
      </trkpt>
      <trkpt lat="45.2163" lon="5.82473">
        <ele>218.37</ele>
        <time>2022-03-27T12:25:55.000Z</time>
      </trkpt>
      <trkpt lat="45.2166" lon="5.82458">
        <ele>217.7</ele>
        <time>2022-03-27T12:26:00.000Z</time>
      </trkpt>
      <trkpt lat="45.21689" lon="5.82432">
        <ele>218.11</ele>
        <time>2022-03-27T12:26:05.000Z</time>
      </trkpt>
      <trkpt lat="45.2172" lon="5.82412">
        <ele>217.6</ele>
        <time>2022-03-27T12:26:10.000Z</time>
      </trkpt>
      <trkpt lat="45.21748" lon="5.82391">
        <ele>217.76</ele>
        <time>2022-03-27T12:26:15.000Z</time>
      </trkpt>
      <trkpt lat="45.21772" lon="5.82377">
        <ele>216.77</ele>
        <time>2022-03-27T12:26:20.000Z</time>
      </trkpt>
      <trkpt lat="45.21796" lon="5.82371">
        <ele>215.22</ele>
        <time>2022-03-27T12:26:25.000Z</time>
      </trkpt>
      <trkpt lat="45.21816" lon="5.82367">
        <ele>215.49</ele>
        <time>2022-03-27T12:26:30.000Z</time>
      </trkpt>
      <trkpt lat="45.21832" lon="5.82397">
        <ele>211.56</ele>
        <time>2022-03-27T12:26:35.000Z</time>
      </trkpt>
      <trkpt lat="45.21848" lon="5.82435">
        <ele>213.6</ele>
        <time>2022-03-27T12:26:40.000Z</time>
      </trkpt>
      <trkpt lat="45.21862" lon="5.8247">
        <ele>214.66</ele>
        <time>2022-03-27T12:26:45.000Z</time>
      </trkpt>
      <trkpt lat="45.21851" lon="5.82505">
        <ele>214.85</ele>
        <time>2022-03-27T12:26:50.000Z</time>
      </trkpt>
      <trkpt lat="45.21857" lon="5.82536">
        <ele>214.9</ele>
        <time>2022-03-27T12:26:55.000Z</time>
      </trkpt>
      <trkpt lat="45.21877" lon="5.82557">
        <ele>215.73</ele>
        <time>2022-03-27T12:27:00.000Z</time>
      </trkpt>
      <trkpt lat="45.21899" lon="5.82577">
        <ele>215.03</ele>
        <time>2022-03-27T12:27:05.000Z</time>
      </trkpt>
      <trkpt lat="45.2192" lon="5.82596">
        <ele>215.98</ele>
        <time>2022-03-27T12:27:10.000Z</time>
      </trkpt>
      <trkpt lat="45.2194" lon="5.82614">
        <ele>215.8</ele>
        <time>2022-03-27T12:27:15.000Z</time>
      </trkpt>
      <trkpt lat="45.21963" lon="5.82635">
        <ele>217.73</ele>
        <time>2022-03-27T12:27:20.000Z</time>
      </trkpt>
      <trkpt lat="45.21983" lon="5.82658">
        <ele>219.08</ele>
        <time>2022-03-27T12:27:25.000Z</time>
      </trkpt>
      <trkpt lat="45.22003" lon="5.8268">
        <ele>218.68</ele>
        <time>2022-03-27T12:27:30.000Z</time>
      </trkpt>
      <trkpt lat="45.22025" lon="5.82699">
        <ele>217.35</ele>
        <time>2022-03-27T12:27:35.000Z</time>
      </trkpt>
      <trkpt lat="45.22046" lon="5.82696">
        <ele>216.95</ele>
        <time>2022-03-27T12:27:40.000Z</time>
      </trkpt>
      <trkpt lat="45.22065" lon="5.8268">
        <ele>216.61</ele>
        <time>2022-03-27T12:27:45.000Z</time>
      </trkpt>
      <trkpt lat="45.22082" lon="5.82668">
        <ele>220.99</ele>
        <time>2022-03-27T12:27:50.000Z</time>
      </trkpt>
      <trkpt lat="45.22102" lon="5.82653">
        <ele>222.2</ele>
        <time>2022-03-27T12:27:55.000Z</time>
      </trkpt>
      <trkpt lat="45.2212" lon="5.82638">
        <ele>222.98</ele>
        <time>2022-03-27T12:28:00.000Z</time>
      </trkpt>
      <trkpt lat="45.2214" lon="5.82624">
        <ele>220.17</ele>
        <time>2022-03-27T12:28:05.000Z</time>
      </trkpt>
      <trkpt lat="45.22159" lon="5.82613">
        <ele>221.34</ele>
        <time>2022-03-27T12:28:10.000Z</time>
      </trkpt>
      <trkpt lat="45.22179" lon="5.82604">
        <ele>221.01</ele>
        <time>2022-03-27T12:28:15.000Z</time>
      </trkpt>
      <trkpt lat="45.22201" lon="5.82592">
        <ele>223.07</ele>
        <time>2022-03-27T12:28:20.000Z</time>
      </trkpt>
      <trkpt lat="45.22223" lon="5.82576">
        <ele>221.26</ele>
        <time>2022-03-27T12:28:25.000Z</time>
      </trkpt>
      <trkpt lat="45.22245" lon="5.82559">
        <ele>221.04</ele>
        <time>2022-03-27T12:28:30.000Z</time>
      </trkpt>
      <trkpt lat="45.22267" lon="5.82542">
        <ele>220.54</ele>
        <time>2022-03-27T12:28:35.000Z</time>
      </trkpt>
      <trkpt lat="45.22288" lon="5.82526">
        <ele>220.04</ele>
        <time>2022-03-27T12:28:40.000Z</time>
      </trkpt>
      <trkpt lat="45.22311" lon="5.82509">
        <ele>219.03</ele>
        <time>2022-03-27T12:28:45.000Z</time>
      </trkpt>
      <trkpt lat="45.22335" lon="5.82494">
        <ele>219.69</ele>
        <time>2022-03-27T12:28:50.000Z</time>
      </trkpt>
      <trkpt lat="45.22357" lon="5.82477">
        <ele>220.84</ele>
        <time>2022-03-27T12:28:55.000Z</time>
      </trkpt>
      <trkpt lat="45.22382" lon="5.82458">
        <ele>220.5</ele>
        <time>2022-03-27T12:29:00.000Z</time>
      </trkpt>
      <trkpt lat="45.22402" lon="5.82442">
        <ele>218.71</ele>
        <time>2022-03-27T12:29:05.000Z</time>
      </trkpt>
      <trkpt lat="45.22427" lon="5.82426">
        <ele>218.87</ele>
        <time>2022-03-27T12:29:10.000Z</time>
      </trkpt>
      <trkpt lat="45.22445" lon="5.82412">
        <ele>224.02</ele>
        <time>2022-03-27T12:29:15.000Z</time>
      </trkpt>
      <trkpt lat="45.22454" lon="5.82418">
        <ele>225.93</ele>
        <time>2022-03-27T12:30:48.000Z</time>
      </trkpt>
      <trkpt lat="45.22467" lon="5.82429">
        <ele>224.73</ele>
        <time>2022-03-27T12:30:53.000Z</time>
      </trkpt>
      <trkpt lat="45.22482" lon="5.82444">
        <ele>223.16</ele>
        <time>2022-03-27T12:30:58.000Z</time>
      </trkpt>
      <trkpt lat="45.22498" lon="5.82463">
        <ele>226.8</ele>
        <time>2022-03-27T12:31:03.000Z</time>
      </trkpt>
      <trkpt lat="45.22517" lon="5.82483">
        <ele>225.09</ele>
        <time>2022-03-27T12:31:08.000Z</time>
      </trkpt>
      <trkpt lat="45.22537" lon="5.82502">
        <ele>223.52</ele>
        <time>2022-03-27T12:31:13.000Z</time>
      </trkpt>
      <trkpt lat="45.22556" lon="5.82522">
        <ele>222.42</ele>
        <time>2022-03-27T12:31:18.000Z</time>
      </trkpt>
      <trkpt lat="45.22572" lon="5.82541">
        <ele>223.23</ele>
        <time>2022-03-27T12:31:23.000Z</time>
      </trkpt>
      <trkpt lat="45.22586" lon="5.82566">
        <ele>222.33</ele>
        <time>2022-03-27T12:31:28.000Z</time>
      </trkpt>
      <trkpt lat="45.226" lon="5.82593">
        <ele>221.52</ele>
        <time>2022-03-27T12:31:33.000Z</time>
      </trkpt>
      <trkpt lat="45.22616" lon="5.82617">
        <ele>221.23</ele>
        <time>2022-03-27T12:31:38.000Z</time>
      </trkpt>
      <trkpt lat="45.22629" lon="5.82641">
        <ele>221.35</ele>
        <time>2022-03-27T12:31:43.000Z</time>
      </trkpt>
      <trkpt lat="45.22642" lon="5.82669">
        <ele>222.06</ele>
        <time>2022-03-27T12:31:48.000Z</time>
      </trkpt>
      <trkpt lat="45.22657" lon="5.82699">
        <ele>217.7</ele>
        <time>2022-03-27T12:31:53.000Z</time>
      </trkpt>
      <trkpt lat="45.22675" lon="5.82729">
        <ele>216.24</ele>
        <time>2022-03-27T12:31:58.000Z</time>
      </trkpt>
      <trkpt lat="45.22693" lon="5.82759">
        <ele>218.43</ele>
        <time>2022-03-27T12:32:03.000Z</time>
      </trkpt>
      <trkpt lat="45.22707" lon="5.82789">
        <ele>221.04</ele>
        <time>2022-03-27T12:32:08.000Z</time>
      </trkpt>
      <trkpt lat="45.22728" lon="5.82818">
        <ele>217.83</ele>
        <time>2022-03-27T12:32:13.000Z</time>
      </trkpt>
      <trkpt lat="45.22742" lon="5.8285">
        <ele>217.52</ele>
        <time>2022-03-27T12:32:18.000Z</time>
      </trkpt>
      <trkpt lat="45.22758" lon="5.8288">
        <ele>217.26</ele>
        <time>2022-03-27T12:32:23.000Z</time>
      </trkpt>
      <trkpt lat="45.22773" lon="5.82907">
        <ele>216.61</ele>
        <time>2022-03-27T12:32:28.000Z</time>
      </trkpt>
      <trkpt lat="45.2279" lon="5.82935">
        <ele>218.7</ele>
        <time>2022-03-27T12:32:33.000Z</time>
      </trkpt>
      <trkpt lat="45.22806" lon="5.82962">
        <ele>218.98</ele>
        <time>2022-03-27T12:32:38.000Z</time>
      </trkpt>
      <trkpt lat="45.22823" lon="5.82993">
        <ele>218.44</ele>
        <time>2022-03-27T12:32:43.000Z</time>
      </trkpt>
      <trkpt lat="45.2284" lon="5.8302">
        <ele>215.87</ele>
        <time>2022-03-27T12:32:48.000Z</time>
      </trkpt>
      <trkpt lat="45.22855" lon="5.83047">
        <ele>215.15</ele>
        <time>2022-03-27T12:32:53.000Z</time>
      </trkpt>
      <trkpt lat="45.22869" lon="5.83071">
        <ele>214.07</ele>
        <time>2022-03-27T12:32:58.000Z</time>
      </trkpt>
      <trkpt lat="45.22885" lon="5.83083">
        <ele>214.49</ele>
        <time>2022-03-27T12:33:03.000Z</time>
      </trkpt>
      <trkpt lat="45.229" lon="5.83074">
        <ele>210.32</ele>
        <time>2022-03-27T12:33:08.000Z</time>
      </trkpt>
      <trkpt lat="45.22915" lon="5.83059">
        <ele>216.26</ele>
        <time>2022-03-27T12:33:13.000Z</time>
      </trkpt>
      <trkpt lat="45.2293" lon="5.83046">
        <ele>218.92</ele>
        <time>2022-03-27T12:33:18.000Z</time>
      </trkpt>
      <trkpt lat="45.22944" lon="5.83031">
        <ele>219.26</ele>
        <time>2022-03-27T12:33:23.000Z</time>
      </trkpt>
      <trkpt lat="45.22959" lon="5.83015">
        <ele>218.44</ele>
        <time>2022-03-27T12:33:28.000Z</time>
      </trkpt>
      <trkpt lat="45.22975" lon="5.82994">
        <ele>222.02</ele>
        <time>2022-03-27T12:33:33.000Z</time>
      </trkpt>
      <trkpt lat="45.22989" lon="5.82971">
        <ele>226.91</ele>
        <time>2022-03-27T12:33:38.000Z</time>
      </trkpt>
      <trkpt lat="45.23002" lon="5.82951">
        <ele>227.72</ele>
        <time>2022-03-27T12:33:43.000Z</time>
      </trkpt>
      <trkpt lat="45.23016" lon="5.82928">
        <ele>228.54</ele>
        <time>2022-03-27T12:33:48.000Z</time>
      </trkpt>
      <trkpt lat="45.2303" lon="5.82908">
        <ele>231.46</ele>
        <time>2022-03-27T12:33:53.000Z</time>
      </trkpt>
      <trkpt lat="45.23044" lon="5.82887">
        <ele>233.77</ele>
        <time>2022-03-27T12:33:58.000Z</time>
      </trkpt>
      <trkpt lat="45.23056" lon="5.82865">
        <ele>237.35</ele>
        <time>2022-03-27T12:34:03.000Z</time>
      </trkpt>
      <trkpt lat="45.23067" lon="5.82842">
        <ele>237.34</ele>
        <time>2022-03-27T12:34:08.000Z</time>
      </trkpt>
      <trkpt lat="45.23077" lon="5.82816">
        <ele>238</ele>
        <time>2022-03-27T12:34:13.000Z</time>
      </trkpt>
      <trkpt lat="45.23083" lon="5.82788">
        <ele>240.45</ele>
        <time>2022-03-27T12:34:18.000Z</time>
      </trkpt>
      <trkpt lat="45.23089" lon="5.8276">
        <ele>240.55</ele>
        <time>2022-03-27T12:34:23.000Z</time>
      </trkpt>
      <trkpt lat="45.23091" lon="5.82729">
        <ele>241.91</ele>
        <time>2022-03-27T12:34:28.000Z</time>
      </trkpt>
      <trkpt lat="45.23091" lon="5.82696">
        <ele>248.26</ele>
        <time>2022-03-27T12:34:33.000Z</time>
      </trkpt>
      <trkpt lat="45.23104" lon="5.82671">
        <ele>247.01</ele>
        <time>2022-03-27T12:34:38.000Z</time>
      </trkpt>
      <trkpt lat="45.2312" lon="5.82645">
        <ele>247.22</ele>
        <time>2022-03-27T12:34:43.000Z</time>
      </trkpt>
      <trkpt lat="45.23136" lon="5.82624">
        <ele>246.67</ele>
        <time>2022-03-27T12:34:48.000Z</time>
      </trkpt>
      <trkpt lat="45.23154" lon="5.82602">
        <ele>244.91</ele>
        <time>2022-03-27T12:34:53.000Z</time>
      </trkpt>
      <trkpt lat="45.23171" lon="5.82585">
        <ele>246.11</ele>
        <time>2022-03-27T12:34:58.000Z</time>
      </trkpt>
      <trkpt lat="45.23188" lon="5.8258">
        <ele>249.19</ele>
        <time>2022-03-27T12:35:03.000Z</time>
      </trkpt>
      <trkpt lat="45.23204" lon="5.82584">
        <ele>249.27</ele>
        <time>2022-03-27T12:35:08.000Z</time>
      </trkpt>
      <trkpt lat="45.23225" lon="5.8258">
        <ele>249.66</ele>
        <time>2022-03-27T12:35:13.000Z</time>
      </trkpt>
      <trkpt lat="45.23244" lon="5.82573">
        <ele>251.19</ele>
        <time>2022-03-27T12:35:18.000Z</time>
      </trkpt>
      <trkpt lat="45.23259" lon="5.82555">
        <ele>254.94</ele>
        <time>2022-03-27T12:35:23.000Z</time>
      </trkpt>
      <trkpt lat="45.23273" lon="5.82534">
        <ele>255.24</ele>
        <time>2022-03-27T12:35:28.000Z</time>
      </trkpt>
      <trkpt lat="45.23291" lon="5.82509">
        <ele>252.88</ele>
        <time>2022-03-27T12:35:33.000Z</time>
      </trkpt>
      <trkpt lat="45.23302" lon="5.82485">
        <ele>254.97</ele>
        <time>2022-03-27T12:35:38.000Z</time>
      </trkpt>
      <trkpt lat="45.23312" lon="5.82459">
        <ele>257.01</ele>
        <time>2022-03-27T12:35:43.000Z</time>
      </trkpt>
      <trkpt lat="45.23324" lon="5.82437">
        <ele>258.19</ele>
        <time>2022-03-27T12:35:48.000Z</time>
      </trkpt>
      <trkpt lat="45.23334" lon="5.82431">
        <ele>258.16</ele>
        <time>2022-03-27T12:35:53.000Z</time>
      </trkpt>
      <trkpt lat="45.23345" lon="5.82446">
        <ele>256.33</ele>
        <time>2022-03-27T12:35:58.000Z</time>
      </trkpt>
      <trkpt lat="45.23358" lon="5.82463">
        <ele>258.72</ele>
        <time>2022-03-27T12:36:03.000Z</time>
      </trkpt>
      <trkpt lat="45.23369" lon="5.82482">
        <ele>259.88</ele>
        <time>2022-03-27T12:36:08.000Z</time>
      </trkpt>
      <trkpt lat="45.23381" lon="5.82502">
        <ele>260.58</ele>
        <time>2022-03-27T12:36:13.000Z</time>
      </trkpt>
      <trkpt lat="45.23395" lon="5.82525">
        <ele>263.24</ele>
        <time>2022-03-27T12:36:18.000Z</time>
      </trkpt>
      <trkpt lat="45.23409" lon="5.82551">
        <ele>264.51</ele>
        <time>2022-03-27T12:36:23.000Z</time>
      </trkpt>
      <trkpt lat="45.23423" lon="5.82576">
        <ele>266.43</ele>
        <time>2022-03-27T12:36:28.000Z</time>
      </trkpt>
      <trkpt lat="45.23437" lon="5.82602">
        <ele>270.54</ele>
        <time>2022-03-27T12:36:33.000Z</time>
      </trkpt>
      <trkpt lat="45.23453" lon="5.82629">
        <ele>267.36</ele>
        <time>2022-03-27T12:36:38.000Z</time>
      </trkpt>
      <trkpt lat="45.23466" lon="5.82656">
        <ele>267.23</ele>
        <time>2022-03-27T12:36:43.000Z</time>
      </trkpt>
      <trkpt lat="45.23483" lon="5.82683">
        <ele>269.23</ele>
        <time>2022-03-27T12:36:48.000Z</time>
      </trkpt>
      <trkpt lat="45.23496" lon="5.82714">
        <ele>268.61</ele>
        <time>2022-03-27T12:36:53.000Z</time>
      </trkpt>
      <trkpt lat="45.23507" lon="5.82747">
        <ele>266.29</ele>
        <time>2022-03-27T12:36:58.000Z</time>
      </trkpt>
      <trkpt lat="45.23523" lon="5.8278">
        <ele>266.77</ele>
        <time>2022-03-27T12:37:03.000Z</time>
      </trkpt>
      <trkpt lat="45.23536" lon="5.82811">
        <ele>267.43</ele>
        <time>2022-03-27T12:37:08.000Z</time>
      </trkpt>
      <trkpt lat="45.23548" lon="5.82839">
        <ele>268.77</ele>
        <time>2022-03-27T12:37:13.000Z</time>
      </trkpt>
      <trkpt lat="45.23564" lon="5.82867">
        <ele>267.76</ele>
        <time>2022-03-27T12:37:18.000Z</time>
      </trkpt>
      <trkpt lat="45.2358" lon="5.82896">
        <ele>267.84</ele>
        <time>2022-03-27T12:37:23.000Z</time>
      </trkpt>
      <trkpt lat="45.23594" lon="5.82927">
        <ele>267.17</ele>
        <time>2022-03-27T12:37:28.000Z</time>
      </trkpt>
      <trkpt lat="45.23611" lon="5.82957">
        <ele>267.83</ele>
        <time>2022-03-27T12:37:33.000Z</time>
      </trkpt>
      <trkpt lat="45.23626" lon="5.82985">
        <ele>268.07</ele>
        <time>2022-03-27T12:37:38.000Z</time>
      </trkpt>
      <trkpt lat="45.23642" lon="5.83015">
        <ele>265.64</ele>
        <time>2022-03-27T12:37:43.000Z</time>
      </trkpt>
      <trkpt lat="45.23658" lon="5.83041">
        <ele>265.67</ele>
        <time>2022-03-27T12:37:48.000Z</time>
      </trkpt>
      <trkpt lat="45.23674" lon="5.83074">
        <ele>266.63</ele>
        <time>2022-03-27T12:37:53.000Z</time>
      </trkpt>
      <trkpt lat="45.23691" lon="5.83103">
        <ele>270.31</ele>
        <time>2022-03-27T12:37:58.000Z</time>
      </trkpt>
      <trkpt lat="45.23706" lon="5.83135">
        <ele>266.53</ele>
        <time>2022-03-27T12:38:03.000Z</time>
      </trkpt>
      <trkpt lat="45.23723" lon="5.83165">
        <ele>267.74</ele>
        <time>2022-03-27T12:38:08.000Z</time>
      </trkpt>
      <trkpt lat="45.23741" lon="5.83195">
        <ele>268.98</ele>
        <time>2022-03-27T12:38:13.000Z</time>
      </trkpt>
      <trkpt lat="45.23762" lon="5.83221">
        <ele>268.37</ele>
        <time>2022-03-27T12:38:18.000Z</time>
      </trkpt>
      <trkpt lat="45.23783" lon="5.83244">
        <ele>269.39</ele>
        <time>2022-03-27T12:38:23.000Z</time>
      </trkpt>
      <trkpt lat="45.23797" lon="5.83269">
        <ele>271.14</ele>
        <time>2022-03-27T12:38:28.000Z</time>
      </trkpt>
      <trkpt lat="45.23795" lon="5.83303">
        <ele>270.8</ele>
        <time>2022-03-27T12:38:33.000Z</time>
      </trkpt>
      <trkpt lat="45.23814" lon="5.83335">
        <ele>270.7</ele>
        <time>2022-03-27T12:38:38.000Z</time>
      </trkpt>
      <trkpt lat="45.23835" lon="5.83372">
        <ele>266.92</ele>
        <time>2022-03-27T12:38:43.000Z</time>
      </trkpt>
      <trkpt lat="45.23856" lon="5.83405">
        <ele>265.91</ele>
        <time>2022-03-27T12:38:48.000Z</time>
      </trkpt>
      <trkpt lat="45.23875" lon="5.83438">
        <ele>268.72</ele>
        <time>2022-03-27T12:38:53.000Z</time>
      </trkpt>
      <trkpt lat="45.23894" lon="5.8347">
        <ele>267.05</ele>
        <time>2022-03-27T12:38:58.000Z</time>
      </trkpt>
      <trkpt lat="45.23913" lon="5.83494">
        <ele>266.47</ele>
        <time>2022-03-27T12:39:03.000Z</time>
      </trkpt>
      <trkpt lat="45.23927" lon="5.83523">
        <ele>267.97</ele>
        <time>2022-03-27T12:39:08.000Z</time>
      </trkpt>
      <trkpt lat="45.23948" lon="5.83549">
        <ele>266.43</ele>
        <time>2022-03-27T12:39:13.000Z</time>
      </trkpt>
      <trkpt lat="45.23958" lon="5.83585">
        <ele>264.72</ele>
        <time>2022-03-27T12:39:18.000Z</time>
      </trkpt>
      <trkpt lat="45.23972" lon="5.83612">
        <ele>264.69</ele>
        <time>2022-03-27T12:39:23.000Z</time>
      </trkpt>
      <trkpt lat="45.23989" lon="5.83651">
        <ele>262.9</ele>
        <time>2022-03-27T12:39:28.000Z</time>
      </trkpt>
      <trkpt lat="45.24008" lon="5.83682">
        <ele>264.98</ele>
        <time>2022-03-27T12:39:33.000Z</time>
      </trkpt>
      <trkpt lat="45.24027" lon="5.83718">
        <ele>264.63</ele>
        <time>2022-03-27T12:39:38.000Z</time>
      </trkpt>
      <trkpt lat="45.24046" lon="5.83751">
        <ele>265.77</ele>
        <time>2022-03-27T12:39:43.000Z</time>
      </trkpt>
      <trkpt lat="45.24062" lon="5.83781">
        <ele>263.73</ele>
        <time>2022-03-27T12:39:48.000Z</time>
      </trkpt>
      <trkpt lat="45.24071" lon="5.83801">
        <ele>265.61</ele>
        <time>2022-03-27T12:39:53.000Z</time>
      </trkpt>
      <trkpt lat="45.24074" lon="5.83817">
        <ele>268.01</ele>
        <time>2022-03-27T12:40:00.000Z</time>
      </trkpt>
      <trkpt lat="45.24084" lon="5.8385">
        <ele>266.8</ele>
        <time>2022-03-27T12:40:05.000Z</time>
      </trkpt>
      <trkpt lat="45.24099" lon="5.83893">
        <ele>266.52</ele>
        <time>2022-03-27T12:40:10.000Z</time>
      </trkpt>
      <trkpt lat="45.24104" lon="5.83937">
        <ele>262.35</ele>
        <time>2022-03-27T12:40:15.000Z</time>
      </trkpt>
      <trkpt lat="45.24105" lon="5.83988">
        <ele>262.92</ele>
        <time>2022-03-27T12:40:20.000Z</time>
      </trkpt>
      <trkpt lat="45.24115" lon="5.84022">
        <ele>261.05</ele>
        <time>2022-03-27T12:40:25.000Z</time>
      </trkpt>
      <trkpt lat="45.24135" lon="5.84023">
        <ele>261.96</ele>
        <time>2022-03-27T12:40:30.000Z</time>
      </trkpt>
      <trkpt lat="45.24147" lon="5.8401">
        <ele>263.46</ele>
        <time>2022-03-27T12:40:35.000Z</time>
      </trkpt>
      <trkpt lat="45.24159" lon="5.83996">
        <ele>264.86</ele>
        <time>2022-03-27T12:40:40.000Z</time>
      </trkpt>
      <trkpt lat="45.24173" lon="5.83979">
        <ele>264.26</ele>
        <time>2022-03-27T12:40:45.000Z</time>
      </trkpt>
      <trkpt lat="45.24188" lon="5.83968">
        <ele>264.45</ele>
        <time>2022-03-27T12:40:50.000Z</time>
      </trkpt>
      <trkpt lat="45.24208" lon="5.83957">
        <ele>263.98</ele>
        <time>2022-03-27T12:40:55.000Z</time>
      </trkpt>
      <trkpt lat="45.24226" lon="5.83946">
        <ele>262.28</ele>
        <time>2022-03-27T12:41:00.000Z</time>
      </trkpt>
      <trkpt lat="45.24243" lon="5.83936">
        <ele>261.72</ele>
        <time>2022-03-27T12:41:05.000Z</time>
      </trkpt>
      <trkpt lat="45.24261" lon="5.83929">
        <ele>263.05</ele>
        <time>2022-03-27T12:41:10.000Z</time>
      </trkpt>
      <trkpt lat="45.24281" lon="5.83925">
        <ele>264.32</ele>
        <time>2022-03-27T12:41:15.000Z</time>
      </trkpt>
      <trkpt lat="45.24302" lon="5.83919">
        <ele>263.97</ele>
        <time>2022-03-27T12:41:20.000Z</time>
      </trkpt>
      <trkpt lat="45.24327" lon="5.8391">
        <ele>263.72</ele>
        <time>2022-03-27T12:41:25.000Z</time>
      </trkpt>
      <trkpt lat="45.24346" lon="5.83903">
        <ele>267.07</ele>
        <time>2022-03-27T12:41:30.000Z</time>
      </trkpt>
      <trkpt lat="45.24367" lon="5.83891">
        <ele>271.15</ele>
        <time>2022-03-27T12:41:35.000Z</time>
      </trkpt>
      <trkpt lat="45.24385" lon="5.83883">
        <ele>273.06</ele>
        <time>2022-03-27T12:41:40.000Z</time>
      </trkpt>
      <trkpt lat="45.24405" lon="5.83882">
        <ele>274.37</ele>
        <time>2022-03-27T12:41:45.000Z</time>
      </trkpt>
      <trkpt lat="45.24412" lon="5.8391">
        <ele>270.88</ele>
        <time>2022-03-27T12:41:50.000Z</time>
      </trkpt>
      <trkpt lat="45.24421" lon="5.83935">
        <ele>272.92</ele>
        <time>2022-03-27T12:41:55.000Z</time>
      </trkpt>
      <trkpt lat="45.24428" lon="5.83955">
        <ele>272.11</ele>
        <time>2022-03-27T12:42:00.000Z</time>
      </trkpt>
      <trkpt lat="45.24435" lon="5.83973">
        <ele>271.62</ele>
        <time>2022-03-27T12:42:05.000Z</time>
      </trkpt>
      <trkpt lat="45.24446" lon="5.83993">
        <ele>272.75</ele>
        <time>2022-03-27T12:42:10.000Z</time>
      </trkpt>
      <trkpt lat="45.24459" lon="5.84014">
        <ele>272.92</ele>
        <time>2022-03-27T12:42:15.000Z</time>
      </trkpt>
      <trkpt lat="45.24472" lon="5.84034">
        <ele>273.16</ele>
        <time>2022-03-27T12:42:20.000Z</time>
      </trkpt>
      <trkpt lat="45.24482" lon="5.84059">
        <ele>273.33</ele>
        <time>2022-03-27T12:42:25.000Z</time>
      </trkpt>
      <trkpt lat="45.24498" lon="5.84096">
        <ele>270.42</ele>
        <time>2022-03-27T12:42:30.000Z</time>
      </trkpt>
      <trkpt lat="45.24511" lon="5.84122">
        <ele>274.34</ele>
        <time>2022-03-27T12:42:35.000Z</time>
      </trkpt>
      <trkpt lat="45.2452" lon="5.84127">
        <ele>272.66</ele>
        <time>2022-03-27T12:42:42.000Z</time>
      </trkpt>
      <trkpt lat="45.24528" lon="5.8411">
        <ele>273.86</ele>
        <time>2022-03-27T12:42:47.000Z</time>
      </trkpt>
      <trkpt lat="45.24533" lon="5.8409">
        <ele>271.08</ele>
        <time>2022-03-27T12:42:52.000Z</time>
      </trkpt>
      <trkpt lat="45.24539" lon="5.8407">
        <ele>273.2</ele>
        <time>2022-03-27T12:42:57.000Z</time>
      </trkpt>
      <trkpt lat="45.24549" lon="5.84043">
        <ele>275.74</ele>
        <time>2022-03-27T12:43:02.000Z</time>
      </trkpt>
      <trkpt lat="45.24558" lon="5.84022">
        <ele>281.38</ele>
        <time>2022-03-27T12:43:07.000Z</time>
      </trkpt>
      <trkpt lat="45.24569" lon="5.83998">
        <ele>283.08</ele>
        <time>2022-03-27T12:43:12.000Z</time>
      </trkpt>
      <trkpt lat="45.2458" lon="5.83972">
        <ele>284.17</ele>
        <time>2022-03-27T12:43:17.000Z</time>
      </trkpt>
      <trkpt lat="45.24593" lon="5.83967">
        <ele>287.23</ele>
        <time>2022-03-27T12:43:22.000Z</time>
      </trkpt>
      <trkpt lat="45.24604" lon="5.8399">
        <ele>287.37</ele>
        <time>2022-03-27T12:43:27.000Z</time>
      </trkpt>
      <trkpt lat="45.24615" lon="5.8401">
        <ele>285.65</ele>
        <time>2022-03-27T12:43:32.000Z</time>
      </trkpt>
      <trkpt lat="45.24626" lon="5.84027">
        <ele>285.11</ele>
        <time>2022-03-27T12:43:37.000Z</time>
      </trkpt>
      <trkpt lat="45.2464" lon="5.84047">
        <ele>285.7</ele>
        <time>2022-03-27T12:43:42.000Z</time>
      </trkpt>
      <trkpt lat="45.24655" lon="5.84072">
        <ele>286.32</ele>
        <time>2022-03-27T12:43:47.000Z</time>
      </trkpt>
      <trkpt lat="45.24672" lon="5.84099">
        <ele>284.94</ele>
        <time>2022-03-27T12:43:52.000Z</time>
      </trkpt>
      <trkpt lat="45.24683" lon="5.84128">
        <ele>294.41</ele>
        <time>2022-03-27T12:43:57.000Z</time>
      </trkpt>
      <trkpt lat="45.24697" lon="5.84146">
        <ele>294.58</ele>
        <time>2022-03-27T12:44:02.000Z</time>
      </trkpt>
      <trkpt lat="45.24708" lon="5.84165">
        <ele>298.71</ele>
        <time>2022-03-27T12:44:07.000Z</time>
      </trkpt>
      <trkpt lat="45.24719" lon="5.84182">
        <ele>298.31</ele>
        <time>2022-03-27T12:44:12.000Z</time>
      </trkpt>
      <trkpt lat="45.24731" lon="5.84211">
        <ele>297.61</ele>
        <time>2022-03-27T12:44:17.000Z</time>
      </trkpt>
      <trkpt lat="45.24748" lon="5.84238">
        <ele>296.6</ele>
        <time>2022-03-27T12:44:22.000Z</time>
      </trkpt>
      <trkpt lat="45.24762" lon="5.84266">
        <ele>294.01</ele>
        <time>2022-03-27T12:44:27.000Z</time>
      </trkpt>
      <trkpt lat="45.24777" lon="5.84291">
        <ele>290.21</ele>
        <time>2022-03-27T12:44:32.000Z</time>
      </trkpt>
      <trkpt lat="45.24788" lon="5.84314">
        <ele>293.33</ele>
        <time>2022-03-27T12:44:37.000Z</time>
      </trkpt>
      <trkpt lat="45.24804" lon="5.84338">
        <ele>288.19</ele>
        <time>2022-03-27T12:44:42.000Z</time>
      </trkpt>
      <trkpt lat="45.24818" lon="5.84363">
        <ele>290.93</ele>
        <time>2022-03-27T12:44:47.000Z</time>
      </trkpt>
      <trkpt lat="45.24836" lon="5.84351">
        <ele>291.93</ele>
        <time>2022-03-27T12:44:52.000Z</time>
      </trkpt>
      <trkpt lat="45.24856" lon="5.84335">
        <ele>289.25</ele>
        <time>2022-03-27T12:44:57.000Z</time>
      </trkpt>
      <trkpt lat="45.24874" lon="5.84326">
        <ele>295.01</ele>
        <time>2022-03-27T12:45:02.000Z</time>
      </trkpt>
      <trkpt lat="45.24893" lon="5.84324">
        <ele>297.09</ele>
        <time>2022-03-27T12:45:07.000Z</time>
      </trkpt>
      <trkpt lat="45.24915" lon="5.84322">
        <ele>299.83</ele>
        <time>2022-03-27T12:45:12.000Z</time>
      </trkpt>
      <trkpt lat="45.24935" lon="5.84318">
        <ele>302.09</ele>
        <time>2022-03-27T12:45:17.000Z</time>
      </trkpt>
      <trkpt lat="45.24955" lon="5.84309">
        <ele>304.11</ele>
        <time>2022-03-27T12:45:22.000Z</time>
      </trkpt>
      <trkpt lat="45.24973" lon="5.84301">
        <ele>304.41</ele>
        <time>2022-03-27T12:45:27.000Z</time>
      </trkpt>
      <trkpt lat="45.24989" lon="5.84297">
        <ele>305.07</ele>
        <time>2022-03-27T12:45:32.000Z</time>
      </trkpt>
      <trkpt lat="45.25002" lon="5.84296">
        <ele>303.03</ele>
        <time>2022-03-27T12:45:37.000Z</time>
      </trkpt>
      <trkpt lat="45.25018" lon="5.84292">
        <ele>304.28</ele>
        <time>2022-03-27T12:45:42.000Z</time>
      </trkpt>
      <trkpt lat="45.25029" lon="5.84287">
        <ele>309.34</ele>
        <time>2022-03-27T12:45:59.000Z</time>
      </trkpt>
      <trkpt lat="45.25045" lon="5.84269">
        <ele>311.58</ele>
        <time>2022-03-27T12:46:04.000Z</time>
      </trkpt>
      <trkpt lat="45.25056" lon="5.8425">
        <ele>313.68</ele>
        <time>2022-03-27T12:46:09.000Z</time>
      </trkpt>
      <trkpt lat="45.25057" lon="5.84264">
        <ele>309.21</ele>
        <time>2022-03-27T12:46:40.000Z</time>
      </trkpt>
      <trkpt lat="45.2504" lon="5.84297">
        <ele>305.74</ele>
        <time>2022-03-27T12:46:45.000Z</time>
      </trkpt>
      <trkpt lat="45.25028" lon="5.84333">
        <ele>307.49</ele>
        <time>2022-03-27T12:46:50.000Z</time>
      </trkpt>
      <trkpt lat="45.25028" lon="5.84371">
        <ele>308.38</ele>
        <time>2022-03-27T12:46:55.000Z</time>
      </trkpt>
      <trkpt lat="45.2504" lon="5.84394">
        <ele>306.15</ele>
        <time>2022-03-27T12:47:00.000Z</time>
      </trkpt>
      <trkpt lat="45.25049" lon="5.84411">
        <ele>306.11</ele>
        <time>2022-03-27T12:47:05.000Z</time>
      </trkpt>
      <trkpt lat="45.25049" lon="5.84425">
        <ele>303.93</ele>
        <time>2022-03-27T12:47:10.000Z</time>
      </trkpt>
      <trkpt lat="45.25049" lon="5.8444">
        <ele>304.41</ele>
        <time>2022-03-27T12:47:15.000Z</time>
      </trkpt>
      <trkpt lat="45.25052" lon="5.84453">
        <ele>304.22</ele>
        <time>2022-03-27T12:47:20.000Z</time>
      </trkpt>
      <trkpt lat="45.25061" lon="5.84473">
        <ele>301.84</ele>
        <time>2022-03-27T12:47:25.000Z</time>
      </trkpt>
      <trkpt lat="45.25076" lon="5.84505">
        <ele>303.13</ele>
        <time>2022-03-27T12:47:30.000Z</time>
      </trkpt>
      <trkpt lat="45.25082" lon="5.84543">
        <ele>302.62</ele>
        <time>2022-03-27T12:47:35.000Z</time>
      </trkpt>
      <trkpt lat="45.25087" lon="5.84585">
        <ele>304.49</ele>
        <time>2022-03-27T12:47:40.000Z</time>
      </trkpt>
      <trkpt lat="45.25097" lon="5.84624">
        <ele>305.22</ele>
        <time>2022-03-27T12:47:45.000Z</time>
      </trkpt>
      <trkpt lat="45.25102" lon="5.8467">
        <ele>305.76</ele>
        <time>2022-03-27T12:47:50.000Z</time>
      </trkpt>
      <trkpt lat="45.25092" lon="5.84713">
        <ele>307.95</ele>
        <time>2022-03-27T12:47:55.000Z</time>
      </trkpt>
      <trkpt lat="45.25071" lon="5.84756">
        <ele>302.81</ele>
        <time>2022-03-27T12:48:00.000Z</time>
      </trkpt>
      <trkpt lat="45.25069" lon="5.8479">
        <ele>301.87</ele>
        <time>2022-03-27T12:48:05.000Z</time>
      </trkpt>
      <trkpt lat="45.25056" lon="5.84825">
        <ele>300.01</ele>
        <time>2022-03-27T12:48:10.000Z</time>
      </trkpt>
      <trkpt lat="45.25041" lon="5.84869">
        <ele>302.03</ele>
        <time>2022-03-27T12:48:15.000Z</time>
      </trkpt>
      <trkpt lat="45.25035" lon="5.84882">
        <ele>300.15</ele>
        <time>2022-03-27T12:48:20.000Z</time>
      </trkpt>
      <trkpt lat="45.25028" lon="5.84912">
        <ele>299.51</ele>
        <time>2022-03-27T12:48:25.000Z</time>
      </trkpt>
      <trkpt lat="45.25027" lon="5.84952">
        <ele>300.44</ele>
        <time>2022-03-27T12:48:30.000Z</time>
      </trkpt>
      <trkpt lat="45.25038" lon="5.84994">
        <ele>301.75</ele>
        <time>2022-03-27T12:48:35.000Z</time>
      </trkpt>
      <trkpt lat="45.25057" lon="5.85032">
        <ele>302.54</ele>
        <time>2022-03-27T12:48:40.000Z</time>
      </trkpt>
      <trkpt lat="45.25071" lon="5.85056">
        <ele>301.08</ele>
        <time>2022-03-27T12:48:45.000Z</time>
      </trkpt>
      <trkpt lat="45.25092" lon="5.85089">
        <ele>298.71</ele>
        <time>2022-03-27T12:48:50.000Z</time>
      </trkpt>
      <trkpt lat="45.25104" lon="5.85123">
        <ele>296.57</ele>
        <time>2022-03-27T12:48:55.000Z</time>
      </trkpt>
      <trkpt lat="45.25104" lon="5.85163">
        <ele>296.39</ele>
        <time>2022-03-27T12:49:00.000Z</time>
      </trkpt>
      <trkpt lat="45.25096" lon="5.85195">
        <ele>298.97</ele>
        <time>2022-03-27T12:49:05.000Z</time>
      </trkpt>
      <trkpt lat="45.25086" lon="5.85229">
        <ele>301.49</ele>
        <time>2022-03-27T12:49:10.000Z</time>
      </trkpt>
      <trkpt lat="45.25076" lon="5.85264">
        <ele>304.3</ele>
        <time>2022-03-27T12:49:15.000Z</time>
      </trkpt>
      <trkpt lat="45.25078" lon="5.853">
        <ele>302.5</ele>
        <time>2022-03-27T12:49:20.000Z</time>
      </trkpt>
      <trkpt lat="45.25075" lon="5.85338">
        <ele>303.05</ele>
        <time>2022-03-27T12:49:25.000Z</time>
      </trkpt>
      <trkpt lat="45.25077" lon="5.85371">
        <ele>304.78</ele>
        <time>2022-03-27T12:49:30.000Z</time>
      </trkpt>
      <trkpt lat="45.25067" lon="5.85412">
        <ele>303.98</ele>
        <time>2022-03-27T12:49:35.000Z</time>
      </trkpt>
      <trkpt lat="45.25054" lon="5.85442">
        <ele>300.81</ele>
        <time>2022-03-27T12:49:40.000Z</time>
      </trkpt>
      <trkpt lat="45.2504" lon="5.85473">
        <ele>301.29</ele>
        <time>2022-03-27T12:49:45.000Z</time>
      </trkpt>
      <trkpt lat="45.25048" lon="5.85493">
        <ele>301.22</ele>
        <time>2022-03-27T12:49:50.000Z</time>
      </trkpt>
      <trkpt lat="45.25062" lon="5.85508">
        <ele>302.79</ele>
        <time>2022-03-27T12:49:55.000Z</time>
      </trkpt>
      <trkpt lat="45.25076" lon="5.85525">
        <ele>308.72</ele>
        <time>2022-03-27T12:50:00.000Z</time>
      </trkpt>
      <trkpt lat="45.2509" lon="5.85543">
        <ele>313.69</ele>
        <time>2022-03-27T12:50:05.000Z</time>
      </trkpt>
      <trkpt lat="45.25104" lon="5.85561">
        <ele>312.16</ele>
        <time>2022-03-27T12:50:10.000Z</time>
      </trkpt>
      <trkpt lat="45.25111" lon="5.85583">
        <ele>312.7</ele>
        <time>2022-03-27T12:50:15.000Z</time>
      </trkpt>
      <trkpt lat="45.25119" lon="5.85607">
        <ele>311.01</ele>
        <time>2022-03-27T12:50:20.000Z</time>
      </trkpt>
      <trkpt lat="45.25125" lon="5.85635">
        <ele>307.06</ele>
        <time>2022-03-27T12:50:25.000Z</time>
      </trkpt>
      <trkpt lat="45.25127" lon="5.85657">
        <ele>305.95</ele>
        <time>2022-03-27T12:50:30.000Z</time>
      </trkpt>
      <trkpt lat="45.25135" lon="5.85682">
        <ele>309.98</ele>
        <time>2022-03-27T12:50:35.000Z</time>
      </trkpt>
      <trkpt lat="45.25152" lon="5.8572">
        <ele>306.96</ele>
        <time>2022-03-27T12:50:40.000Z</time>
      </trkpt>
      <trkpt lat="45.25162" lon="5.8577">
        <ele>306.45</ele>
        <time>2022-03-27T12:50:45.000Z</time>
      </trkpt>
      <trkpt lat="45.25176" lon="5.85831">
        <ele>306.1</ele>
        <time>2022-03-27T12:50:50.000Z</time>
      </trkpt>
      <trkpt lat="45.25183" lon="5.85869">
        <ele>305.24</ele>
        <time>2022-03-27T12:50:55.000Z</time>
      </trkpt>
      <trkpt lat="45.25192" lon="5.859">
        <ele>304.52</ele>
        <time>2022-03-27T12:51:00.000Z</time>
      </trkpt>
      <trkpt lat="45.25216" lon="5.85926">
        <ele>302.28</ele>
        <time>2022-03-27T12:51:05.000Z</time>
      </trkpt>
      <trkpt lat="45.25228" lon="5.85959">
        <ele>303.09</ele>
        <time>2022-03-27T12:51:10.000Z</time>
      </trkpt>
      <trkpt lat="45.2524" lon="5.85989">
        <ele>298.83</ele>
        <time>2022-03-27T12:51:15.000Z</time>
      </trkpt>
      <trkpt lat="45.25256" lon="5.86014">
        <ele>299.74</ele>
        <time>2022-03-27T12:51:20.000Z</time>
      </trkpt>
      <trkpt lat="45.25275" lon="5.86042">
        <ele>299.2</ele>
        <time>2022-03-27T12:51:25.000Z</time>
      </trkpt>
      <trkpt lat="45.2529" lon="5.86076">
        <ele>297.29</ele>
        <time>2022-03-27T12:51:30.000Z</time>
      </trkpt>
      <trkpt lat="45.25311" lon="5.86109">
        <ele>298.32</ele>
        <time>2022-03-27T12:51:35.000Z</time>
      </trkpt>
      <trkpt lat="45.25324" lon="5.8614">
        <ele>296.51</ele>
        <time>2022-03-27T12:51:40.000Z</time>
      </trkpt>
      <trkpt lat="45.25329" lon="5.86175">
        <ele>297.38</ele>
        <time>2022-03-27T12:51:45.000Z</time>
      </trkpt>
      <trkpt lat="45.25334" lon="5.86207">
        <ele>298.08</ele>
        <time>2022-03-27T12:51:50.000Z</time>
      </trkpt>
      <trkpt lat="45.25342" lon="5.86238">
        <ele>297.81</ele>
        <time>2022-03-27T12:51:55.000Z</time>
      </trkpt>
      <trkpt lat="45.25348" lon="5.86273">
        <ele>295.89</ele>
        <time>2022-03-27T12:52:00.000Z</time>
      </trkpt>
      <trkpt lat="45.2536" lon="5.86297">
        <ele>297.26</ele>
        <time>2022-03-27T12:52:05.000Z</time>
      </trkpt>
      <trkpt lat="45.25374" lon="5.86318">
        <ele>291.69</ele>
        <time>2022-03-27T12:52:10.000Z</time>
      </trkpt>
      <trkpt lat="45.25388" lon="5.86332">
        <ele>291.96</ele>
        <time>2022-03-27T12:52:15.000Z</time>
      </trkpt>
      <trkpt lat="45.25404" lon="5.8635">
        <ele>292.2</ele>
        <time>2022-03-27T12:52:20.000Z</time>
      </trkpt>
      <trkpt lat="45.2542" lon="5.86366">
        <ele>292.85</ele>
        <time>2022-03-27T12:52:25.000Z</time>
      </trkpt>
      <trkpt lat="45.25442" lon="5.86375">
        <ele>291.07</ele>
        <time>2022-03-27T12:52:30.000Z</time>
      </trkpt>
      <trkpt lat="45.25466" lon="5.86384">
        <ele>289.94</ele>
        <time>2022-03-27T12:52:35.000Z</time>
      </trkpt>
      <trkpt lat="45.25486" lon="5.8639">
        <ele>289.92</ele>
        <time>2022-03-27T12:52:40.000Z</time>
      </trkpt>
      <trkpt lat="45.25507" lon="5.86394">
        <ele>289.87</ele>
        <time>2022-03-27T12:52:45.000Z</time>
      </trkpt>
      <trkpt lat="45.25528" lon="5.864">
        <ele>290.04</ele>
        <time>2022-03-27T12:52:50.000Z</time>
      </trkpt>
      <trkpt lat="45.25559" lon="5.86395">
        <ele>288.22</ele>
        <time>2022-03-27T12:52:55.000Z</time>
      </trkpt>
      <trkpt lat="45.2558" lon="5.8639">
        <ele>286.42</ele>
        <time>2022-03-27T12:53:00.000Z</time>
      </trkpt>
      <trkpt lat="45.25605" lon="5.86383">
        <ele>285.05</ele>
        <time>2022-03-27T12:53:05.000Z</time>
      </trkpt>
      <trkpt lat="45.25635" lon="5.86393">
        <ele>283.94</ele>
        <time>2022-03-27T12:53:10.000Z</time>
      </trkpt>
      <trkpt lat="45.25669" lon="5.86409">
        <ele>284.14</ele>
        <time>2022-03-27T12:53:15.000Z</time>
      </trkpt>
      <trkpt lat="45.25703" lon="5.86433">
        <ele>282.46</ele>
        <time>2022-03-27T12:53:20.000Z</time>
      </trkpt>
      <trkpt lat="45.25733" lon="5.86467">
        <ele>281.77</ele>
        <time>2022-03-27T12:53:25.000Z</time>
      </trkpt>
      <trkpt lat="45.25765" lon="5.86495">
        <ele>284.24</ele>
        <time>2022-03-27T12:53:30.000Z</time>
      </trkpt>
      <trkpt lat="45.25802" lon="5.86508">
        <ele>282.58</ele>
        <time>2022-03-27T12:53:35.000Z</time>
      </trkpt>
      <trkpt lat="45.25833" lon="5.86529">
        <ele>283.96</ele>
        <time>2022-03-27T12:53:40.000Z</time>
      </trkpt>
      <trkpt lat="45.25876" lon="5.86539">
        <ele>285.33</ele>
        <time>2022-03-27T12:53:45.000Z</time>
      </trkpt>
      <trkpt lat="45.25914" lon="5.8654">
        <ele>285.21</ele>
        <time>2022-03-27T12:53:50.000Z</time>
      </trkpt>
      <trkpt lat="45.2595" lon="5.8654">
        <ele>285.02</ele>
        <time>2022-03-27T12:53:55.000Z</time>
      </trkpt>
      <trkpt lat="45.25986" lon="5.86528">
        <ele>282.16</ele>
        <time>2022-03-27T12:54:00.000Z</time>
      </trkpt>
      <trkpt lat="45.26021" lon="5.86524">
        <ele>283.18</ele>
        <time>2022-03-27T12:54:05.000Z</time>
      </trkpt>
      <trkpt lat="45.2606" lon="5.86518">
        <ele>281.31</ele>
        <time>2022-03-27T12:54:10.000Z</time>
      </trkpt>
      <trkpt lat="45.26099" lon="5.86505">
        <ele>281.55</ele>
        <time>2022-03-27T12:54:15.000Z</time>
      </trkpt>
      <trkpt lat="45.26136" lon="5.86495">
        <ele>282.97</ele>
        <time>2022-03-27T12:54:20.000Z</time>
      </trkpt>
      <trkpt lat="45.26171" lon="5.86503">
        <ele>283.49</ele>
        <time>2022-03-27T12:54:25.000Z</time>
      </trkpt>
      <trkpt lat="45.26197" lon="5.86516">
        <ele>283.95</ele>
        <time>2022-03-27T12:54:30.000Z</time>
      </trkpt>
      <trkpt lat="45.26219" lon="5.86524">
        <ele>279.35</ele>
        <time>2022-03-27T12:54:35.000Z</time>
      </trkpt>
      <trkpt lat="45.26243" lon="5.86536">
        <ele>275.98</ele>
        <time>2022-03-27T12:54:40.000Z</time>
      </trkpt>
      <trkpt lat="45.26266" lon="5.86547">
        <ele>277.4</ele>
        <time>2022-03-27T12:54:45.000Z</time>
      </trkpt>
      <trkpt lat="45.26284" lon="5.86554">
        <ele>276.48</ele>
        <time>2022-03-27T12:54:50.000Z</time>
      </trkpt>
      <trkpt lat="45.26301" lon="5.86564">
        <ele>277.51</ele>
        <time>2022-03-27T12:54:55.000Z</time>
      </trkpt>
      <trkpt lat="45.26323" lon="5.86572">
        <ele>277.39</ele>
        <time>2022-03-27T12:55:00.000Z</time>
      </trkpt>
      <trkpt lat="45.26346" lon="5.86579">
        <ele>275.96</ele>
        <time>2022-03-27T12:55:05.000Z</time>
      </trkpt>
      <trkpt lat="45.26368" lon="5.86586">
        <ele>277.8</ele>
        <time>2022-03-27T12:55:10.000Z</time>
      </trkpt>
      <trkpt lat="45.26386" lon="5.86596">
        <ele>277.21</ele>
        <time>2022-03-27T12:55:15.000Z</time>
      </trkpt>
      <trkpt lat="45.26402" lon="5.86607">
        <ele>278.64</ele>
        <time>2022-03-27T12:55:20.000Z</time>
      </trkpt>
      <trkpt lat="45.26426" lon="5.86617">
        <ele>280.86</ele>
        <time>2022-03-27T12:55:25.000Z</time>
      </trkpt>
      <trkpt lat="45.26444" lon="5.86626">
        <ele>284.56</ele>
        <time>2022-03-27T12:55:30.000Z</time>
      </trkpt>
      <trkpt lat="45.26464" lon="5.86634">
        <ele>286.81</ele>
        <time>2022-03-27T12:55:35.000Z</time>
      </trkpt>
      <trkpt lat="45.26486" lon="5.86646">
        <ele>285.32</ele>
        <time>2022-03-27T12:55:40.000Z</time>
      </trkpt>
      <trkpt lat="45.26513" lon="5.86657">
        <ele>282.83</ele>
        <time>2022-03-27T12:55:45.000Z</time>
      </trkpt>
      <trkpt lat="45.26539" lon="5.86666">
        <ele>282.87</ele>
        <time>2022-03-27T12:55:50.000Z</time>
      </trkpt>
      <trkpt lat="45.26567" lon="5.86677">
        <ele>279.55</ele>
        <time>2022-03-27T12:55:55.000Z</time>
      </trkpt>
      <trkpt lat="45.26598" lon="5.86688">
        <ele>278.06</ele>
        <time>2022-03-27T12:56:00.000Z</time>
      </trkpt>
      <trkpt lat="45.26624" lon="5.86697">
        <ele>279.24</ele>
        <time>2022-03-27T12:56:05.000Z</time>
      </trkpt>
      <trkpt lat="45.26628" lon="5.86719">
        <ele>280.04</ele>
        <time>2022-03-27T12:56:10.000Z</time>
      </trkpt>
      <trkpt lat="45.2661" lon="5.86756">
        <ele>277.35</ele>
        <time>2022-03-27T12:56:15.000Z</time>
      </trkpt>
      <trkpt lat="45.26597" lon="5.86791">
        <ele>275.28</ele>
        <time>2022-03-27T12:56:20.000Z</time>
      </trkpt>
      <trkpt lat="45.26585" lon="5.86823">
        <ele>273.29</ele>
        <time>2022-03-27T12:56:25.000Z</time>
      </trkpt>
      <trkpt lat="45.26592" lon="5.86837">
        <ele>271.96</ele>
        <time>2022-03-27T12:56:31.000Z</time>
      </trkpt>
      <trkpt lat="45.26601" lon="5.86851">
        <ele>273.06</ele>
        <time>2022-03-27T12:56:36.000Z</time>
      </trkpt>
      <trkpt lat="45.26626" lon="5.86865">
        <ele>272.43</ele>
        <time>2022-03-27T12:56:41.000Z</time>
      </trkpt>
      <trkpt lat="45.26648" lon="5.86881">
        <ele>272.99</ele>
        <time>2022-03-27T12:56:46.000Z</time>
      </trkpt>
      <trkpt lat="45.26676" lon="5.86887">
        <ele>275.69</ele>
        <time>2022-03-27T12:56:51.000Z</time>
      </trkpt>
      <trkpt lat="45.267" lon="5.86909">
        <ele>273.66</ele>
        <time>2022-03-27T12:56:56.000Z</time>
      </trkpt>
      <trkpt lat="45.26728" lon="5.86928">
        <ele>273.3</ele>
        <time>2022-03-27T12:57:01.000Z</time>
      </trkpt>
      <trkpt lat="45.26749" lon="5.86949">
        <ele>273.79</ele>
        <time>2022-03-27T12:57:06.000Z</time>
      </trkpt>
      <trkpt lat="45.26776" lon="5.8698">
        <ele>276.63</ele>
        <time>2022-03-27T12:57:11.000Z</time>
      </trkpt>
      <trkpt lat="45.26801" lon="5.87011">
        <ele>277.15</ele>
        <time>2022-03-27T12:57:16.000Z</time>
      </trkpt>
      <trkpt lat="45.26838" lon="5.87039">
        <ele>282.05</ele>
        <time>2022-03-27T12:57:21.000Z</time>
      </trkpt>
      <trkpt lat="45.26872" lon="5.87066">
        <ele>280.15</ele>
        <time>2022-03-27T12:57:26.000Z</time>
      </trkpt>
      <trkpt lat="45.26904" lon="5.87085">
        <ele>278.04</ele>
        <time>2022-03-27T12:57:31.000Z</time>
      </trkpt>
      <trkpt lat="45.2693" lon="5.8711">
        <ele>276.81</ele>
        <time>2022-03-27T12:57:36.000Z</time>
      </trkpt>
      <trkpt lat="45.26962" lon="5.87139">
        <ele>276.33</ele>
        <time>2022-03-27T12:57:41.000Z</time>
      </trkpt>
      <trkpt lat="45.26994" lon="5.87163">
        <ele>276.35</ele>
        <time>2022-03-27T12:57:46.000Z</time>
      </trkpt>
      <trkpt lat="45.27025" lon="5.87195">
        <ele>280.77</ele>
        <time>2022-03-27T12:57:51.000Z</time>
      </trkpt>
      <trkpt lat="45.27056" lon="5.87222">
        <ele>282.64</ele>
        <time>2022-03-27T12:57:56.000Z</time>
      </trkpt>
      <trkpt lat="45.27079" lon="5.87246">
        <ele>282.65</ele>
        <time>2022-03-27T12:58:01.000Z</time>
      </trkpt>
      <trkpt lat="45.27095" lon="5.87269">
        <ele>284.26</ele>
        <time>2022-03-27T12:58:06.000Z</time>
      </trkpt>
      <trkpt lat="45.27108" lon="5.87277">
        <ele>281.11</ele>
        <time>2022-03-27T12:58:11.000Z</time>
      </trkpt>
      <trkpt lat="45.27122" lon="5.87295">
        <ele>279.87</ele>
        <time>2022-03-27T12:58:16.000Z</time>
      </trkpt>
      <trkpt lat="45.27135" lon="5.87314">
        <ele>277.29</ele>
        <time>2022-03-27T12:58:21.000Z</time>
      </trkpt>
      <trkpt lat="45.27145" lon="5.87343">
        <ele>272.31</ele>
        <time>2022-03-27T12:58:26.000Z</time>
      </trkpt>
      <trkpt lat="45.27169" lon="5.87373">
        <ele>271.16</ele>
        <time>2022-03-27T12:58:31.000Z</time>
      </trkpt>
      <trkpt lat="45.27196" lon="5.87414">
        <ele>269.36</ele>
        <time>2022-03-27T12:58:36.000Z</time>
      </trkpt>
      <trkpt lat="45.27223" lon="5.87448">
        <ele>271.32</ele>
        <time>2022-03-27T12:58:41.000Z</time>
      </trkpt>
      <trkpt lat="45.27255" lon="5.8746">
        <ele>264.06</ele>
        <time>2022-03-27T12:58:46.000Z</time>
      </trkpt>
      <trkpt lat="45.27293" lon="5.87473">
        <ele>267.77</ele>
        <time>2022-03-27T12:58:51.000Z</time>
      </trkpt>
      <trkpt lat="45.27322" lon="5.87494">
        <ele>263.52</ele>
        <time>2022-03-27T12:58:56.000Z</time>
      </trkpt>
      <trkpt lat="45.27349" lon="5.87511">
        <ele>264.72</ele>
        <time>2022-03-27T12:59:01.000Z</time>
      </trkpt>
      <trkpt lat="45.27377" lon="5.87524">
        <ele>264.29</ele>
        <time>2022-03-27T12:59:06.000Z</time>
      </trkpt>
      <trkpt lat="45.27402" lon="5.87536">
        <ele>262.82</ele>
        <time>2022-03-27T12:59:11.000Z</time>
      </trkpt>
      <trkpt lat="45.27423" lon="5.87551">
        <ele>260.65</ele>
        <time>2022-03-27T12:59:16.000Z</time>
      </trkpt>
      <trkpt lat="45.27445" lon="5.87561">
        <ele>261.91</ele>
        <time>2022-03-27T12:59:21.000Z</time>
      </trkpt>
      <trkpt lat="45.27465" lon="5.87578">
        <ele>260.73</ele>
        <time>2022-03-27T12:59:26.000Z</time>
      </trkpt>
      <trkpt lat="45.2749" lon="5.87585">
        <ele>259.41</ele>
        <time>2022-03-27T12:59:31.000Z</time>
      </trkpt>
      <trkpt lat="45.27514" lon="5.87601">
        <ele>258.73</ele>
        <time>2022-03-27T12:59:36.000Z</time>
      </trkpt>
      <trkpt lat="45.27544" lon="5.87611">
        <ele>255.67</ele>
        <time>2022-03-27T12:59:41.000Z</time>
      </trkpt>
      <trkpt lat="45.2756" lon="5.87618">
        <ele>260.02</ele>
        <time>2022-03-27T12:59:46.000Z</time>
      </trkpt>
      <trkpt lat="45.27566" lon="5.87627">
        <ele>258.95</ele>
        <time>2022-03-27T13:00:20.000Z</time>
      </trkpt>
      <trkpt lat="45.27587" lon="5.87645">
        <ele>259.73</ele>
        <time>2022-03-27T13:00:25.000Z</time>
      </trkpt>
      <trkpt lat="45.27611" lon="5.87661">
        <ele>261.36</ele>
        <time>2022-03-27T13:00:30.000Z</time>
      </trkpt>
      <trkpt lat="45.27641" lon="5.87681">
        <ele>262.51</ele>
        <time>2022-03-27T13:00:35.000Z</time>
      </trkpt>
      <trkpt lat="45.27672" lon="5.87702">
        <ele>262.59</ele>
        <time>2022-03-27T13:00:40.000Z</time>
      </trkpt>
      <trkpt lat="45.27704" lon="5.87718">
        <ele>261.58</ele>
        <time>2022-03-27T13:00:45.000Z</time>
      </trkpt>
      <trkpt lat="45.27735" lon="5.87737">
        <ele>263.13</ele>
        <time>2022-03-27T13:00:50.000Z</time>
      </trkpt>
      <trkpt lat="45.27762" lon="5.87762">
        <ele>263.01</ele>
        <time>2022-03-27T13:00:55.000Z</time>
      </trkpt>
      <trkpt lat="45.27789" lon="5.87791">
        <ele>262.45</ele>
        <time>2022-03-27T13:01:00.000Z</time>
      </trkpt>
      <trkpt lat="45.27817" lon="5.87822">
        <ele>260.92</ele>
        <time>2022-03-27T13:01:05.000Z</time>
      </trkpt>
      <trkpt lat="45.27844" lon="5.87857">
        <ele>259.66</ele>
        <time>2022-03-27T13:01:10.000Z</time>
      </trkpt>
      <trkpt lat="45.2787" lon="5.87892">
        <ele>259.46</ele>
        <time>2022-03-27T13:01:15.000Z</time>
      </trkpt>
      <trkpt lat="45.27894" lon="5.8792">
        <ele>259.5</ele>
        <time>2022-03-27T13:01:20.000Z</time>
      </trkpt>
      <trkpt lat="45.27922" lon="5.87952">
        <ele>262.94</ele>
        <time>2022-03-27T13:01:25.000Z</time>
      </trkpt>
      <trkpt lat="45.27949" lon="5.87979">
        <ele>262.85</ele>
        <time>2022-03-27T13:01:30.000Z</time>
      </trkpt>
      <trkpt lat="45.27971" lon="5.88009">
        <ele>261.91</ele>
        <time>2022-03-27T13:01:35.000Z</time>
      </trkpt>
      <trkpt lat="45.27995" lon="5.88027">
        <ele>258.09</ele>
        <time>2022-03-27T13:01:40.000Z</time>
      </trkpt>
      <trkpt lat="45.2801" lon="5.88043">
        <ele>256.75</ele>
        <time>2022-03-27T13:01:45.000Z</time>
      </trkpt>
      <trkpt lat="45.28032" lon="5.88049">
        <ele>257.83</ele>
        <time>2022-03-27T13:01:50.000Z</time>
      </trkpt>
      <trkpt lat="45.28047" lon="5.88065">
        <ele>257.33</ele>
        <time>2022-03-27T13:01:55.000Z</time>
      </trkpt>
      <trkpt lat="45.28052" lon="5.88092">
        <ele>257.73</ele>
        <time>2022-03-27T13:02:00.000Z</time>
      </trkpt>
      <trkpt lat="45.28083" lon="5.88117">
        <ele>259.07</ele>
        <time>2022-03-27T13:02:05.000Z</time>
      </trkpt>
      <trkpt lat="45.28096" lon="5.88138">
        <ele>258.97</ele>
        <time>2022-03-27T13:02:10.000Z</time>
      </trkpt>
      <trkpt lat="45.28104" lon="5.88157">
        <ele>261.27</ele>
        <time>2022-03-27T13:02:15.000Z</time>
      </trkpt>
      <trkpt lat="45.2812" lon="5.88182">
        <ele>258.32</ele>
        <time>2022-03-27T13:02:20.000Z</time>
      </trkpt>
      <trkpt lat="45.2814" lon="5.882">
        <ele>260</ele>
        <time>2022-03-27T13:02:25.000Z</time>
      </trkpt>
      <trkpt lat="45.28161" lon="5.88224">
        <ele>256.55</ele>
        <time>2022-03-27T13:02:30.000Z</time>
      </trkpt>
      <trkpt lat="45.28179" lon="5.88252">
        <ele>255.6</ele>
        <time>2022-03-27T13:02:35.000Z</time>
      </trkpt>
      <trkpt lat="45.28203" lon="5.88274">
        <ele>255.34</ele>
        <time>2022-03-27T13:02:40.000Z</time>
      </trkpt>
      <trkpt lat="45.28225" lon="5.8829">
        <ele>253.02</ele>
        <time>2022-03-27T13:02:45.000Z</time>
      </trkpt>
      <trkpt lat="45.28255" lon="5.88311">
        <ele>254.78</ele>
        <time>2022-03-27T13:02:50.000Z</time>
      </trkpt>
      <trkpt lat="45.28272" lon="5.88347">
        <ele>251.83</ele>
        <time>2022-03-27T13:02:55.000Z</time>
      </trkpt>
      <trkpt lat="45.2829" lon="5.8838">
        <ele>251.75</ele>
        <time>2022-03-27T13:03:00.000Z</time>
      </trkpt>
      <trkpt lat="45.28314" lon="5.88419">
        <ele>252.49</ele>
        <time>2022-03-27T13:03:05.000Z</time>
      </trkpt>
      <trkpt lat="45.28337" lon="5.88446">
        <ele>250.12</ele>
        <time>2022-03-27T13:03:10.000Z</time>
      </trkpt>
      <trkpt lat="45.28368" lon="5.88479">
        <ele>249.37</ele>
        <time>2022-03-27T13:03:15.000Z</time>
      </trkpt>
      <trkpt lat="45.28395" lon="5.88507">
        <ele>248.89</ele>
        <time>2022-03-27T13:03:20.000Z</time>
      </trkpt>
      <trkpt lat="45.28418" lon="5.88525">
        <ele>249.6</ele>
        <time>2022-03-27T13:03:25.000Z</time>
      </trkpt>
      <trkpt lat="45.28443" lon="5.88552">
        <ele>252.42</ele>
        <time>2022-03-27T13:03:30.000Z</time>
      </trkpt>
      <trkpt lat="45.28467" lon="5.8858">
        <ele>255.26</ele>
        <time>2022-03-27T13:03:35.000Z</time>
      </trkpt>
      <trkpt lat="45.28471" lon="5.88609">
        <ele>252.93</ele>
        <time>2022-03-27T13:03:40.000Z</time>
      </trkpt>
      <trkpt lat="45.28458" lon="5.88628">
        <ele>250.08</ele>
        <time>2022-03-27T13:03:45.000Z</time>
      </trkpt>
      <trkpt lat="45.28432" lon="5.88666">
        <ele>247.88</ele>
        <time>2022-03-27T13:03:50.000Z</time>
      </trkpt>
      <trkpt lat="45.28401" lon="5.88701">
        <ele>249.9</ele>
        <time>2022-03-27T13:03:55.000Z</time>
      </trkpt>
      <trkpt lat="45.28395" lon="5.88748">
        <ele>250.42</ele>
        <time>2022-03-27T13:04:00.000Z</time>
      </trkpt>
      <trkpt lat="45.28383" lon="5.88777">
        <ele>251.85</ele>
        <time>2022-03-27T13:04:05.000Z</time>
      </trkpt>
      <trkpt lat="45.28367" lon="5.88804">
        <ele>252.9</ele>
        <time>2022-03-27T13:04:10.000Z</time>
      </trkpt>
      <trkpt lat="45.28369" lon="5.88834">
        <ele>254.42</ele>
        <time>2022-03-27T13:04:15.000Z</time>
      </trkpt>
      <trkpt lat="45.28367" lon="5.88855">
        <ele>256.7</ele>
        <time>2022-03-27T13:04:20.000Z</time>
      </trkpt>
      <trkpt lat="45.28356" lon="5.88855">
        <ele>251.56</ele>
        <time>2022-03-27T13:04:25.000Z</time>
      </trkpt>
      <trkpt lat="45.28341" lon="5.88864">
        <ele>252.74</ele>
        <time>2022-03-27T13:04:30.000Z</time>
      </trkpt>
      <trkpt lat="45.2833" lon="5.88866">
        <ele>250.61</ele>
        <time>2022-03-27T13:04:55.000Z</time>
      </trkpt>
      <trkpt lat="45.28292" lon="5.88867">
        <ele>251.58</ele>
        <time>2022-03-27T13:05:00.000Z</time>
      </trkpt>
      <trkpt lat="45.28235" lon="5.88907">
        <ele>245.42</ele>
        <time>2022-03-27T13:05:05.000Z</time>
      </trkpt>
      <trkpt lat="45.28205" lon="5.88907">
        <ele>244.34</ele>
        <time>2022-03-27T13:05:10.000Z</time>
      </trkpt>
      <trkpt lat="45.28172" lon="5.88927">
        <ele>244.13</ele>
        <time>2022-03-27T13:05:15.000Z</time>
      </trkpt>
      <trkpt lat="45.28143" lon="5.88943">
        <ele>241.6</ele>
        <time>2022-03-27T13:05:20.000Z</time>
      </trkpt>
      <trkpt lat="45.28124" lon="5.88976">
        <ele>239.16</ele>
        <time>2022-03-27T13:05:25.000Z</time>
      </trkpt>
      <trkpt lat="45.28101" lon="5.89023">
        <ele>238.57</ele>
        <time>2022-03-27T13:05:30.000Z</time>
      </trkpt>
      <trkpt lat="45.28078" lon="5.8906">
        <ele>237.96</ele>
        <time>2022-03-27T13:05:35.000Z</time>
      </trkpt>
      <trkpt lat="45.28059" lon="5.89099">
        <ele>235.84</ele>
        <time>2022-03-27T13:05:40.000Z</time>
      </trkpt>
      <trkpt lat="45.28036" lon="5.89132">
        <ele>232.3</ele>
        <time>2022-03-27T13:05:45.000Z</time>
      </trkpt>
      <trkpt lat="45.28012" lon="5.89165">
        <ele>230.46</ele>
        <time>2022-03-27T13:05:50.000Z</time>
      </trkpt>
      <trkpt lat="45.27995" lon="5.89195">
        <ele>230.29</ele>
        <time>2022-03-27T13:05:55.000Z</time>
      </trkpt>
      <trkpt lat="45.27977" lon="5.89235">
        <ele>230.47</ele>
        <time>2022-03-27T13:06:00.000Z</time>
      </trkpt>
      <trkpt lat="45.27959" lon="5.89274">
        <ele>231.91</ele>
        <time>2022-03-27T13:06:05.000Z</time>
      </trkpt>
      <trkpt lat="45.27948" lon="5.89324">
        <ele>231.16</ele>
        <time>2022-03-27T13:06:10.000Z</time>
      </trkpt>
      <trkpt lat="45.27933" lon="5.89372">
        <ele>225.14</ele>
        <time>2022-03-27T13:06:15.000Z</time>
      </trkpt>
      <trkpt lat="45.27909" lon="5.89405">
        <ele>225.44</ele>
        <time>2022-03-27T13:06:20.000Z</time>
      </trkpt>
      <trkpt lat="45.27887" lon="5.89443">
        <ele>225.82</ele>
        <time>2022-03-27T13:06:25.000Z</time>
      </trkpt>
      <trkpt lat="45.27871" lon="5.89476">
        <ele>227.69</ele>
        <time>2022-03-27T13:06:30.000Z</time>
      </trkpt>
      <trkpt lat="45.2787" lon="5.89506">
        <ele>232.12</ele>
        <time>2022-03-27T13:06:35.000Z</time>
      </trkpt>
      <trkpt lat="45.27896" lon="5.89499">
        <ele>234.73</ele>
        <time>2022-03-27T13:06:40.000Z</time>
      </trkpt>
      <trkpt lat="45.2792" lon="5.89476">
        <ele>233.56</ele>
        <time>2022-03-27T13:06:45.000Z</time>
      </trkpt>
      <trkpt lat="45.27942" lon="5.89448">
        <ele>237.2</ele>
        <time>2022-03-27T13:06:50.000Z</time>
      </trkpt>
      <trkpt lat="45.27965" lon="5.89434">
        <ele>241.05</ele>
        <time>2022-03-27T13:06:55.000Z</time>
      </trkpt>
      <trkpt lat="45.27991" lon="5.89415">
        <ele>241.57</ele>
        <time>2022-03-27T13:07:00.000Z</time>
      </trkpt>
      <trkpt lat="45.28016" lon="5.89424">
        <ele>237.06</ele>
        <time>2022-03-27T13:07:05.000Z</time>
      </trkpt>
      <trkpt lat="45.28037" lon="5.8945">
        <ele>239.84</ele>
        <time>2022-03-27T13:07:10.000Z</time>
      </trkpt>
      <trkpt lat="45.28057" lon="5.89474">
        <ele>239.98</ele>
        <time>2022-03-27T13:07:15.000Z</time>
      </trkpt>
      <trkpt lat="45.28088" lon="5.89502">
        <ele>238.18</ele>
        <time>2022-03-27T13:07:20.000Z</time>
      </trkpt>
      <trkpt lat="45.2811" lon="5.89526">
        <ele>236.08</ele>
        <time>2022-03-27T13:07:25.000Z</time>
      </trkpt>
      <trkpt lat="45.28139" lon="5.89553">
        <ele>237.17</ele>
        <time>2022-03-27T13:07:30.000Z</time>
      </trkpt>
      <trkpt lat="45.28165" lon="5.89575">
        <ele>245.81</ele>
        <time>2022-03-27T13:07:35.000Z</time>
      </trkpt>
      <trkpt lat="45.28194" lon="5.89602">
        <ele>252.68</ele>
        <time>2022-03-27T13:07:40.000Z</time>
      </trkpt>
      <trkpt lat="45.28217" lon="5.89624">
        <ele>248.14</ele>
        <time>2022-03-27T13:07:45.000Z</time>
      </trkpt>
      <trkpt lat="45.28245" lon="5.89644">
        <ele>247.24</ele>
        <time>2022-03-27T13:07:50.000Z</time>
      </trkpt>
      <trkpt lat="45.28266" lon="5.89665">
        <ele>246.34</ele>
        <time>2022-03-27T13:07:55.000Z</time>
      </trkpt>
      <trkpt lat="45.28294" lon="5.89685">
        <ele>243.87</ele>
        <time>2022-03-27T13:08:00.000Z</time>
      </trkpt>
      <trkpt lat="45.28318" lon="5.89708">
        <ele>240.95</ele>
        <time>2022-03-27T13:08:05.000Z</time>
      </trkpt>
      <trkpt lat="45.28344" lon="5.89731">
        <ele>241.69</ele>
        <time>2022-03-27T13:08:10.000Z</time>
      </trkpt>
      <trkpt lat="45.2837" lon="5.89751">
        <ele>242.03</ele>
        <time>2022-03-27T13:08:15.000Z</time>
      </trkpt>
      <trkpt lat="45.28395" lon="5.89772">
        <ele>239.04</ele>
        <time>2022-03-27T13:08:20.000Z</time>
      </trkpt>
      <trkpt lat="45.28418" lon="5.8979">
        <ele>239.49</ele>
        <time>2022-03-27T13:08:25.000Z</time>
      </trkpt>
      <trkpt lat="45.28433" lon="5.89818">
        <ele>239.71</ele>
        <time>2022-03-27T13:08:30.000Z</time>
      </trkpt>
      <trkpt lat="45.28443" lon="5.89854">
        <ele>239.39</ele>
        <time>2022-03-27T13:08:35.000Z</time>
      </trkpt>
      <trkpt lat="45.28446" lon="5.89888">
        <ele>237.01</ele>
        <time>2022-03-27T13:08:40.000Z</time>
      </trkpt>
      <trkpt lat="45.28445" lon="5.89924">
        <ele>236.4</ele>
        <time>2022-03-27T13:08:45.000Z</time>
      </trkpt>
      <trkpt lat="45.28445" lon="5.89975">
        <ele>241.4</ele>
        <time>2022-03-27T13:08:50.000Z</time>
      </trkpt>
      <trkpt lat="45.28447" lon="5.90012">
        <ele>240.27</ele>
        <time>2022-03-27T13:08:55.000Z</time>
      </trkpt>
      <trkpt lat="45.28451" lon="5.90048">
        <ele>238.93</ele>
        <time>2022-03-27T13:09:00.000Z</time>
      </trkpt>
      <trkpt lat="45.2846" lon="5.90084">
        <ele>238.34</ele>
        <time>2022-03-27T13:09:05.000Z</time>
      </trkpt>
      <trkpt lat="45.28466" lon="5.90126">
        <ele>236.35</ele>
        <time>2022-03-27T13:09:10.000Z</time>
      </trkpt>
      <trkpt lat="45.2847" lon="5.90166">
        <ele>241.47</ele>
        <time>2022-03-27T13:09:15.000Z</time>
      </trkpt>
      <trkpt lat="45.28475" lon="5.90206">
        <ele>238.24</ele>
        <time>2022-03-27T13:09:20.000Z</time>
      </trkpt>
      <trkpt lat="45.28483" lon="5.90247">
        <ele>242.47</ele>
        <time>2022-03-27T13:09:25.000Z</time>
      </trkpt>
      <trkpt lat="45.28488" lon="5.90289">
        <ele>243.98</ele>
        <time>2022-03-27T13:09:30.000Z</time>
      </trkpt>
      <trkpt lat="45.28494" lon="5.90326">
        <ele>243.44</ele>
        <time>2022-03-27T13:09:35.000Z</time>
      </trkpt>
      <trkpt lat="45.28496" lon="5.90365">
        <ele>245.59</ele>
        <time>2022-03-27T13:09:40.000Z</time>
      </trkpt>
      <trkpt lat="45.28496" lon="5.90404">
        <ele>247.11</ele>
        <time>2022-03-27T13:09:45.000Z</time>
      </trkpt>
      <trkpt lat="45.28495" lon="5.90446">
        <ele>246.35</ele>
        <time>2022-03-27T13:09:50.000Z</time>
      </trkpt>
      <trkpt lat="45.28496" lon="5.90476">
        <ele>242.98</ele>
        <time>2022-03-27T13:09:55.000Z</time>
      </trkpt>
      <trkpt lat="45.28496" lon="5.90514">
        <ele>241.33</ele>
        <time>2022-03-27T13:10:00.000Z</time>
      </trkpt>
      <trkpt lat="45.28513" lon="5.90531">
        <ele>236.89</ele>
        <time>2022-03-27T13:10:05.000Z</time>
      </trkpt>
      <trkpt lat="45.28536" lon="5.90533">
        <ele>235.6</ele>
        <time>2022-03-27T13:10:10.000Z</time>
      </trkpt>
      <trkpt lat="45.28548" lon="5.90569">
        <ele>234.39</ele>
        <time>2022-03-27T13:10:15.000Z</time>
      </trkpt>
      <trkpt lat="45.28569" lon="5.9059">
        <ele>234.65</ele>
        <time>2022-03-27T13:10:20.000Z</time>
      </trkpt>
      <trkpt lat="45.28594" lon="5.90607">
        <ele>233.66</ele>
        <time>2022-03-27T13:10:25.000Z</time>
      </trkpt>
      <trkpt lat="45.28617" lon="5.90624">
        <ele>232.24</ele>
        <time>2022-03-27T13:10:30.000Z</time>
      </trkpt>
      <trkpt lat="45.2864" lon="5.90641">
        <ele>230.95</ele>
        <time>2022-03-27T13:10:35.000Z</time>
      </trkpt>
      <trkpt lat="45.28665" lon="5.9066">
        <ele>230.69</ele>
        <time>2022-03-27T13:10:40.000Z</time>
      </trkpt>
      <trkpt lat="45.28689" lon="5.90676">
        <ele>230.9</ele>
        <time>2022-03-27T13:10:45.000Z</time>
      </trkpt>
      <trkpt lat="45.28713" lon="5.90696">
        <ele>232.28</ele>
        <time>2022-03-27T13:10:50.000Z</time>
      </trkpt>
      <trkpt lat="45.28736" lon="5.90711">
        <ele>228.34</ele>
        <time>2022-03-27T13:10:55.000Z</time>
      </trkpt>
      <trkpt lat="45.28758" lon="5.90727">
        <ele>231.37</ele>
        <time>2022-03-27T13:11:00.000Z</time>
      </trkpt>
      <trkpt lat="45.28781" lon="5.90746">
        <ele>233.37</ele>
        <time>2022-03-27T13:11:05.000Z</time>
      </trkpt>
      <trkpt lat="45.28806" lon="5.90761">
        <ele>233.98</ele>
        <time>2022-03-27T13:11:10.000Z</time>
      </trkpt>
      <trkpt lat="45.28829" lon="5.90778">
        <ele>234.04</ele>
        <time>2022-03-27T13:11:15.000Z</time>
      </trkpt>
      <trkpt lat="45.28853" lon="5.90796">
        <ele>230.95</ele>
        <time>2022-03-27T13:11:20.000Z</time>
      </trkpt>
      <trkpt lat="45.28882" lon="5.90815">
        <ele>230.7</ele>
        <time>2022-03-27T13:11:25.000Z</time>
      </trkpt>
      <trkpt lat="45.28907" lon="5.90831">
        <ele>235.44</ele>
        <time>2022-03-27T13:11:30.000Z</time>
      </trkpt>
      <trkpt lat="45.28931" lon="5.9085">
        <ele>236.83</ele>
        <time>2022-03-27T13:11:35.000Z</time>
      </trkpt>
      <trkpt lat="45.28957" lon="5.90868">
        <ele>236.67</ele>
        <time>2022-03-27T13:11:40.000Z</time>
      </trkpt>
      <trkpt lat="45.28982" lon="5.90884">
        <ele>236.1</ele>
        <time>2022-03-27T13:11:45.000Z</time>
      </trkpt>
      <trkpt lat="45.29006" lon="5.90886">
        <ele>236.48</ele>
        <time>2022-03-27T13:11:50.000Z</time>
      </trkpt>
      <trkpt lat="45.29034" lon="5.90872">
        <ele>236.42</ele>
        <time>2022-03-27T13:11:55.000Z</time>
      </trkpt>
      <trkpt lat="45.2906" lon="5.90862">
        <ele>238.15</ele>
        <time>2022-03-27T13:12:00.000Z</time>
      </trkpt>
      <trkpt lat="45.29087" lon="5.90852">
        <ele>240.17</ele>
        <time>2022-03-27T13:12:05.000Z</time>
      </trkpt>
      <trkpt lat="45.29115" lon="5.90837">
        <ele>238.97</ele>
        <time>2022-03-27T13:12:10.000Z</time>
      </trkpt>
      <trkpt lat="45.2914" lon="5.90827">
        <ele>237.53</ele>
        <time>2022-03-27T13:12:15.000Z</time>
      </trkpt>
      <trkpt lat="45.29165" lon="5.90817">
        <ele>236.95</ele>
        <time>2022-03-27T13:12:20.000Z</time>
      </trkpt>
      <trkpt lat="45.29194" lon="5.90806">
        <ele>236.65</ele>
        <time>2022-03-27T13:12:25.000Z</time>
      </trkpt>
      <trkpt lat="45.29219" lon="5.90797">
        <ele>240.64</ele>
        <time>2022-03-27T13:12:30.000Z</time>
      </trkpt>
      <trkpt lat="45.29248" lon="5.90786">
        <ele>241.36</ele>
        <time>2022-03-27T13:12:35.000Z</time>
      </trkpt>
      <trkpt lat="45.29276" lon="5.90774">
        <ele>241.74</ele>
        <time>2022-03-27T13:12:40.000Z</time>
      </trkpt>
      <trkpt lat="45.29301" lon="5.90786">
        <ele>242.09</ele>
        <time>2022-03-27T13:12:45.000Z</time>
      </trkpt>
      <trkpt lat="45.29329" lon="5.90799">
        <ele>239.57</ele>
        <time>2022-03-27T13:12:50.000Z</time>
      </trkpt>
      <trkpt lat="45.29357" lon="5.90808">
        <ele>238.83</ele>
        <time>2022-03-27T13:12:55.000Z</time>
      </trkpt>
      <trkpt lat="45.29384" lon="5.90819">
        <ele>239.03</ele>
        <time>2022-03-27T13:13:00.000Z</time>
      </trkpt>
      <trkpt lat="45.29407" lon="5.9083">
        <ele>237.8</ele>
        <time>2022-03-27T13:13:05.000Z</time>
      </trkpt>
      <trkpt lat="45.29434" lon="5.90843">
        <ele>239.63</ele>
        <time>2022-03-27T13:13:10.000Z</time>
      </trkpt>
      <trkpt lat="45.29459" lon="5.90855">
        <ele>237.27</ele>
        <time>2022-03-27T13:13:15.000Z</time>
      </trkpt>
      <trkpt lat="45.29484" lon="5.90868">
        <ele>235.7</ele>
        <time>2022-03-27T13:13:20.000Z</time>
      </trkpt>
      <trkpt lat="45.2951" lon="5.90881">
        <ele>237.42</ele>
        <time>2022-03-27T13:13:25.000Z</time>
      </trkpt>
      <trkpt lat="45.29539" lon="5.90894">
        <ele>239.3</ele>
        <time>2022-03-27T13:13:30.000Z</time>
      </trkpt>
      <trkpt lat="45.29569" lon="5.90904">
        <ele>237.96</ele>
        <time>2022-03-27T13:13:35.000Z</time>
      </trkpt>
      <trkpt lat="45.29595" lon="5.90915">
        <ele>236.92</ele>
        <time>2022-03-27T13:13:40.000Z</time>
      </trkpt>
      <trkpt lat="45.29621" lon="5.90925">
        <ele>236.4</ele>
        <time>2022-03-27T13:13:45.000Z</time>
      </trkpt>
      <trkpt lat="45.29648" lon="5.90935">
        <ele>234.39</ele>
        <time>2022-03-27T13:13:50.000Z</time>
      </trkpt>
      <trkpt lat="45.29674" lon="5.90945">
        <ele>234.64</ele>
        <time>2022-03-27T13:13:55.000Z</time>
      </trkpt>
      <trkpt lat="45.29698" lon="5.90957">
        <ele>236.34</ele>
        <time>2022-03-27T13:14:00.000Z</time>
      </trkpt>
      <trkpt lat="45.29724" lon="5.90965">
        <ele>236.18</ele>
        <time>2022-03-27T13:14:05.000Z</time>
      </trkpt>
      <trkpt lat="45.29749" lon="5.90974">
        <ele>236.11</ele>
        <time>2022-03-27T13:14:10.000Z</time>
      </trkpt>
      <trkpt lat="45.29774" lon="5.90985">
        <ele>237.21</ele>
        <time>2022-03-27T13:14:15.000Z</time>
      </trkpt>
      <trkpt lat="45.29798" lon="5.90997">
        <ele>240.99</ele>
        <time>2022-03-27T13:14:20.000Z</time>
      </trkpt>
      <trkpt lat="45.29824" lon="5.91007">
        <ele>241.13</ele>
        <time>2022-03-27T13:14:25.000Z</time>
      </trkpt>
      <trkpt lat="45.2985" lon="5.91016">
        <ele>242.71</ele>
        <time>2022-03-27T13:14:30.000Z</time>
      </trkpt>
      <trkpt lat="45.29874" lon="5.91025">
        <ele>241.56</ele>
        <time>2022-03-27T13:14:35.000Z</time>
      </trkpt>
      <trkpt lat="45.29897" lon="5.91033">
        <ele>240.69</ele>
        <time>2022-03-27T13:14:40.000Z</time>
      </trkpt>
      <trkpt lat="45.29923" lon="5.91044">
        <ele>240.6</ele>
        <time>2022-03-27T13:14:45.000Z</time>
      </trkpt>
      <trkpt lat="45.29943" lon="5.91063">
        <ele>240.36</ele>
        <time>2022-03-27T13:14:50.000Z</time>
      </trkpt>
      <trkpt lat="45.29967" lon="5.91077">
        <ele>235.55</ele>
        <time>2022-03-27T13:14:55.000Z</time>
      </trkpt>
      <trkpt lat="45.29986" lon="5.91097">
        <ele>237.66</ele>
        <time>2022-03-27T13:15:00.000Z</time>
      </trkpt>
      <trkpt lat="45.30009" lon="5.91116">
        <ele>234.71</ele>
        <time>2022-03-27T13:15:05.000Z</time>
      </trkpt>
      <trkpt lat="45.30031" lon="5.91133">
        <ele>232.1</ele>
        <time>2022-03-27T13:15:10.000Z</time>
      </trkpt>
      <trkpt lat="45.30051" lon="5.91149">
        <ele>228.32</ele>
        <time>2022-03-27T13:15:15.000Z</time>
      </trkpt>
      <trkpt lat="45.30068" lon="5.9117">
        <ele>229.25</ele>
        <time>2022-03-27T13:15:20.000Z</time>
      </trkpt>
      <trkpt lat="45.30087" lon="5.91186">
        <ele>227.68</ele>
        <time>2022-03-27T13:15:25.000Z</time>
      </trkpt>
      <trkpt lat="45.30107" lon="5.91207">
        <ele>228.47</ele>
        <time>2022-03-27T13:15:30.000Z</time>
      </trkpt>
      <trkpt lat="45.30126" lon="5.91228">
        <ele>228.02</ele>
        <time>2022-03-27T13:15:35.000Z</time>
      </trkpt>
      <trkpt lat="45.30145" lon="5.91246">
        <ele>226.5</ele>
        <time>2022-03-27T13:15:40.000Z</time>
      </trkpt>
      <trkpt lat="45.30165" lon="5.91265">
        <ele>233.14</ele>
        <time>2022-03-27T13:15:45.000Z</time>
      </trkpt>
      <trkpt lat="45.30188" lon="5.91286">
        <ele>239.61</ele>
        <time>2022-03-27T13:15:50.000Z</time>
      </trkpt>
      <trkpt lat="45.30211" lon="5.91304">
        <ele>238.81</ele>
        <time>2022-03-27T13:15:55.000Z</time>
      </trkpt>
      <trkpt lat="45.30229" lon="5.91329">
        <ele>236.99</ele>
        <time>2022-03-27T13:16:00.000Z</time>
      </trkpt>
      <trkpt lat="45.30249" lon="5.91347">
        <ele>238.47</ele>
        <time>2022-03-27T13:16:05.000Z</time>
      </trkpt>
      <trkpt lat="45.30269" lon="5.9137">
        <ele>239.65</ele>
        <time>2022-03-27T13:16:10.000Z</time>
      </trkpt>
      <trkpt lat="45.30288" lon="5.91385">
        <ele>239.97</ele>
        <time>2022-03-27T13:16:15.000Z</time>
      </trkpt>
      <trkpt lat="45.30309" lon="5.91413">
        <ele>241.94</ele>
        <time>2022-03-27T13:16:20.000Z</time>
      </trkpt>
      <trkpt lat="45.30332" lon="5.91432">
        <ele>238.2</ele>
        <time>2022-03-27T13:16:25.000Z</time>
      </trkpt>
      <trkpt lat="45.3035" lon="5.91453">
        <ele>240.19</ele>
        <time>2022-03-27T13:16:30.000Z</time>
      </trkpt>
      <trkpt lat="45.30378" lon="5.91467">
        <ele>239.33</ele>
        <time>2022-03-27T13:16:35.000Z</time>
      </trkpt>
      <trkpt lat="45.30389" lon="5.91494">
        <ele>239.02</ele>
        <time>2022-03-27T13:16:40.000Z</time>
      </trkpt>
      <trkpt lat="45.30411" lon="5.91517">
        <ele>238.47</ele>
        <time>2022-03-27T13:16:45.000Z</time>
      </trkpt>
      <trkpt lat="45.30428" lon="5.91535">
        <ele>238.39</ele>
        <time>2022-03-27T13:16:50.000Z</time>
      </trkpt>
      <trkpt lat="45.30447" lon="5.91554">
        <ele>238.84</ele>
        <time>2022-03-27T13:16:55.000Z</time>
      </trkpt>
      <trkpt lat="45.30469" lon="5.91567">
        <ele>237.93</ele>
        <time>2022-03-27T13:17:00.000Z</time>
      </trkpt>
      <trkpt lat="45.30487" lon="5.91593">
        <ele>237.53</ele>
        <time>2022-03-27T13:17:05.000Z</time>
      </trkpt>
      <trkpt lat="45.30511" lon="5.91608">
        <ele>235.17</ele>
        <time>2022-03-27T13:17:10.000Z</time>
      </trkpt>
      <trkpt lat="45.3053" lon="5.91625">
        <ele>234.04</ele>
        <time>2022-03-27T13:17:15.000Z</time>
      </trkpt>
      <trkpt lat="45.30546" lon="5.9164">
        <ele>233.73</ele>
        <time>2022-03-27T13:17:20.000Z</time>
      </trkpt>
      <trkpt lat="45.30548" lon="5.91662">
        <ele>236.88</ele>
        <time>2022-03-27T13:17:25.000Z</time>
      </trkpt>
      <trkpt lat="45.30531" lon="5.91696">
        <ele>238.38</ele>
        <time>2022-03-27T13:17:30.000Z</time>
      </trkpt>
      <trkpt lat="45.30513" lon="5.9173">
        <ele>242.28</ele>
        <time>2022-03-27T13:17:35.000Z</time>
      </trkpt>
      <trkpt lat="45.30503" lon="5.91761">
        <ele>244.57</ele>
        <time>2022-03-27T13:17:40.000Z</time>
      </trkpt>
      <trkpt lat="45.30499" lon="5.91796">
        <ele>241.07</ele>
        <time>2022-03-27T13:17:45.000Z</time>
      </trkpt>
      <trkpt lat="45.30504" lon="5.91822">
        <ele>241.16</ele>
        <time>2022-03-27T13:17:50.000Z</time>
      </trkpt>
      <trkpt lat="45.30509" lon="5.91857">
        <ele>240.21</ele>
        <time>2022-03-27T13:17:55.000Z</time>
      </trkpt>
      <trkpt lat="45.30505" lon="5.91893">
        <ele>239.03</ele>
        <time>2022-03-27T13:18:00.000Z</time>
      </trkpt>
      <trkpt lat="45.30487" lon="5.9192">
        <ele>241.39</ele>
        <time>2022-03-27T13:18:05.000Z</time>
      </trkpt>
      <trkpt lat="45.30471" lon="5.91958">
        <ele>240.51</ele>
        <time>2022-03-27T13:18:10.000Z</time>
      </trkpt>
      <trkpt lat="45.30471" lon="5.92">
        <ele>245.16</ele>
        <time>2022-03-27T13:18:15.000Z</time>
      </trkpt>
      <trkpt lat="45.30484" lon="5.92036">
        <ele>245.4</ele>
        <time>2022-03-27T13:18:20.000Z</time>
      </trkpt>
      <trkpt lat="45.30498" lon="5.92072">
        <ele>246.21</ele>
        <time>2022-03-27T13:18:25.000Z</time>
      </trkpt>
      <trkpt lat="45.3051" lon="5.92106">
        <ele>246.08</ele>
        <time>2022-03-27T13:18:30.000Z</time>
      </trkpt>
      <trkpt lat="45.3053" lon="5.92139">
        <ele>248.76</ele>
        <time>2022-03-27T13:18:35.000Z</time>
      </trkpt>
      <trkpt lat="45.30544" lon="5.92164">
        <ele>249.82</ele>
        <time>2022-03-27T13:18:40.000Z</time>
      </trkpt>
      <trkpt lat="45.30538" lon="5.92195">
        <ele>250.45</ele>
        <time>2022-03-27T13:18:45.000Z</time>
      </trkpt>
      <trkpt lat="45.30521" lon="5.92234">
        <ele>247.73</ele>
        <time>2022-03-27T13:18:50.000Z</time>
      </trkpt>
      <trkpt lat="45.30525" lon="5.92272">
        <ele>246.02</ele>
        <time>2022-03-27T13:18:55.000Z</time>
      </trkpt>
      <trkpt lat="45.30537" lon="5.92314">
        <ele>245.24</ele>
        <time>2022-03-27T13:19:00.000Z</time>
      </trkpt>
      <trkpt lat="45.30546" lon="5.92354">
        <ele>251.7</ele>
        <time>2022-03-27T13:19:05.000Z</time>
      </trkpt>
      <trkpt lat="45.30566" lon="5.9239">
        <ele>253.2</ele>
        <time>2022-03-27T13:19:10.000Z</time>
      </trkpt>
      <trkpt lat="45.30578" lon="5.92421">
        <ele>255.64</ele>
        <time>2022-03-27T13:19:15.000Z</time>
      </trkpt>
      <trkpt lat="45.30585" lon="5.92452">
        <ele>260.56</ele>
        <time>2022-03-27T13:19:20.000Z</time>
      </trkpt>
      <trkpt lat="45.30581" lon="5.92483">
        <ele>263.77</ele>
        <time>2022-03-27T13:19:25.000Z</time>
      </trkpt>
      <trkpt lat="45.30584" lon="5.92515">
        <ele>262.07</ele>
        <time>2022-03-27T13:19:30.000Z</time>
      </trkpt>
      <trkpt lat="45.30592" lon="5.92542">
        <ele>260.37</ele>
        <time>2022-03-27T13:19:35.000Z</time>
      </trkpt>
      <trkpt lat="45.30591" lon="5.92577">
        <ele>263.72</ele>
        <time>2022-03-27T13:19:40.000Z</time>
      </trkpt>
      <trkpt lat="45.30583" lon="5.92615">
        <ele>262.84</ele>
        <time>2022-03-27T13:19:45.000Z</time>
      </trkpt>
      <trkpt lat="45.3057" lon="5.92643">
        <ele>257.9</ele>
        <time>2022-03-27T13:19:50.000Z</time>
      </trkpt>
      <trkpt lat="45.30566" lon="5.92666">
        <ele>257.64</ele>
        <time>2022-03-27T13:19:55.000Z</time>
      </trkpt>
      <trkpt lat="45.30574" lon="5.92678">
        <ele>251.08</ele>
        <time>2022-03-27T13:20:14.000Z</time>
      </trkpt>
      <trkpt lat="45.30586" lon="5.927">
        <ele>251.48</ele>
        <time>2022-03-27T13:20:19.000Z</time>
      </trkpt>
      <trkpt lat="45.30599" lon="5.92723">
        <ele>253.02</ele>
        <time>2022-03-27T13:20:24.000Z</time>
      </trkpt>
      <trkpt lat="45.30614" lon="5.92746">
        <ele>250.76</ele>
        <time>2022-03-27T13:20:29.000Z</time>
      </trkpt>
      <trkpt lat="45.30626" lon="5.92769">
        <ele>252.4</ele>
        <time>2022-03-27T13:20:34.000Z</time>
      </trkpt>
      <trkpt lat="45.30643" lon="5.92793">
        <ele>250.05</ele>
        <time>2022-03-27T13:20:39.000Z</time>
      </trkpt>
      <trkpt lat="45.30651" lon="5.92804">
        <ele>248.67</ele>
        <time>2022-03-27T13:20:44.000Z</time>
      </trkpt>
      <trkpt lat="45.3068" lon="5.92831">
        <ele>246.17</ele>
        <time>2022-03-27T13:20:49.000Z</time>
      </trkpt>
      <trkpt lat="45.30699" lon="5.92847">
        <ele>246.51</ele>
        <time>2022-03-27T13:20:54.000Z</time>
      </trkpt>
      <trkpt lat="45.30723" lon="5.92853">
        <ele>246.13</ele>
        <time>2022-03-27T13:20:59.000Z</time>
      </trkpt>
      <trkpt lat="45.30746" lon="5.92875">
        <ele>245.07</ele>
        <time>2022-03-27T13:21:04.000Z</time>
      </trkpt>
      <trkpt lat="45.30764" lon="5.9289">
        <ele>245.39</ele>
        <time>2022-03-27T13:21:09.000Z</time>
      </trkpt>
      <trkpt lat="45.30785" lon="5.92906">
        <ele>245.16</ele>
        <time>2022-03-27T13:21:14.000Z</time>
      </trkpt>
      <trkpt lat="45.30802" lon="5.92924">
        <ele>245.11</ele>
        <time>2022-03-27T13:21:19.000Z</time>
      </trkpt>
      <trkpt lat="45.30817" lon="5.92937">
        <ele>243.82</ele>
        <time>2022-03-27T13:21:24.000Z</time>
      </trkpt>
      <trkpt lat="45.30833" lon="5.92943">
        <ele>246.47</ele>
        <time>2022-03-27T13:21:29.000Z</time>
      </trkpt>
      <trkpt lat="45.30841" lon="5.9295">
        <ele>246.69</ele>
        <time>2022-03-27T13:21:34.000Z</time>
      </trkpt>
      <trkpt lat="45.30868" lon="5.92947">
        <ele>247.14</ele>
        <time>2022-03-27T13:21:39.000Z</time>
      </trkpt>
      <trkpt lat="45.30883" lon="5.92928">
        <ele>249.94</ele>
        <time>2022-03-27T13:21:44.000Z</time>
      </trkpt>
      <trkpt lat="45.30894" lon="5.9291">
        <ele>249.89</ele>
        <time>2022-03-27T13:21:49.000Z</time>
      </trkpt>
      <trkpt lat="45.30909" lon="5.92888">
        <ele>248.55</ele>
        <time>2022-03-27T13:21:54.000Z</time>
      </trkpt>
      <trkpt lat="45.30926" lon="5.9287">
        <ele>246.85</ele>
        <time>2022-03-27T13:21:59.000Z</time>
      </trkpt>
      <trkpt lat="45.30942" lon="5.9285">
        <ele>246.83</ele>
        <time>2022-03-27T13:22:04.000Z</time>
      </trkpt>
      <trkpt lat="45.3096" lon="5.92835">
        <ele>247.83</ele>
        <time>2022-03-27T13:22:09.000Z</time>
      </trkpt>
      <trkpt lat="45.30987" lon="5.92857">
        <ele>253.51</ele>
        <time>2022-03-27T13:22:14.000Z</time>
      </trkpt>
      <trkpt lat="45.30998" lon="5.92882">
        <ele>255</ele>
        <time>2022-03-27T13:22:19.000Z</time>
      </trkpt>
      <trkpt lat="45.3102" lon="5.92907">
        <ele>253.48</ele>
        <time>2022-03-27T13:22:24.000Z</time>
      </trkpt>
      <trkpt lat="45.31042" lon="5.92925">
        <ele>253.03</ele>
        <time>2022-03-27T13:22:29.000Z</time>
      </trkpt>
      <trkpt lat="45.31039" lon="5.9295">
        <ele>255.13</ele>
        <time>2022-03-27T13:22:34.000Z</time>
      </trkpt>
      <trkpt lat="45.31031" lon="5.92982">
        <ele>256.52</ele>
        <time>2022-03-27T13:22:39.000Z</time>
      </trkpt>
      <trkpt lat="45.31048" lon="5.93009">
        <ele>254.93</ele>
        <time>2022-03-27T13:22:44.000Z</time>
      </trkpt>
      <trkpt lat="45.31074" lon="5.9303">
        <ele>252.96</ele>
        <time>2022-03-27T13:22:49.000Z</time>
      </trkpt>
      <trkpt lat="45.31099" lon="5.9305">
        <ele>250.3</ele>
        <time>2022-03-27T13:22:54.000Z</time>
      </trkpt>
      <trkpt lat="45.3112" lon="5.93078">
        <ele>248.6</ele>
        <time>2022-03-27T13:22:59.000Z</time>
      </trkpt>
      <trkpt lat="45.31139" lon="5.931">
        <ele>248.52</ele>
        <time>2022-03-27T13:23:04.000Z</time>
      </trkpt>
      <trkpt lat="45.31155" lon="5.93109">
        <ele>249.95</ele>
        <time>2022-03-27T13:23:09.000Z</time>
      </trkpt>
      <trkpt lat="45.3118" lon="5.93128">
        <ele>249.76</ele>
        <time>2022-03-27T13:23:14.000Z</time>
      </trkpt>
      <trkpt lat="45.31211" lon="5.93147">
        <ele>249.38</ele>
        <time>2022-03-27T13:23:19.000Z</time>
      </trkpt>
      <trkpt lat="45.31244" lon="5.93159">
        <ele>250.59</ele>
        <time>2022-03-27T13:23:24.000Z</time>
      </trkpt>
      <trkpt lat="45.31269" lon="5.93164">
        <ele>248.35</ele>
        <time>2022-03-27T13:23:29.000Z</time>
      </trkpt>
      <trkpt lat="45.31295" lon="5.93158">
        <ele>249.07</ele>
        <time>2022-03-27T13:23:34.000Z</time>
      </trkpt>
      <trkpt lat="45.3131" lon="5.9313">
        <ele>250.39</ele>
        <time>2022-03-27T13:23:39.000Z</time>
      </trkpt>
      <trkpt lat="45.31328" lon="5.93104">
        <ele>251.14</ele>
        <time>2022-03-27T13:23:44.000Z</time>
      </trkpt>
      <trkpt lat="45.31341" lon="5.93076">
        <ele>253.68</ele>
        <time>2022-03-27T13:23:49.000Z</time>
      </trkpt>
      <trkpt lat="45.3135" lon="5.93052">
        <ele>250.39</ele>
        <time>2022-03-27T13:23:54.000Z</time>
      </trkpt>
      <trkpt lat="45.31354" lon="5.93008">
        <ele>246.98</ele>
        <time>2022-03-27T13:23:59.000Z</time>
      </trkpt>
      <trkpt lat="45.31358" lon="5.92976">
        <ele>245.28</ele>
        <time>2022-03-27T13:24:04.000Z</time>
      </trkpt>
      <trkpt lat="45.3138" lon="5.92953">
        <ele>245.79</ele>
        <time>2022-03-27T13:24:09.000Z</time>
      </trkpt>
      <trkpt lat="45.31403" lon="5.92936">
        <ele>244.48</ele>
        <time>2022-03-27T13:24:14.000Z</time>
      </trkpt>
      <trkpt lat="45.31424" lon="5.9291">
        <ele>248.33</ele>
        <time>2022-03-27T13:24:19.000Z</time>
      </trkpt>
      <trkpt lat="45.3144" lon="5.92902">
        <ele>251.91</ele>
        <time>2022-03-27T13:24:24.000Z</time>
      </trkpt>
      <trkpt lat="45.31462" lon="5.92873">
        <ele>254.4</ele>
        <time>2022-03-27T13:24:29.000Z</time>
      </trkpt>
      <trkpt lat="45.31484" lon="5.92848">
        <ele>261</ele>
        <time>2022-03-27T13:24:34.000Z</time>
      </trkpt>
      <trkpt lat="45.315" lon="5.92812">
        <ele>266.83</ele>
        <time>2022-03-27T13:24:39.000Z</time>
      </trkpt>
      <trkpt lat="45.31509" lon="5.92793">
        <ele>264.68</ele>
        <time>2022-03-27T13:24:44.000Z</time>
      </trkpt>
      <trkpt lat="45.3152" lon="5.92764">
        <ele>262.53</ele>
        <time>2022-03-27T13:24:49.000Z</time>
      </trkpt>
      <trkpt lat="45.31532" lon="5.9274">
        <ele>264.2</ele>
        <time>2022-03-27T13:24:54.000Z</time>
      </trkpt>
      <trkpt lat="45.31542" lon="5.92708">
        <ele>267.97</ele>
        <time>2022-03-27T13:24:59.000Z</time>
      </trkpt>
      <trkpt lat="45.31553" lon="5.92684">
        <ele>272.2</ele>
        <time>2022-03-27T13:25:04.000Z</time>
      </trkpt>
      <trkpt lat="45.31565" lon="5.92655">
        <ele>273.69</ele>
        <time>2022-03-27T13:25:09.000Z</time>
      </trkpt>
      <trkpt lat="45.31577" lon="5.92622">
        <ele>271.73</ele>
        <time>2022-03-27T13:25:14.000Z</time>
      </trkpt>
      <trkpt lat="45.31593" lon="5.92586">
        <ele>270.43</ele>
        <time>2022-03-27T13:25:19.000Z</time>
      </trkpt>
      <trkpt lat="45.31603" lon="5.92579">
        <ele>270.36</ele>
        <time>2022-03-27T13:25:24.000Z</time>
      </trkpt>
      <trkpt lat="45.31607" lon="5.92597">
        <ele>271.84</ele>
        <time>2022-03-27T13:25:29.000Z</time>
      </trkpt>
      <trkpt lat="45.31611" lon="5.92618">
        <ele>273.26</ele>
        <time>2022-03-27T13:25:34.000Z</time>
      </trkpt>
      <trkpt lat="45.3162" lon="5.92657">
        <ele>275.21</ele>
        <time>2022-03-27T13:25:39.000Z</time>
      </trkpt>
      <trkpt lat="45.31633" lon="5.92688">
        <ele>274.9</ele>
        <time>2022-03-27T13:25:44.000Z</time>
      </trkpt>
      <trkpt lat="45.31648" lon="5.92722">
        <ele>273.68</ele>
        <time>2022-03-27T13:25:49.000Z</time>
      </trkpt>
      <trkpt lat="45.31666" lon="5.92756">
        <ele>272.47</ele>
        <time>2022-03-27T13:25:54.000Z</time>
      </trkpt>
      <trkpt lat="45.31683" lon="5.92793">
        <ele>273.65</ele>
        <time>2022-03-27T13:25:59.000Z</time>
      </trkpt>
      <trkpt lat="45.31698" lon="5.92836">
        <ele>273.68</ele>
        <time>2022-03-27T13:26:04.000Z</time>
      </trkpt>
      <trkpt lat="45.31717" lon="5.92885">
        <ele>272.78</ele>
        <time>2022-03-27T13:26:09.000Z</time>
      </trkpt>
      <trkpt lat="45.31735" lon="5.92921">
        <ele>279.01</ele>
        <time>2022-03-27T13:26:14.000Z</time>
      </trkpt>
      <trkpt lat="45.31762" lon="5.92965">
        <ele>280.94</ele>
        <time>2022-03-27T13:26:19.000Z</time>
      </trkpt>
      <trkpt lat="45.31784" lon="5.93005">
        <ele>281.34</ele>
        <time>2022-03-27T13:26:24.000Z</time>
      </trkpt>
      <trkpt lat="45.3181" lon="5.93056">
        <ele>285.27</ele>
        <time>2022-03-27T13:26:29.000Z</time>
      </trkpt>
      <trkpt lat="45.31836" lon="5.93107">
        <ele>279.16</ele>
        <time>2022-03-27T13:26:34.000Z</time>
      </trkpt>
      <trkpt lat="45.31852" lon="5.93155">
        <ele>271.19</ele>
        <time>2022-03-27T13:26:39.000Z</time>
      </trkpt>
      <trkpt lat="45.3188" lon="5.93186">
        <ele>268.89</ele>
        <time>2022-03-27T13:26:44.000Z</time>
      </trkpt>
      <trkpt lat="45.31911" lon="5.93188">
        <ele>266.88</ele>
        <time>2022-03-27T13:26:49.000Z</time>
      </trkpt>
      <trkpt lat="45.31937" lon="5.93195">
        <ele>269.62</ele>
        <time>2022-03-27T13:26:54.000Z</time>
      </trkpt>
      <trkpt lat="45.31955" lon="5.932">
        <ele>270.55</ele>
        <time>2022-03-27T13:26:59.000Z</time>
      </trkpt>
      <trkpt lat="45.31979" lon="5.93208">
        <ele>270.39</ele>
        <time>2022-03-27T13:27:04.000Z</time>
      </trkpt>
      <trkpt lat="45.32004" lon="5.93225">
        <ele>268.39</ele>
        <time>2022-03-27T13:27:09.000Z</time>
      </trkpt>
      <trkpt lat="45.32022" lon="5.93249">
        <ele>267.99</ele>
        <time>2022-03-27T13:27:14.000Z</time>
      </trkpt>
      <trkpt lat="45.32044" lon="5.93269">
        <ele>263.96</ele>
        <time>2022-03-27T13:27:19.000Z</time>
      </trkpt>
      <trkpt lat="45.32062" lon="5.93287">
        <ele>260.06</ele>
        <time>2022-03-27T13:27:24.000Z</time>
      </trkpt>
      <trkpt lat="45.32083" lon="5.93307">
        <ele>256.15</ele>
        <time>2022-03-27T13:27:29.000Z</time>
      </trkpt>
      <trkpt lat="45.32097" lon="5.93334">
        <ele>255.19</ele>
        <time>2022-03-27T13:27:34.000Z</time>
      </trkpt>
      <trkpt lat="45.32121" lon="5.93362">
        <ele>256.22</ele>
        <time>2022-03-27T13:27:39.000Z</time>
      </trkpt>
      <trkpt lat="45.32133" lon="5.9339">
        <ele>253.99</ele>
        <time>2022-03-27T13:27:44.000Z</time>
      </trkpt>
      <trkpt lat="45.32145" lon="5.93408">
        <ele>254.34</ele>
        <time>2022-03-27T13:27:49.000Z</time>
      </trkpt>
      <trkpt lat="45.32153" lon="5.93425">
        <ele>252.47</ele>
        <time>2022-03-27T13:27:54.000Z</time>
      </trkpt>
      <trkpt lat="45.3216" lon="5.93435">
        <ele>250.45</ele>
        <time>2022-03-27T13:27:59.000Z</time>
      </trkpt>
      <trkpt lat="45.32173" lon="5.93459">
        <ele>252.28</ele>
        <time>2022-03-27T13:28:04.000Z</time>
      </trkpt>
      <trkpt lat="45.32194" lon="5.93488">
        <ele>251.16</ele>
        <time>2022-03-27T13:28:09.000Z</time>
      </trkpt>
      <trkpt lat="45.32215" lon="5.93519">
        <ele>253.93</ele>
        <time>2022-03-27T13:28:14.000Z</time>
      </trkpt>
      <trkpt lat="45.32226" lon="5.93539">
        <ele>250.41</ele>
        <time>2022-03-27T13:28:19.000Z</time>
      </trkpt>
      <trkpt lat="45.32212" lon="5.93555">
        <ele>247.58</ele>
        <time>2022-03-27T13:28:24.000Z</time>
      </trkpt>
      <trkpt lat="45.32196" lon="5.93577">
        <ele>248.2</ele>
        <time>2022-03-27T13:28:29.000Z</time>
      </trkpt>
      <trkpt lat="45.3218" lon="5.93601">
        <ele>249.39</ele>
        <time>2022-03-27T13:28:34.000Z</time>
      </trkpt>
      <trkpt lat="45.32166" lon="5.93627">
        <ele>246.75</ele>
        <time>2022-03-27T13:28:39.000Z</time>
      </trkpt>
      <trkpt lat="45.32135" lon="5.93663">
        <ele>244.67</ele>
        <time>2022-03-27T13:28:44.000Z</time>
      </trkpt>
      <trkpt lat="45.32122" lon="5.93697">
        <ele>246.98</ele>
        <time>2022-03-27T13:28:49.000Z</time>
      </trkpt>
      <trkpt lat="45.32095" lon="5.93748">
        <ele>246.16</ele>
        <time>2022-03-27T13:28:54.000Z</time>
      </trkpt>
      <trkpt lat="45.32068" lon="5.93787">
        <ele>245.87</ele>
        <time>2022-03-27T13:28:59.000Z</time>
      </trkpt>
      <trkpt lat="45.32042" lon="5.93825">
        <ele>246.05</ele>
        <time>2022-03-27T13:29:04.000Z</time>
      </trkpt>
      <trkpt lat="45.32014" lon="5.93855">
        <ele>245.75</ele>
        <time>2022-03-27T13:29:09.000Z</time>
      </trkpt>
      <trkpt lat="45.31991" lon="5.93899">
        <ele>244.38</ele>
        <time>2022-03-27T13:29:14.000Z</time>
      </trkpt>
      <trkpt lat="45.31963" lon="5.93934">
        <ele>244.63</ele>
        <time>2022-03-27T13:29:19.000Z</time>
      </trkpt>
      <trkpt lat="45.31937" lon="5.93969">
        <ele>240.33</ele>
        <time>2022-03-27T13:29:24.000Z</time>
      </trkpt>
      <trkpt lat="45.31912" lon="5.94">
        <ele>238.66</ele>
        <time>2022-03-27T13:29:29.000Z</time>
      </trkpt>
      <trkpt lat="45.3189" lon="5.94032">
        <ele>239.68</ele>
        <time>2022-03-27T13:29:34.000Z</time>
      </trkpt>
      <trkpt lat="45.31874" lon="5.94053">
        <ele>238.15</ele>
        <time>2022-03-27T13:29:39.000Z</time>
      </trkpt>
      <trkpt lat="45.31856" lon="5.94086">
        <ele>234.56</ele>
        <time>2022-03-27T13:29:44.000Z</time>
      </trkpt>
      <trkpt lat="45.31838" lon="5.94113">
        <ele>237.81</ele>
        <time>2022-03-27T13:29:49.000Z</time>
      </trkpt>
      <trkpt lat="45.31825" lon="5.94139">
        <ele>241.15</ele>
        <time>2022-03-27T13:29:54.000Z</time>
      </trkpt>
      <trkpt lat="45.31813" lon="5.94162">
        <ele>242.59</ele>
        <time>2022-03-27T13:29:59.000Z</time>
      </trkpt>
      <trkpt lat="45.31793" lon="5.94187">
        <ele>242.02</ele>
        <time>2022-03-27T13:30:04.000Z</time>
      </trkpt>
      <trkpt lat="45.31774" lon="5.9422">
        <ele>241.4</ele>
        <time>2022-03-27T13:30:09.000Z</time>
      </trkpt>
      <trkpt lat="45.31742" lon="5.94266">
        <ele>246.65</ele>
        <time>2022-03-27T13:30:14.000Z</time>
      </trkpt>
      <trkpt lat="45.31728" lon="5.94284">
        <ele>244.72</ele>
        <time>2022-03-27T13:30:19.000Z</time>
      </trkpt>
      <trkpt lat="45.31723" lon="5.94321">
        <ele>244.48</ele>
        <time>2022-03-27T13:30:24.000Z</time>
      </trkpt>
      <trkpt lat="45.31689" lon="5.94367">
        <ele>242.77</ele>
        <time>2022-03-27T13:30:29.000Z</time>
      </trkpt>
      <trkpt lat="45.31667" lon="5.94408">
        <ele>243.65</ele>
        <time>2022-03-27T13:30:34.000Z</time>
      </trkpt>
      <trkpt lat="45.31655" lon="5.9442">
        <ele>242.08</ele>
        <time>2022-03-27T13:30:39.000Z</time>
      </trkpt>
      <trkpt lat="45.31637" lon="5.94441">
        <ele>240.93</ele>
        <time>2022-03-27T13:30:44.000Z</time>
      </trkpt>
      <trkpt lat="45.31618" lon="5.94464">
        <ele>240.13</ele>
        <time>2022-03-27T13:30:49.000Z</time>
      </trkpt>
      <trkpt lat="45.3161" lon="5.94488">
        <ele>237.79</ele>
        <time>2022-03-27T13:30:54.000Z</time>
      </trkpt>
      <trkpt lat="45.3159" lon="5.9452">
        <ele>242.21</ele>
        <time>2022-03-27T13:30:59.000Z</time>
      </trkpt>
      <trkpt lat="45.31562" lon="5.94556">
        <ele>242.82</ele>
        <time>2022-03-27T13:31:04.000Z</time>
      </trkpt>
      <trkpt lat="45.31545" lon="5.9459">
        <ele>239.45</ele>
        <time>2022-03-27T13:31:09.000Z</time>
      </trkpt>
      <trkpt lat="45.31518" lon="5.94614">
        <ele>241.34</ele>
        <time>2022-03-27T13:31:14.000Z</time>
      </trkpt>
      <trkpt lat="45.31502" lon="5.94665">
        <ele>240.93</ele>
        <time>2022-03-27T13:31:19.000Z</time>
      </trkpt>
      <trkpt lat="45.31471" lon="5.94694">
        <ele>240.37</ele>
        <time>2022-03-27T13:31:24.000Z</time>
      </trkpt>
      <trkpt lat="45.3145" lon="5.94741">
        <ele>240.79</ele>
        <time>2022-03-27T13:31:29.000Z</time>
      </trkpt>
      <trkpt lat="45.31427" lon="5.94784">
        <ele>240.47</ele>
        <time>2022-03-27T13:31:34.000Z</time>
      </trkpt>
      <trkpt lat="45.31397" lon="5.94822">
        <ele>239.14</ele>
        <time>2022-03-27T13:31:39.000Z</time>
      </trkpt>
      <trkpt lat="45.31376" lon="5.94854">
        <ele>238.33</ele>
        <time>2022-03-27T13:31:44.000Z</time>
      </trkpt>
      <trkpt lat="45.31355" lon="5.94889">
        <ele>237.36</ele>
        <time>2022-03-27T13:31:49.000Z</time>
      </trkpt>
      <trkpt lat="45.31318" lon="5.94917">
        <ele>239.16</ele>
        <time>2022-03-27T13:31:54.000Z</time>
      </trkpt>
      <trkpt lat="45.31331" lon="5.94942">
        <ele>245.56</ele>
        <time>2022-03-27T13:31:59.000Z</time>
      </trkpt>
      <trkpt lat="45.31349" lon="5.94963">
        <ele>249.09</ele>
        <time>2022-03-27T13:32:04.000Z</time>
      </trkpt>
      <trkpt lat="45.31364" lon="5.94991">
        <ele>252.77</ele>
        <time>2022-03-27T13:32:09.000Z</time>
      </trkpt>
      <trkpt lat="45.31379" lon="5.95011">
        <ele>252.03</ele>
        <time>2022-03-27T13:32:14.000Z</time>
      </trkpt>
      <trkpt lat="45.31382" lon="5.9503">
        <ele>253.11</ele>
        <time>2022-03-27T13:32:19.000Z</time>
      </trkpt>
      <trkpt lat="45.31378" lon="5.95066">
        <ele>251.78</ele>
        <time>2022-03-27T13:32:24.000Z</time>
      </trkpt>
      <trkpt lat="45.31371" lon="5.951">
        <ele>248.1</ele>
        <time>2022-03-27T13:32:29.000Z</time>
      </trkpt>
      <trkpt lat="45.31361" lon="5.9514">
        <ele>243.7</ele>
        <time>2022-03-27T13:32:34.000Z</time>
      </trkpt>
      <trkpt lat="45.3135" lon="5.9518">
        <ele>242.39</ele>
        <time>2022-03-27T13:32:39.000Z</time>
      </trkpt>
      <trkpt lat="45.31339" lon="5.9522">
        <ele>241.47</ele>
        <time>2022-03-27T13:32:44.000Z</time>
      </trkpt>
      <trkpt lat="45.31315" lon="5.95248">
        <ele>239.97</ele>
        <time>2022-03-27T13:32:49.000Z</time>
      </trkpt>
      <trkpt lat="45.31296" lon="5.9528">
        <ele>236.53</ele>
        <time>2022-03-27T13:32:54.000Z</time>
      </trkpt>
      <trkpt lat="45.31293" lon="5.95316">
        <ele>236.24</ele>
        <time>2022-03-27T13:32:59.000Z</time>
      </trkpt>
      <trkpt lat="45.31285" lon="5.95351">
        <ele>237.8</ele>
        <time>2022-03-27T13:33:04.000Z</time>
      </trkpt>
      <trkpt lat="45.31279" lon="5.95388">
        <ele>239.9</ele>
        <time>2022-03-27T13:33:09.000Z</time>
      </trkpt>
      <trkpt lat="45.31265" lon="5.95422">
        <ele>243.13</ele>
        <time>2022-03-27T13:33:14.000Z</time>
      </trkpt>
      <trkpt lat="45.3125" lon="5.95447">
        <ele>244.02</ele>
        <time>2022-03-27T13:33:19.000Z</time>
      </trkpt>
      <trkpt lat="45.3124" lon="5.95464">
        <ele>245.31</ele>
        <time>2022-03-27T13:33:24.000Z</time>
      </trkpt>
      <trkpt lat="45.3123" lon="5.95473">
        <ele>245.25</ele>
        <time>2022-03-27T13:33:29.000Z</time>
      </trkpt>
      <trkpt lat="45.31214" lon="5.95487">
        <ele>250.3</ele>
        <time>2022-03-27T13:33:34.000Z</time>
      </trkpt>
      <trkpt lat="45.31196" lon="5.95517">
        <ele>253.21</ele>
        <time>2022-03-27T13:33:39.000Z</time>
      </trkpt>
      <trkpt lat="45.31181" lon="5.95545">
        <ele>253.96</ele>
        <time>2022-03-27T13:33:44.000Z</time>
      </trkpt>
      <trkpt lat="45.31168" lon="5.95574">
        <ele>250.79</ele>
        <time>2022-03-27T13:33:49.000Z</time>
      </trkpt>
      <trkpt lat="45.3116" lon="5.95604">
        <ele>252.94</ele>
        <time>2022-03-27T13:33:54.000Z</time>
      </trkpt>
      <trkpt lat="45.31145" lon="5.95637">
        <ele>250.78</ele>
        <time>2022-03-27T13:33:59.000Z</time>
      </trkpt>
      <trkpt lat="45.31123" lon="5.95661">
        <ele>246.33</ele>
        <time>2022-03-27T13:34:04.000Z</time>
      </trkpt>
      <trkpt lat="45.31119" lon="5.95691">
        <ele>246.15</ele>
        <time>2022-03-27T13:34:09.000Z</time>
      </trkpt>
      <trkpt lat="45.3113" lon="5.95725">
        <ele>242.82</ele>
        <time>2022-03-27T13:34:14.000Z</time>
      </trkpt>
      <trkpt lat="45.31149" lon="5.95754">
        <ele>241.75</ele>
        <time>2022-03-27T13:34:19.000Z</time>
      </trkpt>
      <trkpt lat="45.31165" lon="5.95767">
        <ele>240.94</ele>
        <time>2022-03-27T13:34:24.000Z</time>
      </trkpt>
      <trkpt lat="45.31185" lon="5.95791">
        <ele>241.01</ele>
        <time>2022-03-27T13:34:29.000Z</time>
      </trkpt>
      <trkpt lat="45.31206" lon="5.95802">
        <ele>241.46</ele>
        <time>2022-03-27T13:34:34.000Z</time>
      </trkpt>
      <trkpt lat="45.31226" lon="5.95799">
        <ele>242.79</ele>
        <time>2022-03-27T13:34:39.000Z</time>
      </trkpt>
      <trkpt lat="45.31254" lon="5.95798">
        <ele>244.51</ele>
        <time>2022-03-27T13:34:44.000Z</time>
      </trkpt>
      <trkpt lat="45.31271" lon="5.9577">
        <ele>242.92</ele>
        <time>2022-03-27T13:34:49.000Z</time>
      </trkpt>
      <trkpt lat="45.31293" lon="5.95745">
        <ele>244.66</ele>
        <time>2022-03-27T13:34:54.000Z</time>
      </trkpt>
      <trkpt lat="45.31308" lon="5.95729">
        <ele>248.42</ele>
        <time>2022-03-27T13:34:59.000Z</time>
      </trkpt>
      <trkpt lat="45.31308" lon="5.95716">
        <ele>248.9</ele>
        <time>2022-03-27T13:35:04.000Z</time>
      </trkpt>
      <trkpt lat="45.31309" lon="5.95734">
        <ele>245.47</ele>
        <time>2022-03-27T13:35:09.000Z</time>
      </trkpt>
      <trkpt lat="45.31317" lon="5.95762">
        <ele>245.32</ele>
        <time>2022-03-27T13:35:14.000Z</time>
      </trkpt>
      <trkpt lat="45.31345" lon="5.95784">
        <ele>247.69</ele>
        <time>2022-03-27T13:35:19.000Z</time>
      </trkpt>
      <trkpt lat="45.3137" lon="5.95794">
        <ele>248.08</ele>
        <time>2022-03-27T13:35:24.000Z</time>
      </trkpt>
      <trkpt lat="45.31387" lon="5.95769">
        <ele>248.72</ele>
        <time>2022-03-27T13:35:29.000Z</time>
      </trkpt>
      <trkpt lat="45.31402" lon="5.95786">
        <ele>249.14</ele>
        <time>2022-03-27T13:35:34.000Z</time>
      </trkpt>
      <trkpt lat="45.31409" lon="5.95795">
        <ele>243.58</ele>
        <time>2022-03-27T13:35:44.000Z</time>
      </trkpt>
      <trkpt lat="45.31409" lon="5.95808">
        <ele>244.56</ele>
        <time>2022-03-27T13:36:21.000Z</time>
      </trkpt>
      <trkpt lat="45.31411" lon="5.95821">
        <ele>236.24</ele>
        <time>2022-03-27T13:42:27.000Z</time>
      </trkpt>
      <trkpt lat="45.31403" lon="5.95825">
        <ele>232.15</ele>
        <time>2022-03-27T14:02:29.000Z</time>
      </trkpt>
      <trkpt lat="45.31412" lon="5.95825">
        <ele>240.77</ele>
        <time>2022-03-27T14:08:41.000Z</time>
      </trkpt>
      <trkpt lat="45.31421" lon="5.95824">
        <ele>245.6</ele>
        <time>2022-03-27T14:33:05.000Z</time>
      </trkpt>
      <trkpt lat="45.31411" lon="5.95823">
        <ele>234.94</ele>
        <time>2022-03-27T14:37:10.000Z</time>
      </trkpt>
      <trkpt lat="45.31429" lon="5.95816">
        <ele>224.5</ele>
        <time>2022-03-27T14:52:40.000Z</time>
      </trkpt>
      <trkpt lat="45.3142" lon="5.95818">
        <ele>231.51</ele>
        <time>2022-03-27T14:53:02.000Z</time>
      </trkpt>
      <trkpt lat="45.3141" lon="5.95821">
        <ele>235.14</ele>
        <time>2022-03-27T14:53:16.000Z</time>
      </trkpt>
      <trkpt lat="45.314" lon="5.95815">
        <ele>230.59</ele>
        <time>2022-03-27T14:59:39.000Z</time>
      </trkpt>
      <trkpt lat="45.31389" lon="5.95801">
        <ele>235.26</ele>
        <time>2022-03-27T14:59:44.000Z</time>
      </trkpt>
      <trkpt lat="45.31377" lon="5.95799">
        <ele>235.56</ele>
        <time>2022-03-27T14:59:49.000Z</time>
      </trkpt>
      <trkpt lat="45.31368" lon="5.95816">
        <ele>232.92</ele>
        <time>2022-03-27T14:59:54.000Z</time>
      </trkpt>
      <trkpt lat="45.31354" lon="5.95815">
        <ele>234.91</ele>
        <time>2022-03-27T14:59:59.000Z</time>
      </trkpt>
      <trkpt lat="45.31337" lon="5.95794">
        <ele>236.95</ele>
        <time>2022-03-27T15:00:04.000Z</time>
      </trkpt>
      <trkpt lat="45.31323" lon="5.95776">
        <ele>239.39</ele>
        <time>2022-03-27T15:00:09.000Z</time>
      </trkpt>
      <trkpt lat="45.31311" lon="5.95761">
        <ele>242.76</ele>
        <time>2022-03-27T15:00:14.000Z</time>
      </trkpt>
      <trkpt lat="45.31299" lon="5.95747">
        <ele>245.18</ele>
        <time>2022-03-27T15:00:19.000Z</time>
      </trkpt>
      <trkpt lat="45.31281" lon="5.95763">
        <ele>246.9</ele>
        <time>2022-03-27T15:00:24.000Z</time>
      </trkpt>
      <trkpt lat="45.31264" lon="5.95779">
        <ele>244.33</ele>
        <time>2022-03-27T15:00:29.000Z</time>
      </trkpt>
      <trkpt lat="45.3125" lon="5.95801">
        <ele>243.01</ele>
        <time>2022-03-27T15:00:34.000Z</time>
      </trkpt>
      <trkpt lat="45.31232" lon="5.95805">
        <ele>246.97</ele>
        <time>2022-03-27T15:00:39.000Z</time>
      </trkpt>
      <trkpt lat="45.31215" lon="5.95795">
        <ele>243.51</ele>
        <time>2022-03-27T15:00:44.000Z</time>
      </trkpt>
      <trkpt lat="45.31204" lon="5.95806">
        <ele>242.86</ele>
        <time>2022-03-27T15:00:49.000Z</time>
      </trkpt>
      <trkpt lat="45.31196" lon="5.95818">
        <ele>238.55</ele>
        <time>2022-03-27T15:00:54.000Z</time>
      </trkpt>
      <trkpt lat="45.31188" lon="5.95839">
        <ele>238.12</ele>
        <time>2022-03-27T15:00:59.000Z</time>
      </trkpt>
      <trkpt lat="45.31179" lon="5.95861">
        <ele>238.11</ele>
        <time>2022-03-27T15:01:04.000Z</time>
      </trkpt>
      <trkpt lat="45.31173" lon="5.95883">
        <ele>235.67</ele>
        <time>2022-03-27T15:01:09.000Z</time>
      </trkpt>
      <trkpt lat="45.31167" lon="5.95906">
        <ele>238.35</ele>
        <time>2022-03-27T15:01:14.000Z</time>
      </trkpt>
      <trkpt lat="45.31162" lon="5.9593">
        <ele>237.48</ele>
        <time>2022-03-27T15:01:19.000Z</time>
      </trkpt>
      <trkpt lat="45.31152" lon="5.9595">
        <ele>236.5</ele>
        <time>2022-03-27T15:01:24.000Z</time>
      </trkpt>
      <trkpt lat="45.31145" lon="5.95973">
        <ele>236.92</ele>
        <time>2022-03-27T15:01:29.000Z</time>
      </trkpt>
      <trkpt lat="45.31142" lon="5.96002">
        <ele>237.95</ele>
        <time>2022-03-27T15:01:34.000Z</time>
      </trkpt>
      <trkpt lat="45.31136" lon="5.96023">
        <ele>234.91</ele>
        <time>2022-03-27T15:01:39.000Z</time>
      </trkpt>
      <trkpt lat="45.31128" lon="5.96045">
        <ele>233.71</ele>
        <time>2022-03-27T15:01:44.000Z</time>
      </trkpt>
      <trkpt lat="45.31112" lon="5.96048">
        <ele>237.17</ele>
        <time>2022-03-27T15:01:49.000Z</time>
      </trkpt>
      <trkpt lat="45.31097" lon="5.96033">
        <ele>238.94</ele>
        <time>2022-03-27T15:01:54.000Z</time>
      </trkpt>
      <trkpt lat="45.3108" lon="5.96016">
        <ele>241.23</ele>
        <time>2022-03-27T15:01:59.000Z</time>
      </trkpt>
      <trkpt lat="45.31063" lon="5.95997">
        <ele>242.26</ele>
        <time>2022-03-27T15:02:04.000Z</time>
      </trkpt>
      <trkpt lat="45.31042" lon="5.95976">
        <ele>244.41</ele>
        <time>2022-03-27T15:02:09.000Z</time>
      </trkpt>
      <trkpt lat="45.31022" lon="5.95958">
        <ele>245.16</ele>
        <time>2022-03-27T15:02:14.000Z</time>
      </trkpt>
      <trkpt lat="45.31" lon="5.9594">
        <ele>249.85</ele>
        <time>2022-03-27T15:02:19.000Z</time>
      </trkpt>
      <trkpt lat="45.30981" lon="5.9592">
        <ele>250.96</ele>
        <time>2022-03-27T15:02:24.000Z</time>
      </trkpt>
      <trkpt lat="45.30961" lon="5.95902">
        <ele>251.08</ele>
        <time>2022-03-27T15:02:29.000Z</time>
      </trkpt>
      <trkpt lat="45.30938" lon="5.95883">
        <ele>252.51</ele>
        <time>2022-03-27T15:02:34.000Z</time>
      </trkpt>
      <trkpt lat="45.30916" lon="5.95867">
        <ele>254.84</ele>
        <time>2022-03-27T15:02:39.000Z</time>
      </trkpt>
      <trkpt lat="45.30899" lon="5.95848">
        <ele>254.6</ele>
        <time>2022-03-27T15:02:44.000Z</time>
      </trkpt>
      <trkpt lat="45.30878" lon="5.95833">
        <ele>257.5</ele>
        <time>2022-03-27T15:02:49.000Z</time>
      </trkpt>
      <trkpt lat="45.30856" lon="5.95813">
        <ele>257.02</ele>
        <time>2022-03-27T15:02:54.000Z</time>
      </trkpt>
      <trkpt lat="45.30835" lon="5.95792">
        <ele>254.01</ele>
        <time>2022-03-27T15:02:59.000Z</time>
      </trkpt>
      <trkpt lat="45.30813" lon="5.95769">
        <ele>258</ele>
        <time>2022-03-27T15:03:04.000Z</time>
      </trkpt>
      <trkpt lat="45.3079" lon="5.95745">
        <ele>256.54</ele>
        <time>2022-03-27T15:03:09.000Z</time>
      </trkpt>
      <trkpt lat="45.30765" lon="5.9572">
        <ele>255.84</ele>
        <time>2022-03-27T15:03:14.000Z</time>
      </trkpt>
      <trkpt lat="45.3074" lon="5.95693">
        <ele>253.28</ele>
        <time>2022-03-27T15:03:19.000Z</time>
      </trkpt>
      <trkpt lat="45.30714" lon="5.95668">
        <ele>256.09</ele>
        <time>2022-03-27T15:03:24.000Z</time>
      </trkpt>
      <trkpt lat="45.30687" lon="5.95649">
        <ele>259.78</ele>
        <time>2022-03-27T15:03:29.000Z</time>
      </trkpt>
      <trkpt lat="45.30659" lon="5.95621">
        <ele>257.63</ele>
        <time>2022-03-27T15:03:34.000Z</time>
      </trkpt>
      <trkpt lat="45.30626" lon="5.95585">
        <ele>254.92</ele>
        <time>2022-03-27T15:03:39.000Z</time>
      </trkpt>
      <trkpt lat="45.30593" lon="5.95553">
        <ele>251.95</ele>
        <time>2022-03-27T15:03:44.000Z</time>
      </trkpt>
      <trkpt lat="45.30558" lon="5.9552">
        <ele>253.21</ele>
        <time>2022-03-27T15:03:49.000Z</time>
      </trkpt>
      <trkpt lat="45.30524" lon="5.95487">
        <ele>253.23</ele>
        <time>2022-03-27T15:03:54.000Z</time>
      </trkpt>
      <trkpt lat="45.3049" lon="5.95462">
        <ele>255.15</ele>
        <time>2022-03-27T15:03:59.000Z</time>
      </trkpt>
      <trkpt lat="45.30459" lon="5.95428">
        <ele>249.84</ele>
        <time>2022-03-27T15:04:04.000Z</time>
      </trkpt>
      <trkpt lat="45.30423" lon="5.95392">
        <ele>253.89</ele>
        <time>2022-03-27T15:04:09.000Z</time>
      </trkpt>
      <trkpt lat="45.30391" lon="5.95354">
        <ele>249.93</ele>
        <time>2022-03-27T15:04:14.000Z</time>
      </trkpt>
      <trkpt lat="45.30372" lon="5.95354">
        <ele>247.64</ele>
        <time>2022-03-27T15:04:19.000Z</time>
      </trkpt>
      <trkpt lat="45.30387" lon="5.9537">
        <ele>244.53</ele>
        <time>2022-03-27T15:04:24.000Z</time>
      </trkpt>
      <trkpt lat="45.30406" lon="5.95388">
        <ele>242.17</ele>
        <time>2022-03-27T15:04:29.000Z</time>
      </trkpt>
      <trkpt lat="45.30425" lon="5.95405">
        <ele>241.82</ele>
        <time>2022-03-27T15:04:34.000Z</time>
      </trkpt>
      <trkpt lat="45.3044" lon="5.95423">
        <ele>241.64</ele>
        <time>2022-03-27T15:04:39.000Z</time>
      </trkpt>
      <trkpt lat="45.30447" lon="5.95433">
        <ele>240.22</ele>
        <time>2022-03-27T15:04:44.000Z</time>
      </trkpt>
      <trkpt lat="45.30456" lon="5.9543">
        <ele>238.99</ele>
        <time>2022-03-27T15:05:06.000Z</time>
      </trkpt>
      <trkpt lat="45.30447" lon="5.95429">
        <ele>237.59</ele>
        <time>2022-03-27T15:06:59.000Z</time>
      </trkpt>
      <trkpt lat="45.30433" lon="5.9541">
        <ele>234.67</ele>
        <time>2022-03-27T15:07:04.000Z</time>
      </trkpt>
      <trkpt lat="45.30416" lon="5.95381">
        <ele>227.96</ele>
        <time>2022-03-27T15:07:09.000Z</time>
      </trkpt>
      <trkpt lat="45.30399" lon="5.95361">
        <ele>227.34</ele>
        <time>2022-03-27T15:07:14.000Z</time>
      </trkpt>
      <trkpt lat="45.30394" lon="5.95346">
        <ele>227.48</ele>
        <time>2022-03-27T15:07:19.000Z</time>
      </trkpt>
      <trkpt lat="45.30376" lon="5.95341">
        <ele>231.05</ele>
        <time>2022-03-27T15:07:24.000Z</time>
      </trkpt>
      <trkpt lat="45.30356" lon="5.95325">
        <ele>228.12</ele>
        <time>2022-03-27T15:07:29.000Z</time>
      </trkpt>
      <trkpt lat="45.30332" lon="5.95297">
        <ele>227.77</ele>
        <time>2022-03-27T15:07:34.000Z</time>
      </trkpt>
      <trkpt lat="45.30306" lon="5.95273">
        <ele>231.67</ele>
        <time>2022-03-27T15:07:39.000Z</time>
      </trkpt>
      <trkpt lat="45.30279" lon="5.95253">
        <ele>236.51</ele>
        <time>2022-03-27T15:07:44.000Z</time>
      </trkpt>
      <trkpt lat="45.3026" lon="5.95232">
        <ele>239.5</ele>
        <time>2022-03-27T15:07:49.000Z</time>
      </trkpt>
      <trkpt lat="45.3024" lon="5.95209">
        <ele>239.65</ele>
        <time>2022-03-27T15:07:54.000Z</time>
      </trkpt>
      <trkpt lat="45.30219" lon="5.95191">
        <ele>241.26</ele>
        <time>2022-03-27T15:07:59.000Z</time>
      </trkpt>
      <trkpt lat="45.30202" lon="5.95173">
        <ele>242.23</ele>
        <time>2022-03-27T15:08:04.000Z</time>
      </trkpt>
      <trkpt lat="45.30186" lon="5.95156">
        <ele>239.27</ele>
        <time>2022-03-27T15:08:09.000Z</time>
      </trkpt>
      <trkpt lat="45.30171" lon="5.95143">
        <ele>236.17</ele>
        <time>2022-03-27T15:08:14.000Z</time>
      </trkpt>
      <trkpt lat="45.30153" lon="5.95129">
        <ele>237.31</ele>
        <time>2022-03-27T15:08:19.000Z</time>
      </trkpt>
      <trkpt lat="45.30135" lon="5.95112">
        <ele>238.59</ele>
        <time>2022-03-27T15:08:24.000Z</time>
      </trkpt>
      <trkpt lat="45.30113" lon="5.9509">
        <ele>237.91</ele>
        <time>2022-03-27T15:08:29.000Z</time>
      </trkpt>
      <trkpt lat="45.3009" lon="5.95069">
        <ele>232</ele>
        <time>2022-03-27T15:08:34.000Z</time>
      </trkpt>
      <trkpt lat="45.30067" lon="5.95045">
        <ele>227.49</ele>
        <time>2022-03-27T15:08:39.000Z</time>
      </trkpt>
      <trkpt lat="45.30042" lon="5.95021">
        <ele>230.91</ele>
        <time>2022-03-27T15:08:44.000Z</time>
      </trkpt>
      <trkpt lat="45.30015" lon="5.94998">
        <ele>234.01</ele>
        <time>2022-03-27T15:08:49.000Z</time>
      </trkpt>
      <trkpt lat="45.29989" lon="5.94973">
        <ele>236.65</ele>
        <time>2022-03-27T15:08:54.000Z</time>
      </trkpt>
      <trkpt lat="45.29962" lon="5.94948">
        <ele>238.77</ele>
        <time>2022-03-27T15:08:59.000Z</time>
      </trkpt>
      <trkpt lat="45.29937" lon="5.94927">
        <ele>238.62</ele>
        <time>2022-03-27T15:09:04.000Z</time>
      </trkpt>
      <trkpt lat="45.29909" lon="5.94902">
        <ele>237.93</ele>
        <time>2022-03-27T15:09:09.000Z</time>
      </trkpt>
      <trkpt lat="45.29883" lon="5.94878">
        <ele>243.93</ele>
        <time>2022-03-27T15:09:14.000Z</time>
      </trkpt>
      <trkpt lat="45.29855" lon="5.94852">
        <ele>243.42</ele>
        <time>2022-03-27T15:09:19.000Z</time>
      </trkpt>
      <trkpt lat="45.29826" lon="5.94824">
        <ele>239.93</ele>
        <time>2022-03-27T15:09:24.000Z</time>
      </trkpt>
      <trkpt lat="45.29798" lon="5.94793">
        <ele>237.94</ele>
        <time>2022-03-27T15:09:29.000Z</time>
      </trkpt>
      <trkpt lat="45.29771" lon="5.94768">
        <ele>235.83</ele>
        <time>2022-03-27T15:09:34.000Z</time>
      </trkpt>
      <trkpt lat="45.29744" lon="5.94746">
        <ele>239.88</ele>
        <time>2022-03-27T15:09:39.000Z</time>
      </trkpt>
      <trkpt lat="45.29718" lon="5.94718">
        <ele>239.21</ele>
        <time>2022-03-27T15:09:44.000Z</time>
      </trkpt>
      <trkpt lat="45.29693" lon="5.94694">
        <ele>238.32</ele>
        <time>2022-03-27T15:09:49.000Z</time>
      </trkpt>
      <trkpt lat="45.29668" lon="5.9467">
        <ele>240.32</ele>
        <time>2022-03-27T15:09:54.000Z</time>
      </trkpt>
      <trkpt lat="45.29645" lon="5.94646">
        <ele>241.94</ele>
        <time>2022-03-27T15:09:59.000Z</time>
      </trkpt>
      <trkpt lat="45.29622" lon="5.9462">
        <ele>239.04</ele>
        <time>2022-03-27T15:10:04.000Z</time>
      </trkpt>
      <trkpt lat="45.29602" lon="5.94594">
        <ele>239.96</ele>
        <time>2022-03-27T15:10:09.000Z</time>
      </trkpt>
      <trkpt lat="45.2958" lon="5.94573">
        <ele>243.18</ele>
        <time>2022-03-27T15:10:14.000Z</time>
      </trkpt>
      <trkpt lat="45.29563" lon="5.94554">
        <ele>244.29</ele>
        <time>2022-03-27T15:10:19.000Z</time>
      </trkpt>
      <trkpt lat="45.29542" lon="5.94536">
        <ele>242.66</ele>
        <time>2022-03-27T15:10:24.000Z</time>
      </trkpt>
      <trkpt lat="45.29521" lon="5.94519">
        <ele>244.61</ele>
        <time>2022-03-27T15:10:29.000Z</time>
      </trkpt>
      <trkpt lat="45.29499" lon="5.94504">
        <ele>242.99</ele>
        <time>2022-03-27T15:10:34.000Z</time>
      </trkpt>
      <trkpt lat="45.29477" lon="5.94487">
        <ele>240.37</ele>
        <time>2022-03-27T15:10:39.000Z</time>
      </trkpt>
      <trkpt lat="45.29455" lon="5.94468">
        <ele>237.64</ele>
        <time>2022-03-27T15:10:44.000Z</time>
      </trkpt>
      <trkpt lat="45.29433" lon="5.94446">
        <ele>237.15</ele>
        <time>2022-03-27T15:10:49.000Z</time>
      </trkpt>
      <trkpt lat="45.29411" lon="5.94423">
        <ele>239.23</ele>
        <time>2022-03-27T15:10:54.000Z</time>
      </trkpt>
      <trkpt lat="45.29383" lon="5.944">
        <ele>241.01</ele>
        <time>2022-03-27T15:10:59.000Z</time>
      </trkpt>
      <trkpt lat="45.29352" lon="5.94367">
        <ele>237.53</ele>
        <time>2022-03-27T15:11:04.000Z</time>
      </trkpt>
      <trkpt lat="45.29317" lon="5.94337">
        <ele>238.69</ele>
        <time>2022-03-27T15:11:09.000Z</time>
      </trkpt>
      <trkpt lat="45.29284" lon="5.94303">
        <ele>239.89</ele>
        <time>2022-03-27T15:11:14.000Z</time>
      </trkpt>
      <trkpt lat="45.29252" lon="5.94273">
        <ele>241.51</ele>
        <time>2022-03-27T15:11:19.000Z</time>
      </trkpt>
      <trkpt lat="45.29221" lon="5.94243">
        <ele>243.25</ele>
        <time>2022-03-27T15:11:24.000Z</time>
      </trkpt>
      <trkpt lat="45.29189" lon="5.94214">
        <ele>244.19</ele>
        <time>2022-03-27T15:11:29.000Z</time>
      </trkpt>
      <trkpt lat="45.29158" lon="5.94183">
        <ele>244.72</ele>
        <time>2022-03-27T15:11:34.000Z</time>
      </trkpt>
      <trkpt lat="45.29128" lon="5.94157">
        <ele>242.36</ele>
        <time>2022-03-27T15:11:39.000Z</time>
      </trkpt>
      <trkpt lat="45.291" lon="5.94128">
        <ele>243.09</ele>
        <time>2022-03-27T15:11:44.000Z</time>
      </trkpt>
      <trkpt lat="45.29075" lon="5.94104">
        <ele>243.48</ele>
        <time>2022-03-27T15:11:49.000Z</time>
      </trkpt>
      <trkpt lat="45.29047" lon="5.9408">
        <ele>242.81</ele>
        <time>2022-03-27T15:11:54.000Z</time>
      </trkpt>
      <trkpt lat="45.29021" lon="5.94055">
        <ele>241.97</ele>
        <time>2022-03-27T15:11:59.000Z</time>
      </trkpt>
      <trkpt lat="45.28994" lon="5.9403">
        <ele>241.51</ele>
        <time>2022-03-27T15:12:04.000Z</time>
      </trkpt>
      <trkpt lat="45.28968" lon="5.94004">
        <ele>242.08</ele>
        <time>2022-03-27T15:12:09.000Z</time>
      </trkpt>
      <trkpt lat="45.28942" lon="5.93978">
        <ele>242.51</ele>
        <time>2022-03-27T15:12:14.000Z</time>
      </trkpt>
      <trkpt lat="45.28914" lon="5.93953">
        <ele>244.21</ele>
        <time>2022-03-27T15:12:19.000Z</time>
      </trkpt>
      <trkpt lat="45.28887" lon="5.93926">
        <ele>244.18</ele>
        <time>2022-03-27T15:12:24.000Z</time>
      </trkpt>
      <trkpt lat="45.28858" lon="5.93898">
        <ele>245.37</ele>
        <time>2022-03-27T15:12:29.000Z</time>
      </trkpt>
      <trkpt lat="45.28828" lon="5.9387">
        <ele>243.75</ele>
        <time>2022-03-27T15:12:34.000Z</time>
      </trkpt>
      <trkpt lat="45.288" lon="5.93842">
        <ele>242.22</ele>
        <time>2022-03-27T15:12:39.000Z</time>
      </trkpt>
      <trkpt lat="45.28775" lon="5.93818">
        <ele>239.79</ele>
        <time>2022-03-27T15:12:44.000Z</time>
      </trkpt>
      <trkpt lat="45.28745" lon="5.9379">
        <ele>239.94</ele>
        <time>2022-03-27T15:12:49.000Z</time>
      </trkpt>
      <trkpt lat="45.28718" lon="5.93764">
        <ele>241.59</ele>
        <time>2022-03-27T15:12:54.000Z</time>
      </trkpt>
      <trkpt lat="45.28695" lon="5.93739">
        <ele>241.05</ele>
        <time>2022-03-27T15:12:59.000Z</time>
      </trkpt>
      <trkpt lat="45.2867" lon="5.93709">
        <ele>234.47</ele>
        <time>2022-03-27T15:13:04.000Z</time>
      </trkpt>
      <trkpt lat="45.28643" lon="5.93691">
        <ele>232.44</ele>
        <time>2022-03-27T15:13:09.000Z</time>
      </trkpt>
      <trkpt lat="45.28618" lon="5.93666">
        <ele>232.34</ele>
        <time>2022-03-27T15:13:14.000Z</time>
      </trkpt>
      <trkpt lat="45.28592" lon="5.93642">
        <ele>236.16</ele>
        <time>2022-03-27T15:13:19.000Z</time>
      </trkpt>
      <trkpt lat="45.28566" lon="5.93618">
        <ele>236.18</ele>
        <time>2022-03-27T15:13:24.000Z</time>
      </trkpt>
      <trkpt lat="45.28539" lon="5.9359">
        <ele>234.58</ele>
        <time>2022-03-27T15:13:29.000Z</time>
      </trkpt>
      <trkpt lat="45.28511" lon="5.93566">
        <ele>235.84</ele>
        <time>2022-03-27T15:13:34.000Z</time>
      </trkpt>
      <trkpt lat="45.28485" lon="5.93539">
        <ele>238.93</ele>
        <time>2022-03-27T15:13:39.000Z</time>
      </trkpt>
      <trkpt lat="45.28469" lon="5.93503">
        <ele>239.96</ele>
        <time>2022-03-27T15:13:44.000Z</time>
      </trkpt>
      <trkpt lat="45.28435" lon="5.93498">
        <ele>242.73</ele>
        <time>2022-03-27T15:13:49.000Z</time>
      </trkpt>
      <trkpt lat="45.28407" lon="5.9347">
        <ele>246.99</ele>
        <time>2022-03-27T15:13:54.000Z</time>
      </trkpt>
      <trkpt lat="45.28378" lon="5.93444">
        <ele>243.48</ele>
        <time>2022-03-27T15:13:59.000Z</time>
      </trkpt>
      <trkpt lat="45.2835" lon="5.93416">
        <ele>243.1</ele>
        <time>2022-03-27T15:14:04.000Z</time>
      </trkpt>
      <trkpt lat="45.28321" lon="5.93389">
        <ele>245.19</ele>
        <time>2022-03-27T15:14:09.000Z</time>
      </trkpt>
      <trkpt lat="45.28292" lon="5.93363">
        <ele>240.81</ele>
        <time>2022-03-27T15:14:14.000Z</time>
      </trkpt>
      <trkpt lat="45.28266" lon="5.93336">
        <ele>240.25</ele>
        <time>2022-03-27T15:14:19.000Z</time>
      </trkpt>
      <trkpt lat="45.28238" lon="5.93308">
        <ele>244.94</ele>
        <time>2022-03-27T15:14:24.000Z</time>
      </trkpt>
      <trkpt lat="45.28211" lon="5.93281">
        <ele>243.05</ele>
        <time>2022-03-27T15:14:29.000Z</time>
      </trkpt>
      <trkpt lat="45.28183" lon="5.93256">
        <ele>244.7</ele>
        <time>2022-03-27T15:14:34.000Z</time>
      </trkpt>
      <trkpt lat="45.28155" lon="5.93232">
        <ele>249.34</ele>
        <time>2022-03-27T15:14:39.000Z</time>
      </trkpt>
      <trkpt lat="45.28129" lon="5.93206">
        <ele>249.27</ele>
        <time>2022-03-27T15:14:44.000Z</time>
      </trkpt>
      <trkpt lat="45.281" lon="5.9318">
        <ele>246.91</ele>
        <time>2022-03-27T15:14:49.000Z</time>
      </trkpt>
      <trkpt lat="45.28073" lon="5.93154">
        <ele>247.68</ele>
        <time>2022-03-27T15:14:54.000Z</time>
      </trkpt>
      <trkpt lat="45.28048" lon="5.93123">
        <ele>244.5</ele>
        <time>2022-03-27T15:14:59.000Z</time>
      </trkpt>
      <trkpt lat="45.28035" lon="5.93084">
        <ele>241.1</ele>
        <time>2022-03-27T15:15:04.000Z</time>
      </trkpt>
      <trkpt lat="45.28011" lon="5.93063">
        <ele>238.72</ele>
        <time>2022-03-27T15:15:09.000Z</time>
      </trkpt>
      <trkpt lat="45.27978" lon="5.93062">
        <ele>242.37</ele>
        <time>2022-03-27T15:15:14.000Z</time>
      </trkpt>
      <trkpt lat="45.27953" lon="5.93038">
        <ele>243.33</ele>
        <time>2022-03-27T15:15:19.000Z</time>
      </trkpt>
      <trkpt lat="45.27932" lon="5.93016">
        <ele>241.76</ele>
        <time>2022-03-27T15:15:24.000Z</time>
      </trkpt>
      <trkpt lat="45.2791" lon="5.92992">
        <ele>243.33</ele>
        <time>2022-03-27T15:15:29.000Z</time>
      </trkpt>
      <trkpt lat="45.27894" lon="5.92973">
        <ele>239.42</ele>
        <time>2022-03-27T15:15:34.000Z</time>
      </trkpt>
      <trkpt lat="45.27879" lon="5.92958">
        <ele>238.92</ele>
        <time>2022-03-27T15:15:39.000Z</time>
      </trkpt>
      <trkpt lat="45.27864" lon="5.92946">
        <ele>236.69</ele>
        <time>2022-03-27T15:15:44.000Z</time>
      </trkpt>
      <trkpt lat="45.27857" lon="5.92938">
        <ele>240.63</ele>
        <time>2022-03-27T15:15:53.000Z</time>
      </trkpt>
      <trkpt lat="45.27841" lon="5.92922">
        <ele>240.75</ele>
        <time>2022-03-27T15:15:58.000Z</time>
      </trkpt>
      <trkpt lat="45.27818" lon="5.929">
        <ele>238.8</ele>
        <time>2022-03-27T15:16:03.000Z</time>
      </trkpt>
      <trkpt lat="45.27792" lon="5.92882">
        <ele>231.51</ele>
        <time>2022-03-27T15:16:08.000Z</time>
      </trkpt>
      <trkpt lat="45.27768" lon="5.92858">
        <ele>225.24</ele>
        <time>2022-03-27T15:16:13.000Z</time>
      </trkpt>
      <trkpt lat="45.27743" lon="5.92834">
        <ele>229.57</ele>
        <time>2022-03-27T15:16:18.000Z</time>
      </trkpt>
      <trkpt lat="45.27717" lon="5.92814">
        <ele>232.06</ele>
        <time>2022-03-27T15:16:23.000Z</time>
      </trkpt>
      <trkpt lat="45.27692" lon="5.92793">
        <ele>235.22</ele>
        <time>2022-03-27T15:16:28.000Z</time>
      </trkpt>
      <trkpt lat="45.27668" lon="5.92771">
        <ele>237.49</ele>
        <time>2022-03-27T15:16:33.000Z</time>
      </trkpt>
      <trkpt lat="45.27647" lon="5.92751">
        <ele>236.68</ele>
        <time>2022-03-27T15:16:38.000Z</time>
      </trkpt>
      <trkpt lat="45.27628" lon="5.92729">
        <ele>235.72</ele>
        <time>2022-03-27T15:16:43.000Z</time>
      </trkpt>
      <trkpt lat="45.27606" lon="5.92709">
        <ele>234.5</ele>
        <time>2022-03-27T15:16:48.000Z</time>
      </trkpt>
      <trkpt lat="45.27587" lon="5.92688">
        <ele>231.2</ele>
        <time>2022-03-27T15:16:53.000Z</time>
      </trkpt>
      <trkpt lat="45.27566" lon="5.92669">
        <ele>232.19</ele>
        <time>2022-03-27T15:16:58.000Z</time>
      </trkpt>
      <trkpt lat="45.27546" lon="5.9265">
        <ele>235.92</ele>
        <time>2022-03-27T15:17:03.000Z</time>
      </trkpt>
      <trkpt lat="45.27525" lon="5.92631">
        <ele>239.61</ele>
        <time>2022-03-27T15:17:08.000Z</time>
      </trkpt>
      <trkpt lat="45.27507" lon="5.92615">
        <ele>240.12</ele>
        <time>2022-03-27T15:17:13.000Z</time>
      </trkpt>
      <trkpt lat="45.27492" lon="5.92594">
        <ele>237.23</ele>
        <time>2022-03-27T15:17:18.000Z</time>
      </trkpt>
      <trkpt lat="45.27475" lon="5.92578">
        <ele>237.62</ele>
        <time>2022-03-27T15:17:23.000Z</time>
      </trkpt>
      <trkpt lat="45.27457" lon="5.92562">
        <ele>236.49</ele>
        <time>2022-03-27T15:17:28.000Z</time>
      </trkpt>
      <trkpt lat="45.27441" lon="5.9255">
        <ele>236.78</ele>
        <time>2022-03-27T15:17:33.000Z</time>
      </trkpt>
      <trkpt lat="45.27423" lon="5.9253">
        <ele>236.82</ele>
        <time>2022-03-27T15:17:38.000Z</time>
      </trkpt>
      <trkpt lat="45.27406" lon="5.92512">
        <ele>237.51</ele>
        <time>2022-03-27T15:17:43.000Z</time>
      </trkpt>
      <trkpt lat="45.27389" lon="5.92494">
        <ele>235.56</ele>
        <time>2022-03-27T15:17:48.000Z</time>
      </trkpt>
      <trkpt lat="45.2737" lon="5.92479">
        <ele>234.49</ele>
        <time>2022-03-27T15:17:53.000Z</time>
      </trkpt>
      <trkpt lat="45.27352" lon="5.92467">
        <ele>229</ele>
        <time>2022-03-27T15:17:58.000Z</time>
      </trkpt>
      <trkpt lat="45.27332" lon="5.92441">
        <ele>234.7</ele>
        <time>2022-03-27T15:18:03.000Z</time>
      </trkpt>
      <trkpt lat="45.27308" lon="5.92414">
        <ele>239.65</ele>
        <time>2022-03-27T15:18:08.000Z</time>
      </trkpt>
      <trkpt lat="45.27281" lon="5.92385">
        <ele>235.72</ele>
        <time>2022-03-27T15:18:13.000Z</time>
      </trkpt>
      <trkpt lat="45.2725" lon="5.92351">
        <ele>235.44</ele>
        <time>2022-03-27T15:18:18.000Z</time>
      </trkpt>
      <trkpt lat="45.27217" lon="5.92316">
        <ele>235.43</ele>
        <time>2022-03-27T15:18:23.000Z</time>
      </trkpt>
      <trkpt lat="45.2718" lon="5.92283">
        <ele>234.89</ele>
        <time>2022-03-27T15:18:28.000Z</time>
      </trkpt>
      <trkpt lat="45.27152" lon="5.92246">
        <ele>233.24</ele>
        <time>2022-03-27T15:18:33.000Z</time>
      </trkpt>
      <trkpt lat="45.27123" lon="5.92213">
        <ele>232.51</ele>
        <time>2022-03-27T15:18:38.000Z</time>
      </trkpt>
      <trkpt lat="45.27088" lon="5.9218">
        <ele>231.32</ele>
        <time>2022-03-27T15:18:43.000Z</time>
      </trkpt>
      <trkpt lat="45.27056" lon="5.92146">
        <ele>231.53</ele>
        <time>2022-03-27T15:18:48.000Z</time>
      </trkpt>
      <trkpt lat="45.27023" lon="5.9211">
        <ele>229.49</ele>
        <time>2022-03-27T15:18:53.000Z</time>
      </trkpt>
      <trkpt lat="45.26991" lon="5.92076">
        <ele>232.06</ele>
        <time>2022-03-27T15:18:58.000Z</time>
      </trkpt>
      <trkpt lat="45.26962" lon="5.92043">
        <ele>235.12</ele>
        <time>2022-03-27T15:19:03.000Z</time>
      </trkpt>
      <trkpt lat="45.26933" lon="5.92009">
        <ele>234.65</ele>
        <time>2022-03-27T15:19:08.000Z</time>
      </trkpt>
      <trkpt lat="45.26901" lon="5.91976">
        <ele>233.27</ele>
        <time>2022-03-27T15:19:13.000Z</time>
      </trkpt>
      <trkpt lat="45.26873" lon="5.91948">
        <ele>231.25</ele>
        <time>2022-03-27T15:19:18.000Z</time>
      </trkpt>
      <trkpt lat="45.26851" lon="5.91924">
        <ele>229.57</ele>
        <time>2022-03-27T15:19:23.000Z</time>
      </trkpt>
      <trkpt lat="45.26834" lon="5.91902">
        <ele>228.5</ele>
        <time>2022-03-27T15:19:28.000Z</time>
      </trkpt>
      <trkpt lat="45.26812" lon="5.91878">
        <ele>223.15</ele>
        <time>2022-03-27T15:19:33.000Z</time>
      </trkpt>
      <trkpt lat="45.26789" lon="5.91852">
        <ele>226.32</ele>
        <time>2022-03-27T15:19:38.000Z</time>
      </trkpt>
      <trkpt lat="45.26763" lon="5.91826">
        <ele>227.33</ele>
        <time>2022-03-27T15:19:43.000Z</time>
      </trkpt>
      <trkpt lat="45.26738" lon="5.91801">
        <ele>229.41</ele>
        <time>2022-03-27T15:19:48.000Z</time>
      </trkpt>
      <trkpt lat="45.26712" lon="5.91775">
        <ele>228.39</ele>
        <time>2022-03-27T15:19:53.000Z</time>
      </trkpt>
      <trkpt lat="45.26687" lon="5.91746">
        <ele>229.9</ele>
        <time>2022-03-27T15:19:58.000Z</time>
      </trkpt>
      <trkpt lat="45.26664" lon="5.91719">
        <ele>227.84</ele>
        <time>2022-03-27T15:20:03.000Z</time>
      </trkpt>
      <trkpt lat="45.26641" lon="5.9169">
        <ele>227.09</ele>
        <time>2022-03-27T15:20:08.000Z</time>
      </trkpt>
      <trkpt lat="45.26614" lon="5.91664">
        <ele>225.22</ele>
        <time>2022-03-27T15:20:13.000Z</time>
      </trkpt>
      <trkpt lat="45.26587" lon="5.91635">
        <ele>223.78</ele>
        <time>2022-03-27T15:20:18.000Z</time>
      </trkpt>
      <trkpt lat="45.26559" lon="5.91608">
        <ele>225.47</ele>
        <time>2022-03-27T15:20:23.000Z</time>
      </trkpt>
      <trkpt lat="45.26533" lon="5.91578">
        <ele>227.16</ele>
        <time>2022-03-27T15:20:28.000Z</time>
      </trkpt>
      <trkpt lat="45.26508" lon="5.91552">
        <ele>225.87</ele>
        <time>2022-03-27T15:20:33.000Z</time>
      </trkpt>
      <trkpt lat="45.26485" lon="5.91525">
        <ele>229.19</ele>
        <time>2022-03-27T15:20:38.000Z</time>
      </trkpt>
      <trkpt lat="45.26465" lon="5.91505">
        <ele>229.09</ele>
        <time>2022-03-27T15:20:43.000Z</time>
      </trkpt>
      <trkpt lat="45.26446" lon="5.91484">
        <ele>229.08</ele>
        <time>2022-03-27T15:20:48.000Z</time>
      </trkpt>
      <trkpt lat="45.26425" lon="5.91458">
        <ele>228.1</ele>
        <time>2022-03-27T15:20:53.000Z</time>
      </trkpt>
      <trkpt lat="45.26413" lon="5.9142">
        <ele>226.59</ele>
        <time>2022-03-27T15:20:58.000Z</time>
      </trkpt>
      <trkpt lat="45.26387" lon="5.91419">
        <ele>228.46</ele>
        <time>2022-03-27T15:21:03.000Z</time>
      </trkpt>
      <trkpt lat="45.26365" lon="5.91397">
        <ele>226.77</ele>
        <time>2022-03-27T15:21:08.000Z</time>
      </trkpt>
      <trkpt lat="45.26343" lon="5.91372">
        <ele>224.74</ele>
        <time>2022-03-27T15:21:13.000Z</time>
      </trkpt>
      <trkpt lat="45.26318" lon="5.91348">
        <ele>223.73</ele>
        <time>2022-03-27T15:21:18.000Z</time>
      </trkpt>
      <trkpt lat="45.26293" lon="5.91324">
        <ele>225.34</ele>
        <time>2022-03-27T15:21:23.000Z</time>
      </trkpt>
      <trkpt lat="45.26273" lon="5.91298">
        <ele>224.14</ele>
        <time>2022-03-27T15:21:28.000Z</time>
      </trkpt>
      <trkpt lat="45.2625" lon="5.91273">
        <ele>225.72</ele>
        <time>2022-03-27T15:21:33.000Z</time>
      </trkpt>
      <trkpt lat="45.26226" lon="5.91248">
        <ele>224.26</ele>
        <time>2022-03-27T15:21:38.000Z</time>
      </trkpt>
      <trkpt lat="45.26198" lon="5.91218">
        <ele>225.89</ele>
        <time>2022-03-27T15:21:43.000Z</time>
      </trkpt>
      <trkpt lat="45.26172" lon="5.91191">
        <ele>231.37</ele>
        <time>2022-03-27T15:21:48.000Z</time>
      </trkpt>
      <trkpt lat="45.26147" lon="5.91166">
        <ele>230.85</ele>
        <time>2022-03-27T15:21:53.000Z</time>
      </trkpt>
      <trkpt lat="45.26126" lon="5.91143">
        <ele>229.71</ele>
        <time>2022-03-27T15:21:58.000Z</time>
      </trkpt>
      <trkpt lat="45.26104" lon="5.91123">
        <ele>229.86</ele>
        <time>2022-03-27T15:22:03.000Z</time>
      </trkpt>
      <trkpt lat="45.26096" lon="5.91108">
        <ele>233.11</ele>
        <time>2022-03-27T15:22:08.000Z</time>
      </trkpt>
      <trkpt lat="45.26084" lon="5.91093">
        <ele>232.57</ele>
        <time>2022-03-27T15:22:13.000Z</time>
      </trkpt>
      <trkpt lat="45.2607" lon="5.91078">
        <ele>232.25</ele>
        <time>2022-03-27T15:22:18.000Z</time>
      </trkpt>
      <trkpt lat="45.26054" lon="5.91061">
        <ele>231.45</ele>
        <time>2022-03-27T15:22:23.000Z</time>
      </trkpt>
      <trkpt lat="45.26036" lon="5.91044">
        <ele>233.77</ele>
        <time>2022-03-27T15:22:28.000Z</time>
      </trkpt>
      <trkpt lat="45.26019" lon="5.91026">
        <ele>236.64</ele>
        <time>2022-03-27T15:22:33.000Z</time>
      </trkpt>
      <trkpt lat="45.26003" lon="5.91007">
        <ele>238.71</ele>
        <time>2022-03-27T15:22:38.000Z</time>
      </trkpt>
      <trkpt lat="45.25984" lon="5.90985">
        <ele>239.3</ele>
        <time>2022-03-27T15:22:43.000Z</time>
      </trkpt>
      <trkpt lat="45.25964" lon="5.90965">
        <ele>239.43</ele>
        <time>2022-03-27T15:22:48.000Z</time>
      </trkpt>
      <trkpt lat="45.25944" lon="5.90945">
        <ele>240.14</ele>
        <time>2022-03-27T15:22:53.000Z</time>
      </trkpt>
      <trkpt lat="45.25925" lon="5.90922">
        <ele>240.26</ele>
        <time>2022-03-27T15:22:58.000Z</time>
      </trkpt>
      <trkpt lat="45.25905" lon="5.90907">
        <ele>241.84</ele>
        <time>2022-03-27T15:23:03.000Z</time>
      </trkpt>
      <trkpt lat="45.25889" lon="5.90885">
        <ele>242.36</ele>
        <time>2022-03-27T15:23:08.000Z</time>
      </trkpt>
      <trkpt lat="45.25874" lon="5.90876">
        <ele>242.12</ele>
        <time>2022-03-27T15:23:13.000Z</time>
      </trkpt>
      <trkpt lat="45.25865" lon="5.90887">
        <ele>240.09</ele>
        <time>2022-03-27T15:23:18.000Z</time>
      </trkpt>
      <trkpt lat="45.2585" lon="5.9088">
        <ele>239.59</ele>
        <time>2022-03-27T15:23:23.000Z</time>
      </trkpt>
      <trkpt lat="45.25842" lon="5.90871">
        <ele>238.1</ele>
        <time>2022-03-27T15:23:29.000Z</time>
      </trkpt>
      <trkpt lat="45.25835" lon="5.90861">
        <ele>245.31</ele>
        <time>2022-03-27T15:24:31.000Z</time>
      </trkpt>
      <trkpt lat="45.25833" lon="5.90845">
        <ele>242.93</ele>
        <time>2022-03-27T15:24:36.000Z</time>
      </trkpt>
      <trkpt lat="45.25835" lon="5.90831">
        <ele>240.84</ele>
        <time>2022-03-27T15:24:41.000Z</time>
      </trkpt>
      <trkpt lat="45.25829" lon="5.90815">
        <ele>239.27</ele>
        <time>2022-03-27T15:24:46.000Z</time>
      </trkpt>
      <trkpt lat="45.25808" lon="5.90797">
        <ele>239.94</ele>
        <time>2022-03-27T15:24:51.000Z</time>
      </trkpt>
      <trkpt lat="45.25789" lon="5.9078">
        <ele>242.21</ele>
        <time>2022-03-27T15:24:56.000Z</time>
      </trkpt>
      <trkpt lat="45.25768" lon="5.90756">
        <ele>242.43</ele>
        <time>2022-03-27T15:25:01.000Z</time>
      </trkpt>
      <trkpt lat="45.25745" lon="5.90736">
        <ele>241.43</ele>
        <time>2022-03-27T15:25:06.000Z</time>
      </trkpt>
      <trkpt lat="45.25722" lon="5.90712">
        <ele>239.88</ele>
        <time>2022-03-27T15:25:11.000Z</time>
      </trkpt>
      <trkpt lat="45.25701" lon="5.90686">
        <ele>241.32</ele>
        <time>2022-03-27T15:25:16.000Z</time>
      </trkpt>
      <trkpt lat="45.25676" lon="5.9066">
        <ele>241.61</ele>
        <time>2022-03-27T15:25:21.000Z</time>
      </trkpt>
      <trkpt lat="45.25652" lon="5.9063">
        <ele>244.29</ele>
        <time>2022-03-27T15:25:26.000Z</time>
      </trkpt>
      <trkpt lat="45.25622" lon="5.90602">
        <ele>245.56</ele>
        <time>2022-03-27T15:25:31.000Z</time>
      </trkpt>
      <trkpt lat="45.25593" lon="5.9057">
        <ele>240.83</ele>
        <time>2022-03-27T15:25:36.000Z</time>
      </trkpt>
      <trkpt lat="45.25563" lon="5.90537">
        <ele>236.49</ele>
        <time>2022-03-27T15:25:41.000Z</time>
      </trkpt>
      <trkpt lat="45.25538" lon="5.90504">
        <ele>235.88</ele>
        <time>2022-03-27T15:25:46.000Z</time>
      </trkpt>
      <trkpt lat="45.25513" lon="5.90477">
        <ele>235.92</ele>
        <time>2022-03-27T15:25:51.000Z</time>
      </trkpt>
      <trkpt lat="45.25487" lon="5.90451">
        <ele>231.38</ele>
        <time>2022-03-27T15:25:56.000Z</time>
      </trkpt>
      <trkpt lat="45.25463" lon="5.90425">
        <ele>230.37</ele>
        <time>2022-03-27T15:26:01.000Z</time>
      </trkpt>
      <trkpt lat="45.25442" lon="5.90399">
        <ele>230.64</ele>
        <time>2022-03-27T15:26:06.000Z</time>
      </trkpt>
      <trkpt lat="45.2542" lon="5.9038">
        <ele>232.79</ele>
        <time>2022-03-27T15:26:11.000Z</time>
      </trkpt>
      <trkpt lat="45.25403" lon="5.90358">
        <ele>232.82</ele>
        <time>2022-03-27T15:26:16.000Z</time>
      </trkpt>
      <trkpt lat="45.25383" lon="5.90334">
        <ele>234.96</ele>
        <time>2022-03-27T15:26:21.000Z</time>
      </trkpt>
      <trkpt lat="45.2536" lon="5.90312">
        <ele>237.24</ele>
        <time>2022-03-27T15:26:26.000Z</time>
      </trkpt>
      <trkpt lat="45.25339" lon="5.90289">
        <ele>239.69</ele>
        <time>2022-03-27T15:26:31.000Z</time>
      </trkpt>
      <trkpt lat="45.25317" lon="5.90268">
        <ele>239.7</ele>
        <time>2022-03-27T15:26:36.000Z</time>
      </trkpt>
      <trkpt lat="45.25298" lon="5.90243">
        <ele>238.17</ele>
        <time>2022-03-27T15:26:41.000Z</time>
      </trkpt>
      <trkpt lat="45.25277" lon="5.90221">
        <ele>237</ele>
        <time>2022-03-27T15:26:46.000Z</time>
      </trkpt>
      <trkpt lat="45.25255" lon="5.90197">
        <ele>236.69</ele>
        <time>2022-03-27T15:26:51.000Z</time>
      </trkpt>
      <trkpt lat="45.25235" lon="5.90174">
        <ele>235.99</ele>
        <time>2022-03-27T15:26:56.000Z</time>
      </trkpt>
      <trkpt lat="45.25214" lon="5.90147">
        <ele>237.45</ele>
        <time>2022-03-27T15:27:01.000Z</time>
      </trkpt>
      <trkpt lat="45.25192" lon="5.90128">
        <ele>241.2</ele>
        <time>2022-03-27T15:27:06.000Z</time>
      </trkpt>
      <trkpt lat="45.25171" lon="5.90103">
        <ele>241.85</ele>
        <time>2022-03-27T15:27:11.000Z</time>
      </trkpt>
      <trkpt lat="45.25151" lon="5.9008">
        <ele>243.25</ele>
        <time>2022-03-27T15:27:16.000Z</time>
      </trkpt>
      <trkpt lat="45.25137" lon="5.90058">
        <ele>243.72</ele>
        <time>2022-03-27T15:27:21.000Z</time>
      </trkpt>
      <trkpt lat="45.25134" lon="5.9004">
        <ele>244.18</ele>
        <time>2022-03-27T15:27:26.000Z</time>
      </trkpt>
      <trkpt lat="45.2512" lon="5.90044">
        <ele>244.29</ele>
        <time>2022-03-27T15:27:31.000Z</time>
      </trkpt>
      <trkpt lat="45.25102" lon="5.90031">
        <ele>243.89</ele>
        <time>2022-03-27T15:27:36.000Z</time>
      </trkpt>
      <trkpt lat="45.25083" lon="5.90005">
        <ele>243.42</ele>
        <time>2022-03-27T15:27:41.000Z</time>
      </trkpt>
      <trkpt lat="45.2506" lon="5.89981">
        <ele>243.57</ele>
        <time>2022-03-27T15:27:46.000Z</time>
      </trkpt>
      <trkpt lat="45.25039" lon="5.89952">
        <ele>237.24</ele>
        <time>2022-03-27T15:27:51.000Z</time>
      </trkpt>
      <trkpt lat="45.25021" lon="5.89927">
        <ele>243.57</ele>
        <time>2022-03-27T15:27:56.000Z</time>
      </trkpt>
      <trkpt lat="45.25009" lon="5.89905">
        <ele>246.35</ele>
        <time>2022-03-27T15:28:01.000Z</time>
      </trkpt>
      <trkpt lat="45.25018" lon="5.89888">
        <ele>240.92</ele>
        <time>2022-03-27T15:28:06.000Z</time>
      </trkpt>
      <trkpt lat="45.25024" lon="5.89875">
        <ele>240.98</ele>
        <time>2022-03-27T15:28:11.000Z</time>
      </trkpt>
      <trkpt lat="45.2501" lon="5.89853">
        <ele>235.02</ele>
        <time>2022-03-27T15:28:16.000Z</time>
      </trkpt>
      <trkpt lat="45.24988" lon="5.89845">
        <ele>236.33</ele>
        <time>2022-03-27T15:28:21.000Z</time>
      </trkpt>
      <trkpt lat="45.24965" lon="5.89861">
        <ele>240.04</ele>
        <time>2022-03-27T15:28:26.000Z</time>
      </trkpt>
      <trkpt lat="45.24942" lon="5.89856">
        <ele>240.64</ele>
        <time>2022-03-27T15:28:31.000Z</time>
      </trkpt>
      <trkpt lat="45.24922" lon="5.8984">
        <ele>242</ele>
        <time>2022-03-27T15:28:36.000Z</time>
      </trkpt>
      <trkpt lat="45.24903" lon="5.89819">
        <ele>241.41</ele>
        <time>2022-03-27T15:28:41.000Z</time>
      </trkpt>
      <trkpt lat="45.24881" lon="5.89796">
        <ele>242.71</ele>
        <time>2022-03-27T15:28:46.000Z</time>
      </trkpt>
      <trkpt lat="45.2486" lon="5.89771">
        <ele>241.09</ele>
        <time>2022-03-27T15:28:51.000Z</time>
      </trkpt>
      <trkpt lat="45.24843" lon="5.89749">
        <ele>245.51</ele>
        <time>2022-03-27T15:28:56.000Z</time>
      </trkpt>
      <trkpt lat="45.24819" lon="5.89726">
        <ele>245.86</ele>
        <time>2022-03-27T15:29:01.000Z</time>
      </trkpt>
      <trkpt lat="45.24797" lon="5.89704">
        <ele>248.09</ele>
        <time>2022-03-27T15:29:06.000Z</time>
      </trkpt>
      <trkpt lat="45.24777" lon="5.89684">
        <ele>247.92</ele>
        <time>2022-03-27T15:29:11.000Z</time>
      </trkpt>
      <trkpt lat="45.24764" lon="5.89666">
        <ele>245.65</ele>
        <time>2022-03-27T15:29:16.000Z</time>
      </trkpt>
      <trkpt lat="45.24745" lon="5.89645">
        <ele>251.06</ele>
        <time>2022-03-27T15:29:21.000Z</time>
      </trkpt>
      <trkpt lat="45.24724" lon="5.89625">
        <ele>253.59</ele>
        <time>2022-03-27T15:29:26.000Z</time>
      </trkpt>
      <trkpt lat="45.24701" lon="5.89611">
        <ele>257.46</ele>
        <time>2022-03-27T15:29:31.000Z</time>
      </trkpt>
      <trkpt lat="45.24677" lon="5.89595">
        <ele>255.11</ele>
        <time>2022-03-27T15:29:36.000Z</time>
      </trkpt>
      <trkpt lat="45.24657" lon="5.89581">
        <ele>253.63</ele>
        <time>2022-03-27T15:29:41.000Z</time>
      </trkpt>
      <trkpt lat="45.24646" lon="5.89572">
        <ele>253.13</ele>
        <time>2022-03-27T15:29:46.000Z</time>
      </trkpt>
      <trkpt lat="45.24637" lon="5.8958">
        <ele>255.51</ele>
        <time>2022-03-27T15:29:53.000Z</time>
      </trkpt>
      <trkpt lat="45.24631" lon="5.89603">
        <ele>255.51</ele>
        <time>2022-03-27T15:29:58.000Z</time>
      </trkpt>
      <trkpt lat="45.24622" lon="5.89629">
        <ele>257</ele>
        <time>2022-03-27T15:30:03.000Z</time>
      </trkpt>
      <trkpt lat="45.24607" lon="5.89648">
        <ele>258.17</ele>
        <time>2022-03-27T15:30:08.000Z</time>
      </trkpt>
      <trkpt lat="45.24592" lon="5.89667">
        <ele>259.35</ele>
        <time>2022-03-27T15:30:13.000Z</time>
      </trkpt>
      <trkpt lat="45.24578" lon="5.89687">
        <ele>261.2</ele>
        <time>2022-03-27T15:30:18.000Z</time>
      </trkpt>
      <trkpt lat="45.24562" lon="5.89706">
        <ele>261.16</ele>
        <time>2022-03-27T15:30:23.000Z</time>
      </trkpt>
      <trkpt lat="45.24546" lon="5.89724">
        <ele>264.09</ele>
        <time>2022-03-27T15:30:28.000Z</time>
      </trkpt>
      <trkpt lat="45.24528" lon="5.89737">
        <ele>261.5</ele>
        <time>2022-03-27T15:30:33.000Z</time>
      </trkpt>
      <trkpt lat="45.24504" lon="5.89742">
        <ele>262.58</ele>
        <time>2022-03-27T15:30:38.000Z</time>
      </trkpt>
      <trkpt lat="45.24484" lon="5.89754">
        <ele>262.1</ele>
        <time>2022-03-27T15:30:43.000Z</time>
      </trkpt>
      <trkpt lat="45.24467" lon="5.89763">
        <ele>263.11</ele>
        <time>2022-03-27T15:30:48.000Z</time>
      </trkpt>
      <trkpt lat="45.24449" lon="5.89776">
        <ele>262.52</ele>
        <time>2022-03-27T15:30:53.000Z</time>
      </trkpt>
      <trkpt lat="45.24433" lon="5.89789">
        <ele>261.11</ele>
        <time>2022-03-27T15:30:58.000Z</time>
      </trkpt>
      <trkpt lat="45.24421" lon="5.89811">
        <ele>263.66</ele>
        <time>2022-03-27T15:31:03.000Z</time>
      </trkpt>
      <trkpt lat="45.24419" lon="5.89839">
        <ele>262.68</ele>
        <time>2022-03-27T15:31:08.000Z</time>
      </trkpt>
      <trkpt lat="45.24427" lon="5.89866">
        <ele>261.6</ele>
        <time>2022-03-27T15:31:13.000Z</time>
      </trkpt>
      <trkpt lat="45.24448" lon="5.89883">
        <ele>260.99</ele>
        <time>2022-03-27T15:31:18.000Z</time>
      </trkpt>
      <trkpt lat="45.24467" lon="5.89895">
        <ele>260.23</ele>
        <time>2022-03-27T15:31:23.000Z</time>
      </trkpt>
      <trkpt lat="45.24483" lon="5.89906">
        <ele>259.9</ele>
        <time>2022-03-27T15:31:28.000Z</time>
      </trkpt>
      <trkpt lat="45.2449" lon="5.89914">
        <ele>259.79</ele>
        <time>2022-03-27T15:31:33.000Z</time>
      </trkpt>
      <trkpt lat="45.24485" lon="5.89945">
        <ele>257</ele>
        <time>2022-03-27T15:31:44.000Z</time>
      </trkpt>
      <trkpt lat="45.24493" lon="5.89914">
        <ele>252.9</ele>
        <time>2022-03-27T15:31:49.000Z</time>
      </trkpt>
      <trkpt lat="45.24495" lon="5.89869">
        <ele>251.95</ele>
        <time>2022-03-27T15:31:54.000Z</time>
      </trkpt>
      <trkpt lat="45.24492" lon="5.89901">
        <ele>248.46</ele>
        <time>2022-03-27T15:31:59.000Z</time>
      </trkpt>
      <trkpt lat="45.24487" lon="5.89913">
        <ele>244.36</ele>
        <time>2022-03-27T15:32:05.000Z</time>
      </trkpt>
      <trkpt lat="45.24495" lon="5.8993">
        <ele>243.24</ele>
        <time>2022-03-27T15:32:10.000Z</time>
      </trkpt>
      <trkpt lat="45.2451" lon="5.89943">
        <ele>245.83</ele>
        <time>2022-03-27T15:32:15.000Z</time>
      </trkpt>
      <trkpt lat="45.24523" lon="5.89943">
        <ele>249</ele>
        <time>2022-03-27T15:32:20.000Z</time>
      </trkpt>
      <trkpt lat="45.24541" lon="5.89948">
        <ele>250.09</ele>
        <time>2022-03-27T15:32:25.000Z</time>
      </trkpt>
      <trkpt lat="45.2456" lon="5.89955">
        <ele>250.8</ele>
        <time>2022-03-27T15:32:30.000Z</time>
      </trkpt>
      <trkpt lat="45.24576" lon="5.89971">
        <ele>252.12</ele>
        <time>2022-03-27T15:32:35.000Z</time>
      </trkpt>
      <trkpt lat="45.24588" lon="5.89995">
        <ele>252.68</ele>
        <time>2022-03-27T15:32:40.000Z</time>
      </trkpt>
      <trkpt lat="45.24598" lon="5.90009">
        <ele>252.54</ele>
        <time>2022-03-27T15:32:45.000Z</time>
      </trkpt>
      <trkpt lat="45.24608" lon="5.90016">
        <ele>254.61</ele>
        <time>2022-03-27T15:32:50.000Z</time>
      </trkpt>
      <trkpt lat="45.24621" lon="5.90036">
        <ele>251.97</ele>
        <time>2022-03-27T15:32:55.000Z</time>
      </trkpt>
      <trkpt lat="45.24637" lon="5.90052">
        <ele>254.1</ele>
        <time>2022-03-27T15:33:00.000Z</time>
      </trkpt>
      <trkpt lat="45.24654" lon="5.90065">
        <ele>256.81</ele>
        <time>2022-03-27T15:33:05.000Z</time>
      </trkpt>
      <trkpt lat="45.24668" lon="5.90082">
        <ele>259.31</ele>
        <time>2022-03-27T15:33:10.000Z</time>
      </trkpt>
      <trkpt lat="45.2468" lon="5.90103">
        <ele>260.38</ele>
        <time>2022-03-27T15:33:15.000Z</time>
      </trkpt>
      <trkpt lat="45.24687" lon="5.9012">
        <ele>262.36</ele>
        <time>2022-03-27T15:33:20.000Z</time>
      </trkpt>
      <trkpt lat="45.247" lon="5.9014">
        <ele>260.66</ele>
        <time>2022-03-27T15:33:25.000Z</time>
      </trkpt>
      <trkpt lat="45.2471" lon="5.90154">
        <ele>264.85</ele>
        <time>2022-03-27T15:33:30.000Z</time>
      </trkpt>
      <trkpt lat="45.24721" lon="5.90162">
        <ele>268.89</ele>
        <time>2022-03-27T15:33:35.000Z</time>
      </trkpt>
      <trkpt lat="45.24733" lon="5.90175">
        <ele>268.33</ele>
        <time>2022-03-27T15:33:40.000Z</time>
      </trkpt>
      <trkpt lat="45.24744" lon="5.90189">
        <ele>273.93</ele>
        <time>2022-03-27T15:33:45.000Z</time>
      </trkpt>
      <trkpt lat="45.24756" lon="5.90205">
        <ele>276.3</ele>
        <time>2022-03-27T15:33:50.000Z</time>
      </trkpt>
      <trkpt lat="45.24761" lon="5.90226">
        <ele>279.76</ele>
        <time>2022-03-27T15:33:55.000Z</time>
      </trkpt>
      <trkpt lat="45.24768" lon="5.90236">
        <ele>282.58</ele>
        <time>2022-03-27T15:34:00.000Z</time>
      </trkpt>
      <trkpt lat="45.24784" lon="5.90246">
        <ele>281.64</ele>
        <time>2022-03-27T15:34:05.000Z</time>
      </trkpt>
      <trkpt lat="45.24806" lon="5.90253">
        <ele>281.71</ele>
        <time>2022-03-27T15:34:10.000Z</time>
      </trkpt>
      <trkpt lat="45.24821" lon="5.90264">
        <ele>283.97</ele>
        <time>2022-03-27T15:34:15.000Z</time>
      </trkpt>
      <trkpt lat="45.24839" lon="5.90274">
        <ele>283.96</ele>
        <time>2022-03-27T15:34:20.000Z</time>
      </trkpt>
      <trkpt lat="45.24858" lon="5.90286">
        <ele>283.6</ele>
        <time>2022-03-27T15:34:25.000Z</time>
      </trkpt>
      <trkpt lat="45.24868" lon="5.90299">
        <ele>284.41</ele>
        <time>2022-03-27T15:34:30.000Z</time>
      </trkpt>
      <trkpt lat="45.24874" lon="5.90325">
        <ele>292.41</ele>
        <time>2022-03-27T15:34:35.000Z</time>
      </trkpt>
      <trkpt lat="45.24879" lon="5.90347">
        <ele>297.08</ele>
        <time>2022-03-27T15:34:40.000Z</time>
      </trkpt>
      <trkpt lat="45.24887" lon="5.90367">
        <ele>298.16</ele>
        <time>2022-03-27T15:34:45.000Z</time>
      </trkpt>
      <trkpt lat="45.24896" lon="5.90387">
        <ele>299.22</ele>
        <time>2022-03-27T15:34:50.000Z</time>
      </trkpt>
      <trkpt lat="45.24906" lon="5.90406">
        <ele>299</ele>
        <time>2022-03-27T15:34:55.000Z</time>
      </trkpt>
      <trkpt lat="45.24921" lon="5.90426">
        <ele>299.13</ele>
        <time>2022-03-27T15:35:00.000Z</time>
      </trkpt>
      <trkpt lat="45.24926" lon="5.90439">
        <ele>306.15</ele>
        <time>2022-03-27T15:35:05.000Z</time>
      </trkpt>
      <trkpt lat="45.24913" lon="5.90433">
        <ele>308.04</ele>
        <time>2022-03-27T15:35:10.000Z</time>
      </trkpt>
      <trkpt lat="45.24901" lon="5.90418">
        <ele>309.43</ele>
        <time>2022-03-27T15:35:15.000Z</time>
      </trkpt>
      <trkpt lat="45.24887" lon="5.90407">
        <ele>313.14</ele>
        <time>2022-03-27T15:35:20.000Z</time>
      </trkpt>
      <trkpt lat="45.24871" lon="5.90398">
        <ele>314.31</ele>
        <time>2022-03-27T15:35:25.000Z</time>
      </trkpt>
      <trkpt lat="45.24855" lon="5.90393">
        <ele>315.45</ele>
        <time>2022-03-27T15:35:30.000Z</time>
      </trkpt>
      <trkpt lat="45.2484" lon="5.90387">
        <ele>312.63</ele>
        <time>2022-03-27T15:35:35.000Z</time>
      </trkpt>
      <trkpt lat="45.24823" lon="5.9038">
        <ele>309.65</ele>
        <time>2022-03-27T15:35:40.000Z</time>
      </trkpt>
      <trkpt lat="45.24808" lon="5.90373">
        <ele>309.08</ele>
        <time>2022-03-27T15:35:45.000Z</time>
      </trkpt>
      <trkpt lat="45.24792" lon="5.90367">
        <ele>309.08</ele>
        <time>2022-03-27T15:35:50.000Z</time>
      </trkpt>
      <trkpt lat="45.24776" lon="5.90363">
        <ele>305.36</ele>
        <time>2022-03-27T15:35:55.000Z</time>
      </trkpt>
      <trkpt lat="45.24759" lon="5.90362">
        <ele>301.47</ele>
        <time>2022-03-27T15:36:00.000Z</time>
      </trkpt>
      <trkpt lat="45.24745" lon="5.90356">
        <ele>301.02</ele>
        <time>2022-03-27T15:36:05.000Z</time>
      </trkpt>
      <trkpt lat="45.24731" lon="5.90349">
        <ele>299.7</ele>
        <time>2022-03-27T15:36:10.000Z</time>
      </trkpt>
      <trkpt lat="45.24718" lon="5.90329">
        <ele>300.29</ele>
        <time>2022-03-27T15:36:15.000Z</time>
      </trkpt>
      <trkpt lat="45.24703" lon="5.90315">
        <ele>300.54</ele>
        <time>2022-03-27T15:36:20.000Z</time>
      </trkpt>
      <trkpt lat="45.24692" lon="5.90303">
        <ele>305.3</ele>
        <time>2022-03-27T15:36:25.000Z</time>
      </trkpt>
      <trkpt lat="45.24676" lon="5.90292">
        <ele>308.3</ele>
        <time>2022-03-27T15:36:30.000Z</time>
      </trkpt>
      <trkpt lat="45.24663" lon="5.903">
        <ele>314.36</ele>
        <time>2022-03-27T15:36:35.000Z</time>
      </trkpt>
      <trkpt lat="45.24663" lon="5.90321">
        <ele>324.66</ele>
        <time>2022-03-27T15:36:40.000Z</time>
      </trkpt>
      <trkpt lat="45.24672" lon="5.90338">
        <ele>326.56</ele>
        <time>2022-03-27T15:36:45.000Z</time>
      </trkpt>
      <trkpt lat="45.24679" lon="5.90355">
        <ele>328.55</ele>
        <time>2022-03-27T15:36:50.000Z</time>
      </trkpt>
      <trkpt lat="45.24686" lon="5.90372">
        <ele>327.97</ele>
        <time>2022-03-27T15:36:55.000Z</time>
      </trkpt>
      <trkpt lat="45.24695" lon="5.90388">
        <ele>330.3</ele>
        <time>2022-03-27T15:37:00.000Z</time>
      </trkpt>
      <trkpt lat="45.24709" lon="5.90396">
        <ele>332.41</ele>
        <time>2022-03-27T15:37:05.000Z</time>
      </trkpt>
      <trkpt lat="45.24725" lon="5.90402">
        <ele>333.3</ele>
        <time>2022-03-27T15:37:10.000Z</time>
      </trkpt>
      <trkpt lat="45.24742" lon="5.90411">
        <ele>339.82</ele>
        <time>2022-03-27T15:37:15.000Z</time>
      </trkpt>
      <trkpt lat="45.24761" lon="5.90424">
        <ele>344.81</ele>
        <time>2022-03-27T15:37:20.000Z</time>
      </trkpt>
      <trkpt lat="45.24776" lon="5.9044">
        <ele>348.47</ele>
        <time>2022-03-27T15:37:25.000Z</time>
      </trkpt>
      <trkpt lat="45.24791" lon="5.90459">
        <ele>349.74</ele>
        <time>2022-03-27T15:37:30.000Z</time>
      </trkpt>
      <trkpt lat="45.24801" lon="5.90479">
        <ele>349.89</ele>
        <time>2022-03-27T15:37:35.000Z</time>
      </trkpt>
      <trkpt lat="45.24809" lon="5.90502">
        <ele>352.27</ele>
        <time>2022-03-27T15:37:40.000Z</time>
      </trkpt>
      <trkpt lat="45.24815" lon="5.90523">
        <ele>352.36</ele>
        <time>2022-03-27T15:37:45.000Z</time>
      </trkpt>
      <trkpt lat="45.24824" lon="5.90546">
        <ele>354.24</ele>
        <time>2022-03-27T15:37:50.000Z</time>
      </trkpt>
      <trkpt lat="45.24835" lon="5.90567">
        <ele>357.11</ele>
        <time>2022-03-27T15:37:55.000Z</time>
      </trkpt>
      <trkpt lat="45.24847" lon="5.90588">
        <ele>359.7</ele>
        <time>2022-03-27T15:38:00.000Z</time>
      </trkpt>
      <trkpt lat="45.24861" lon="5.90604">
        <ele>360.77</ele>
        <time>2022-03-27T15:38:05.000Z</time>
      </trkpt>
      <trkpt lat="45.24875" lon="5.90618">
        <ele>359.55</ele>
        <time>2022-03-27T15:38:10.000Z</time>
      </trkpt>
      <trkpt lat="45.24889" lon="5.90634">
        <ele>362.67</ele>
        <time>2022-03-27T15:38:15.000Z</time>
      </trkpt>
      <trkpt lat="45.24903" lon="5.90651">
        <ele>365.89</ele>
        <time>2022-03-27T15:38:20.000Z</time>
      </trkpt>
      <trkpt lat="45.24909" lon="5.90675">
        <ele>368.67</ele>
        <time>2022-03-27T15:38:25.000Z</time>
      </trkpt>
      <trkpt lat="45.24914" lon="5.90698">
        <ele>373.98</ele>
        <time>2022-03-27T15:38:30.000Z</time>
      </trkpt>
      <trkpt lat="45.24919" lon="5.90724">
        <ele>379.09</ele>
        <time>2022-03-27T15:38:35.000Z</time>
      </trkpt>
      <trkpt lat="45.24928" lon="5.90745">
        <ele>383.65</ele>
        <time>2022-03-27T15:38:40.000Z</time>
      </trkpt>
      <trkpt lat="45.24933" lon="5.90763">
        <ele>387.79</ele>
        <time>2022-03-27T15:38:45.000Z</time>
      </trkpt>
      <trkpt lat="45.24939" lon="5.90785">
        <ele>392.59</ele>
        <time>2022-03-27T15:38:50.000Z</time>
      </trkpt>
      <trkpt lat="45.24954" lon="5.90806">
        <ele>394.17</ele>
        <time>2022-03-27T15:38:55.000Z</time>
      </trkpt>
      <trkpt lat="45.24964" lon="5.90826">
        <ele>397.23</ele>
        <time>2022-03-27T15:39:00.000Z</time>
      </trkpt>
      <trkpt lat="45.24976" lon="5.90845">
        <ele>400.55</ele>
        <time>2022-03-27T15:39:05.000Z</time>
      </trkpt>
      <trkpt lat="45.24986" lon="5.9086">
        <ele>400.94</ele>
        <time>2022-03-27T15:39:10.000Z</time>
      </trkpt>
      <trkpt lat="45.24975" lon="5.90858">
        <ele>401.86</ele>
        <time>2022-03-27T15:39:16.000Z</time>
      </trkpt>
      <trkpt lat="45.24965" lon="5.9084">
        <ele>406.11</ele>
        <time>2022-03-27T15:39:21.000Z</time>
      </trkpt>
      <trkpt lat="45.24953" lon="5.90828">
        <ele>408.72</ele>
        <time>2022-03-27T15:39:26.000Z</time>
      </trkpt>
      <trkpt lat="45.24936" lon="5.90823">
        <ele>411.5</ele>
        <time>2022-03-27T15:39:31.000Z</time>
      </trkpt>
      <trkpt lat="45.24923" lon="5.90815">
        <ele>414.31</ele>
        <time>2022-03-27T15:39:36.000Z</time>
      </trkpt>
      <trkpt lat="45.24908" lon="5.90805">
        <ele>417.29</ele>
        <time>2022-03-27T15:39:41.000Z</time>
      </trkpt>
      <trkpt lat="45.24899" lon="5.90795">
        <ele>418.69</ele>
        <time>2022-03-27T15:39:46.000Z</time>
      </trkpt>
      <trkpt lat="45.24884" lon="5.90782">
        <ele>419.62</ele>
        <time>2022-03-27T15:39:51.000Z</time>
      </trkpt>
      <trkpt lat="45.24872" lon="5.90767">
        <ele>418.23</ele>
        <time>2022-03-27T15:39:56.000Z</time>
      </trkpt>
      <trkpt lat="45.24858" lon="5.90749">
        <ele>414.4</ele>
        <time>2022-03-27T15:40:01.000Z</time>
      </trkpt>
      <trkpt lat="45.24847" lon="5.9073">
        <ele>421.85</ele>
        <time>2022-03-27T15:40:06.000Z</time>
      </trkpt>
      <trkpt lat="45.2483" lon="5.90717">
        <ele>420.85</ele>
        <time>2022-03-27T15:40:11.000Z</time>
      </trkpt>
      <trkpt lat="45.24817" lon="5.90705">
        <ele>424.33</ele>
        <time>2022-03-27T15:40:16.000Z</time>
      </trkpt>
      <trkpt lat="45.24801" lon="5.90695">
        <ele>430.22</ele>
        <time>2022-03-27T15:40:21.000Z</time>
      </trkpt>
      <trkpt lat="45.2478" lon="5.90687">
        <ele>428.25</ele>
        <time>2022-03-27T15:40:26.000Z</time>
      </trkpt>
      <trkpt lat="45.24761" lon="5.90676">
        <ele>428.62</ele>
        <time>2022-03-27T15:40:31.000Z</time>
      </trkpt>
      <trkpt lat="45.24745" lon="5.90664">
        <ele>429.74</ele>
        <time>2022-03-27T15:40:36.000Z</time>
      </trkpt>
      <trkpt lat="45.24731" lon="5.90653">
        <ele>432.26</ele>
        <time>2022-03-27T15:40:41.000Z</time>
      </trkpt>
      <trkpt lat="45.24716" lon="5.90643">
        <ele>435.96</ele>
        <time>2022-03-27T15:40:46.000Z</time>
      </trkpt>
      <trkpt lat="45.24701" lon="5.90631">
        <ele>436.36</ele>
        <time>2022-03-27T15:40:51.000Z</time>
      </trkpt>
      <trkpt lat="45.24687" lon="5.90616">
        <ele>439.8</ele>
        <time>2022-03-27T15:40:56.000Z</time>
      </trkpt>
      <trkpt lat="45.24674" lon="5.90603">
        <ele>440.83</ele>
        <time>2022-03-27T15:41:01.000Z</time>
      </trkpt>
      <trkpt lat="45.24664" lon="5.90589">
        <ele>445.13</ele>
        <time>2022-03-27T15:41:06.000Z</time>
      </trkpt>
      <trkpt lat="45.2465" lon="5.90574">
        <ele>448.76</ele>
        <time>2022-03-27T15:41:11.000Z</time>
      </trkpt>
      <trkpt lat="45.24637" lon="5.9056">
        <ele>449.29</ele>
        <time>2022-03-27T15:41:16.000Z</time>
      </trkpt>
      <trkpt lat="45.24622" lon="5.90548">
        <ele>448.44</ele>
        <time>2022-03-27T15:41:21.000Z</time>
      </trkpt>
      <trkpt lat="45.24605" lon="5.90536">
        <ele>450.59</ele>
        <time>2022-03-27T15:41:26.000Z</time>
      </trkpt>
      <trkpt lat="45.24588" lon="5.90521">
        <ele>457.34</ele>
        <time>2022-03-27T15:41:31.000Z</time>
      </trkpt>
      <trkpt lat="45.24571" lon="5.90518">
        <ele>457.42</ele>
        <time>2022-03-27T15:41:36.000Z</time>
      </trkpt>
      <trkpt lat="45.24556" lon="5.90512">
        <ele>457.71</ele>
        <time>2022-03-27T15:41:41.000Z</time>
      </trkpt>
      <trkpt lat="45.24541" lon="5.90505">
        <ele>454.69</ele>
        <time>2022-03-27T15:41:46.000Z</time>
      </trkpt>
      <trkpt lat="45.24523" lon="5.90498">
        <ele>455.94</ele>
        <time>2022-03-27T15:41:51.000Z</time>
      </trkpt>
      <trkpt lat="45.24507" lon="5.90487">
        <ele>455.76</ele>
        <time>2022-03-27T15:41:56.000Z</time>
      </trkpt>
      <trkpt lat="45.24489" lon="5.90478">
        <ele>459.04</ele>
        <time>2022-03-27T15:42:01.000Z</time>
      </trkpt>
      <trkpt lat="45.24472" lon="5.90469">
        <ele>457.99</ele>
        <time>2022-03-27T15:42:06.000Z</time>
      </trkpt>
      <trkpt lat="45.24455" lon="5.90462">
        <ele>461.9</ele>
        <time>2022-03-27T15:42:11.000Z</time>
      </trkpt>
      <trkpt lat="45.24446" lon="5.90453">
        <ele>464.6</ele>
        <time>2022-03-27T15:42:17.000Z</time>
      </trkpt>
      <trkpt lat="45.24433" lon="5.90444">
        <ele>467.92</ele>
        <time>2022-03-27T15:42:22.000Z</time>
      </trkpt>
      <trkpt lat="45.24439" lon="5.90454">
        <ele>472.44</ele>
        <time>2022-03-27T15:42:49.000Z</time>
      </trkpt>
      <trkpt lat="45.24429" lon="5.90457">
        <ele>484.09</ele>
        <time>2022-03-27T15:43:58.000Z</time>
      </trkpt>
      <trkpt lat="45.24414" lon="5.90462">
        <ele>484.73</ele>
        <time>2022-03-27T15:44:03.000Z</time>
      </trkpt>
      <trkpt lat="45.24402" lon="5.90475">
        <ele>486.47</ele>
        <time>2022-03-27T15:44:08.000Z</time>
      </trkpt>
      <trkpt lat="45.24395" lon="5.90492">
        <ele>492.01</ele>
        <time>2022-03-27T15:44:13.000Z</time>
      </trkpt>
      <trkpt lat="45.24395" lon="5.90535">
        <ele>493.51</ele>
        <time>2022-03-27T15:44:18.000Z</time>
      </trkpt>
      <trkpt lat="45.24387" lon="5.90566">
        <ele>494.17</ele>
        <time>2022-03-27T15:44:23.000Z</time>
      </trkpt>
      <trkpt lat="45.24367" lon="5.90578">
        <ele>497.19</ele>
        <time>2022-03-27T15:44:28.000Z</time>
      </trkpt>
      <trkpt lat="45.2435" lon="5.90592">
        <ele>500.45</ele>
        <time>2022-03-27T15:44:33.000Z</time>
      </trkpt>
      <trkpt lat="45.24334" lon="5.9061">
        <ele>502.81</ele>
        <time>2022-03-27T15:44:38.000Z</time>
      </trkpt>
      <trkpt lat="45.2433" lon="5.90651">
        <ele>506.7</ele>
        <time>2022-03-27T15:44:43.000Z</time>
      </trkpt>
      <trkpt lat="45.24324" lon="5.90686">
        <ele>506.63</ele>
        <time>2022-03-27T15:44:48.000Z</time>
      </trkpt>
      <trkpt lat="45.24305" lon="5.9069">
        <ele>508.98</ele>
        <time>2022-03-27T15:44:53.000Z</time>
      </trkpt>
      <trkpt lat="45.24288" lon="5.90701">
        <ele>509.67</ele>
        <time>2022-03-27T15:44:58.000Z</time>
      </trkpt>
      <trkpt lat="45.24275" lon="5.90727">
        <ele>513.57</ele>
        <time>2022-03-27T15:45:03.000Z</time>
      </trkpt>
      <trkpt lat="45.24264" lon="5.90748">
        <ele>515.58</ele>
        <time>2022-03-27T15:45:08.000Z</time>
      </trkpt>
      <trkpt lat="45.2425" lon="5.90763">
        <ele>518.83</ele>
        <time>2022-03-27T15:45:13.000Z</time>
      </trkpt>
      <trkpt lat="45.24233" lon="5.90777">
        <ele>523.96</ele>
        <time>2022-03-27T15:45:18.000Z</time>
      </trkpt>
      <trkpt lat="45.2422" lon="5.90792">
        <ele>530.1</ele>
        <time>2022-03-27T15:45:23.000Z</time>
      </trkpt>
      <trkpt lat="45.24207" lon="5.90809">
        <ele>529.72</ele>
        <time>2022-03-27T15:45:28.000Z</time>
      </trkpt>
      <trkpt lat="45.24198" lon="5.90827">
        <ele>531.06</ele>
        <time>2022-03-27T15:45:33.000Z</time>
      </trkpt>
      <trkpt lat="45.24205" lon="5.90858">
        <ele>535.37</ele>
        <time>2022-03-27T15:45:38.000Z</time>
      </trkpt>
      <trkpt lat="45.24209" lon="5.90894">
        <ele>536.77</ele>
        <time>2022-03-27T15:45:43.000Z</time>
      </trkpt>
      <trkpt lat="45.2421" lon="5.90913">
        <ele>536.4</ele>
        <time>2022-03-27T15:45:48.000Z</time>
      </trkpt>
      <trkpt lat="45.24207" lon="5.90941">
        <ele>536.33</ele>
        <time>2022-03-27T15:45:53.000Z</time>
      </trkpt>
      <trkpt lat="45.24203" lon="5.90954">
        <ele>540.54</ele>
        <time>2022-03-27T15:45:58.000Z</time>
      </trkpt>
      <trkpt lat="45.24192" lon="5.90971">
        <ele>542.97</ele>
        <time>2022-03-27T15:46:03.000Z</time>
      </trkpt>
      <trkpt lat="45.24186" lon="5.90988">
        <ele>547.41</ele>
        <time>2022-03-27T15:46:08.000Z</time>
      </trkpt>
      <trkpt lat="45.24184" lon="5.91019">
        <ele>549.95</ele>
        <time>2022-03-27T15:46:13.000Z</time>
      </trkpt>
      <trkpt lat="45.24185" lon="5.91043">
        <ele>550.91</ele>
        <time>2022-03-27T15:46:18.000Z</time>
      </trkpt>
      <trkpt lat="45.24184" lon="5.91065">
        <ele>553.5</ele>
        <time>2022-03-27T15:46:23.000Z</time>
      </trkpt>
      <trkpt lat="45.24187" lon="5.91095">
        <ele>554.18</ele>
        <time>2022-03-27T15:46:28.000Z</time>
      </trkpt>
      <trkpt lat="45.24185" lon="5.91124">
        <ele>556.08</ele>
        <time>2022-03-27T15:46:33.000Z</time>
      </trkpt>
      <trkpt lat="45.24172" lon="5.91141">
        <ele>561.35</ele>
        <time>2022-03-27T15:46:38.000Z</time>
      </trkpt>
      <trkpt lat="45.24157" lon="5.91156">
        <ele>563.05</ele>
        <time>2022-03-27T15:46:43.000Z</time>
      </trkpt>
      <trkpt lat="45.24144" lon="5.91178">
        <ele>565.76</ele>
        <time>2022-03-27T15:46:48.000Z</time>
      </trkpt>
      <trkpt lat="45.24131" lon="5.91197">
        <ele>567.12</ele>
        <time>2022-03-27T15:46:53.000Z</time>
      </trkpt>
      <trkpt lat="45.24119" lon="5.91216">
        <ele>565.98</ele>
        <time>2022-03-27T15:46:58.000Z</time>
      </trkpt>
      <trkpt lat="45.2411" lon="5.91235">
        <ele>564.24</ele>
        <time>2022-03-27T15:47:03.000Z</time>
      </trkpt>
      <trkpt lat="45.24102" lon="5.91248">
        <ele>565.58</ele>
        <time>2022-03-27T15:47:08.000Z</time>
      </trkpt>
      <trkpt lat="45.24095" lon="5.91262">
        <ele>567.58</ele>
        <time>2022-03-27T15:47:54.000Z</time>
      </trkpt>
      <trkpt lat="45.24086" lon="5.91287">
        <ele>568.38</ele>
        <time>2022-03-27T15:47:59.000Z</time>
      </trkpt>
      <trkpt lat="45.24077" lon="5.91313">
        <ele>570.42</ele>
        <time>2022-03-27T15:48:04.000Z</time>
      </trkpt>
      <trkpt lat="45.24067" lon="5.91338">
        <ele>567.33</ele>
        <time>2022-03-27T15:48:09.000Z</time>
      </trkpt>
      <trkpt lat="45.24062" lon="5.91367">
        <ele>564.29</ele>
        <time>2022-03-27T15:48:14.000Z</time>
      </trkpt>
      <trkpt lat="45.24047" lon="5.91392">
        <ele>568.27</ele>
        <time>2022-03-27T15:48:19.000Z</time>
      </trkpt>
      <trkpt lat="45.24044" lon="5.91424">
        <ele>568.77</ele>
        <time>2022-03-27T15:48:24.000Z</time>
      </trkpt>
      <trkpt lat="45.24042" lon="5.9145">
        <ele>567.88</ele>
        <time>2022-03-27T15:48:29.000Z</time>
      </trkpt>
      <trkpt lat="45.24029" lon="5.91468">
        <ele>571.41</ele>
        <time>2022-03-27T15:48:34.000Z</time>
      </trkpt>
      <trkpt lat="45.24024" lon="5.91488">
        <ele>567</ele>
        <time>2022-03-27T15:48:39.000Z</time>
      </trkpt>
      <trkpt lat="45.24024" lon="5.91509">
        <ele>569.15</ele>
        <time>2022-03-27T15:48:44.000Z</time>
      </trkpt>
      <trkpt lat="45.24025" lon="5.91541">
        <ele>570.22</ele>
        <time>2022-03-27T15:48:49.000Z</time>
      </trkpt>
      <trkpt lat="45.2401" lon="5.91552">
        <ele>571.1</ele>
        <time>2022-03-27T15:48:54.000Z</time>
      </trkpt>
      <trkpt lat="45.23989" lon="5.91544">
        <ele>574.87</ele>
        <time>2022-03-27T15:48:59.000Z</time>
      </trkpt>
      <trkpt lat="45.23968" lon="5.91536">
        <ele>578.27</ele>
        <time>2022-03-27T15:49:04.000Z</time>
      </trkpt>
      <trkpt lat="45.23952" lon="5.9154">
        <ele>581</ele>
        <time>2022-03-27T15:49:09.000Z</time>
      </trkpt>
      <trkpt lat="45.23933" lon="5.91554">
        <ele>579.18</ele>
        <time>2022-03-27T15:49:14.000Z</time>
      </trkpt>
      <trkpt lat="45.23915" lon="5.91572">
        <ele>579.34</ele>
        <time>2022-03-27T15:49:19.000Z</time>
      </trkpt>
      <trkpt lat="45.23901" lon="5.91594">
        <ele>578.1</ele>
        <time>2022-03-27T15:49:24.000Z</time>
      </trkpt>
      <trkpt lat="45.23886" lon="5.91617">
        <ele>581.67</ele>
        <time>2022-03-27T15:49:29.000Z</time>
      </trkpt>
      <trkpt lat="45.2387" lon="5.91639">
        <ele>585.69</ele>
        <time>2022-03-27T15:49:34.000Z</time>
      </trkpt>
      <trkpt lat="45.23857" lon="5.91664">
        <ele>589.75</ele>
        <time>2022-03-27T15:49:39.000Z</time>
      </trkpt>
      <trkpt lat="45.23847" lon="5.91689">
        <ele>589.78</ele>
        <time>2022-03-27T15:49:44.000Z</time>
      </trkpt>
      <trkpt lat="45.23834" lon="5.91712">
        <ele>591.03</ele>
        <time>2022-03-27T15:49:49.000Z</time>
      </trkpt>
      <trkpt lat="45.23825" lon="5.91737">
        <ele>591</ele>
        <time>2022-03-27T15:49:54.000Z</time>
      </trkpt>
      <trkpt lat="45.23814" lon="5.9176">
        <ele>588.45</ele>
        <time>2022-03-27T15:49:59.000Z</time>
      </trkpt>
      <trkpt lat="45.23804" lon="5.91783">
        <ele>590.95</ele>
        <time>2022-03-27T15:50:04.000Z</time>
      </trkpt>
      <trkpt lat="45.23792" lon="5.91806">
        <ele>592.03</ele>
        <time>2022-03-27T15:50:09.000Z</time>
      </trkpt>
      <trkpt lat="45.2378" lon="5.91829">
        <ele>594.9</ele>
        <time>2022-03-27T15:50:14.000Z</time>
      </trkpt>
      <trkpt lat="45.23772" lon="5.91849">
        <ele>595.36</ele>
        <time>2022-03-27T15:50:19.000Z</time>
      </trkpt>
      <trkpt lat="45.23768" lon="5.91868">
        <ele>596.33</ele>
        <time>2022-03-27T15:50:24.000Z</time>
      </trkpt>
      <trkpt lat="45.23753" lon="5.91881">
        <ele>600.35</ele>
        <time>2022-03-27T15:50:29.000Z</time>
      </trkpt>
      <trkpt lat="45.23737" lon="5.91884">
        <ele>603.62</ele>
        <time>2022-03-27T15:50:34.000Z</time>
      </trkpt>
      <trkpt lat="45.23722" lon="5.91893">
        <ele>608.16</ele>
        <time>2022-03-27T15:50:39.000Z</time>
      </trkpt>
      <trkpt lat="45.23707" lon="5.91909">
        <ele>611.42</ele>
        <time>2022-03-27T15:50:44.000Z</time>
      </trkpt>
      <trkpt lat="45.23697" lon="5.91931">
        <ele>616.42</ele>
        <time>2022-03-27T15:50:49.000Z</time>
      </trkpt>
      <trkpt lat="45.2369" lon="5.91956">
        <ele>620.7</ele>
        <time>2022-03-27T15:50:54.000Z</time>
      </trkpt>
      <trkpt lat="45.23686" lon="5.91979">
        <ele>620.63</ele>
        <time>2022-03-27T15:50:59.000Z</time>
      </trkpt>
      <trkpt lat="45.2368" lon="5.91998">
        <ele>624.67</ele>
        <time>2022-03-27T15:51:04.000Z</time>
      </trkpt>
      <trkpt lat="45.23674" lon="5.92022">
        <ele>626.71</ele>
        <time>2022-03-27T15:51:09.000Z</time>
      </trkpt>
      <trkpt lat="45.2367" lon="5.9205">
        <ele>629.32</ele>
        <time>2022-03-27T15:51:14.000Z</time>
      </trkpt>
      <trkpt lat="45.23672" lon="5.92075">
        <ele>634.35</ele>
        <time>2022-03-27T15:51:19.000Z</time>
      </trkpt>
      <trkpt lat="45.23674" lon="5.92099">
        <ele>635.84</ele>
        <time>2022-03-27T15:51:24.000Z</time>
      </trkpt>
      <trkpt lat="45.23676" lon="5.92124">
        <ele>639.06</ele>
        <time>2022-03-27T15:51:29.000Z</time>
      </trkpt>
      <trkpt lat="45.23668" lon="5.92146">
        <ele>642.37</ele>
        <time>2022-03-27T15:51:34.000Z</time>
      </trkpt>
      <trkpt lat="45.23659" lon="5.9217">
        <ele>645.33</ele>
        <time>2022-03-27T15:51:39.000Z</time>
      </trkpt>
      <trkpt lat="45.23654" lon="5.92197">
        <ele>646.92</ele>
        <time>2022-03-27T15:51:44.000Z</time>
      </trkpt>
      <trkpt lat="45.23652" lon="5.92218">
        <ele>647.42</ele>
        <time>2022-03-27T15:51:49.000Z</time>
      </trkpt>
      <trkpt lat="45.23649" lon="5.9224">
        <ele>649.17</ele>
        <time>2022-03-27T15:51:54.000Z</time>
      </trkpt>
      <trkpt lat="45.23644" lon="5.92265">
        <ele>648.33</ele>
        <time>2022-03-27T15:51:59.000Z</time>
      </trkpt>
      <trkpt lat="45.23637" lon="5.92286">
        <ele>647.8</ele>
        <time>2022-03-27T15:52:04.000Z</time>
      </trkpt>
      <trkpt lat="45.2363" lon="5.92311">
        <ele>647.71</ele>
        <time>2022-03-27T15:52:09.000Z</time>
      </trkpt>
      <trkpt lat="45.23625" lon="5.9233">
        <ele>649.7</ele>
        <time>2022-03-27T15:52:14.000Z</time>
      </trkpt>
      <trkpt lat="45.23624" lon="5.92355">
        <ele>652.07</ele>
        <time>2022-03-27T15:52:19.000Z</time>
      </trkpt>
      <trkpt lat="45.2362" lon="5.92377">
        <ele>651.83</ele>
        <time>2022-03-27T15:52:24.000Z</time>
      </trkpt>
      <trkpt lat="45.23617" lon="5.92403">
        <ele>652.88</ele>
        <time>2022-03-27T15:52:29.000Z</time>
      </trkpt>
      <trkpt lat="45.23616" lon="5.92428">
        <ele>656.23</ele>
        <time>2022-03-27T15:52:34.000Z</time>
      </trkpt>
      <trkpt lat="45.2361" lon="5.9246">
        <ele>657.09</ele>
        <time>2022-03-27T15:52:39.000Z</time>
      </trkpt>
      <trkpt lat="45.23599" lon="5.92477">
        <ele>660.24</ele>
        <time>2022-03-27T15:52:44.000Z</time>
      </trkpt>
      <trkpt lat="45.23588" lon="5.92491">
        <ele>660.73</ele>
        <time>2022-03-27T15:52:49.000Z</time>
      </trkpt>
      <trkpt lat="45.23576" lon="5.92504">
        <ele>654.33</ele>
        <time>2022-03-27T15:52:54.000Z</time>
      </trkpt>
      <trkpt lat="45.23565" lon="5.92524">
        <ele>655.68</ele>
        <time>2022-03-27T15:52:59.000Z</time>
      </trkpt>
      <trkpt lat="45.23552" lon="5.92545">
        <ele>659.04</ele>
        <time>2022-03-27T15:53:04.000Z</time>
      </trkpt>
      <trkpt lat="45.23545" lon="5.9257">
        <ele>660.74</ele>
        <time>2022-03-27T15:53:09.000Z</time>
      </trkpt>
      <trkpt lat="45.23535" lon="5.92591">
        <ele>664.45</ele>
        <time>2022-03-27T15:53:14.000Z</time>
      </trkpt>
      <trkpt lat="45.23522" lon="5.92606">
        <ele>668.73</ele>
        <time>2022-03-27T15:53:19.000Z</time>
      </trkpt>
      <trkpt lat="45.23506" lon="5.92621">
        <ele>669.97</ele>
        <time>2022-03-27T15:53:24.000Z</time>
      </trkpt>
      <trkpt lat="45.23491" lon="5.92637">
        <ele>672.78</ele>
        <time>2022-03-27T15:53:29.000Z</time>
      </trkpt>
      <trkpt lat="45.2348" lon="5.92659">
        <ele>673.62</ele>
        <time>2022-03-27T15:53:34.000Z</time>
      </trkpt>
      <trkpt lat="45.2347" lon="5.9268">
        <ele>671.26</ele>
        <time>2022-03-27T15:53:39.000Z</time>
      </trkpt>
      <trkpt lat="45.2346" lon="5.92696">
        <ele>671.73</ele>
        <time>2022-03-27T15:53:44.000Z</time>
      </trkpt>
      <trkpt lat="45.2345" lon="5.92715">
        <ele>675.77</ele>
        <time>2022-03-27T15:53:49.000Z</time>
      </trkpt>
      <trkpt lat="45.23426" lon="5.92741">
        <ele>679.25</ele>
        <time>2022-03-27T15:53:57.000Z</time>
      </trkpt>
      <trkpt lat="45.23412" lon="5.9276">
        <ele>684.78</ele>
        <time>2022-03-27T15:54:02.000Z</time>
      </trkpt>
      <trkpt lat="45.23401" lon="5.92783">
        <ele>687.96</ele>
        <time>2022-03-27T15:54:07.000Z</time>
      </trkpt>
      <trkpt lat="45.23389" lon="5.92804">
        <ele>689.94</ele>
        <time>2022-03-27T15:54:12.000Z</time>
      </trkpt>
      <trkpt lat="45.23378" lon="5.92825">
        <ele>690.19</ele>
        <time>2022-03-27T15:54:17.000Z</time>
      </trkpt>
      <trkpt lat="45.23366" lon="5.92845">
        <ele>693.93</ele>
        <time>2022-03-27T15:54:22.000Z</time>
      </trkpt>
      <trkpt lat="45.23356" lon="5.92866">
        <ele>691.75</ele>
        <time>2022-03-27T15:54:27.000Z</time>
      </trkpt>
      <trkpt lat="45.23345" lon="5.92885">
        <ele>691.31</ele>
        <time>2022-03-27T15:54:32.000Z</time>
      </trkpt>
      <trkpt lat="45.23335" lon="5.92909">
        <ele>692.85</ele>
        <time>2022-03-27T15:54:37.000Z</time>
      </trkpt>
      <trkpt lat="45.23329" lon="5.92947">
        <ele>695.81</ele>
        <time>2022-03-27T15:54:42.000Z</time>
      </trkpt>
      <trkpt lat="45.23318" lon="5.92961">
        <ele>698.4</ele>
        <time>2022-03-27T15:54:47.000Z</time>
      </trkpt>
      <trkpt lat="45.23304" lon="5.92978">
        <ele>699.97</ele>
        <time>2022-03-27T15:54:52.000Z</time>
      </trkpt>
      <trkpt lat="45.23292" lon="5.92998">
        <ele>701.32</ele>
        <time>2022-03-27T15:54:57.000Z</time>
      </trkpt>
      <trkpt lat="45.23282" lon="5.93016">
        <ele>701.72</ele>
        <time>2022-03-27T15:55:02.000Z</time>
      </trkpt>
      <trkpt lat="45.23271" lon="5.93032">
        <ele>704.54</ele>
        <time>2022-03-27T15:55:07.000Z</time>
      </trkpt>
      <trkpt lat="45.23261" lon="5.9305">
        <ele>707.98</ele>
        <time>2022-03-27T15:55:12.000Z</time>
      </trkpt>
      <trkpt lat="45.23252" lon="5.93073">
        <ele>711.07</ele>
        <time>2022-03-27T15:55:17.000Z</time>
      </trkpt>
      <trkpt lat="45.23241" lon="5.93096">
        <ele>711.57</ele>
        <time>2022-03-27T15:55:22.000Z</time>
      </trkpt>
      <trkpt lat="45.23229" lon="5.93115">
        <ele>715.39</ele>
        <time>2022-03-27T15:55:27.000Z</time>
      </trkpt>
      <trkpt lat="45.23218" lon="5.93137">
        <ele>717.59</ele>
        <time>2022-03-27T15:55:32.000Z</time>
      </trkpt>
      <trkpt lat="45.23205" lon="5.93154">
        <ele>716.81</ele>
        <time>2022-03-27T15:55:37.000Z</time>
      </trkpt>
      <trkpt lat="45.23189" lon="5.93168">
        <ele>712.27</ele>
        <time>2022-03-27T15:55:42.000Z</time>
      </trkpt>
      <trkpt lat="45.23176" lon="5.93188">
        <ele>713.44</ele>
        <time>2022-03-27T15:55:47.000Z</time>
      </trkpt>
      <trkpt lat="45.23168" lon="5.9321">
        <ele>718.79</ele>
        <time>2022-03-27T15:55:52.000Z</time>
      </trkpt>
      <trkpt lat="45.23167" lon="5.93237">
        <ele>721.71</ele>
        <time>2022-03-27T15:55:57.000Z</time>
      </trkpt>
      <trkpt lat="45.23169" lon="5.93268">
        <ele>721.76</ele>
        <time>2022-03-27T15:56:02.000Z</time>
      </trkpt>
      <trkpt lat="45.23163" lon="5.93301">
        <ele>722.92</ele>
        <time>2022-03-27T15:56:07.000Z</time>
      </trkpt>
      <trkpt lat="45.23146" lon="5.93317">
        <ele>726.28</ele>
        <time>2022-03-27T15:56:12.000Z</time>
      </trkpt>
      <trkpt lat="45.23135" lon="5.93336">
        <ele>725.91</ele>
        <time>2022-03-27T15:56:17.000Z</time>
      </trkpt>
      <trkpt lat="45.23123" lon="5.93352">
        <ele>726.28</ele>
        <time>2022-03-27T15:56:22.000Z</time>
      </trkpt>
      <trkpt lat="45.23108" lon="5.93367">
        <ele>726.95</ele>
        <time>2022-03-27T15:56:27.000Z</time>
      </trkpt>
      <trkpt lat="45.23091" lon="5.93372">
        <ele>728.66</ele>
        <time>2022-03-27T15:56:32.000Z</time>
      </trkpt>
      <trkpt lat="45.2307" lon="5.93367">
        <ele>728.25</ele>
        <time>2022-03-27T15:56:37.000Z</time>
      </trkpt>
      <trkpt lat="45.23054" lon="5.93359">
        <ele>732.29</ele>
        <time>2022-03-27T15:56:42.000Z</time>
      </trkpt>
      <trkpt lat="45.23039" lon="5.93349">
        <ele>736.99</ele>
        <time>2022-03-27T15:56:47.000Z</time>
      </trkpt>
      <trkpt lat="45.23021" lon="5.93346">
        <ele>738.17</ele>
        <time>2022-03-27T15:56:52.000Z</time>
      </trkpt>
      <trkpt lat="45.23012" lon="5.93341">
        <ele>737.24</ele>
        <time>2022-03-27T16:00:06.000Z</time>
      </trkpt>
      <trkpt lat="45.23002" lon="5.93347">
        <ele>736.04</ele>
        <time>2022-03-27T16:00:14.000Z</time>
      </trkpt>
      <trkpt lat="45.22981" lon="5.93345">
        <ele>735.15</ele>
        <time>2022-03-27T16:00:19.000Z</time>
      </trkpt>
      <trkpt lat="45.22962" lon="5.93344">
        <ele>736.04</ele>
        <time>2022-03-27T16:00:24.000Z</time>
      </trkpt>
      <trkpt lat="45.22943" lon="5.93342">
        <ele>737.09</ele>
        <time>2022-03-27T16:00:29.000Z</time>
      </trkpt>
      <trkpt lat="45.22925" lon="5.93348">
        <ele>738.15</ele>
        <time>2022-03-27T16:00:34.000Z</time>
      </trkpt>
      <trkpt lat="45.22909" lon="5.93352">
        <ele>736.91</ele>
        <time>2022-03-27T16:00:39.000Z</time>
      </trkpt>
      <trkpt lat="45.22892" lon="5.93346">
        <ele>738.48</ele>
        <time>2022-03-27T16:00:44.000Z</time>
      </trkpt>
      <trkpt lat="45.22876" lon="5.93333">
        <ele>740.88</ele>
        <time>2022-03-27T16:00:49.000Z</time>
      </trkpt>
      <trkpt lat="45.22859" lon="5.93325">
        <ele>740.61</ele>
        <time>2022-03-27T16:00:54.000Z</time>
      </trkpt>
      <trkpt lat="45.22842" lon="5.93327">
        <ele>741.12</ele>
        <time>2022-03-27T16:00:59.000Z</time>
      </trkpt>
      <trkpt lat="45.22824" lon="5.93327">
        <ele>742.54</ele>
        <time>2022-03-27T16:01:04.000Z</time>
      </trkpt>
      <trkpt lat="45.22804" lon="5.93331">
        <ele>744.19</ele>
        <time>2022-03-27T16:01:09.000Z</time>
      </trkpt>
      <trkpt lat="45.22787" lon="5.9333">
        <ele>749.01</ele>
        <time>2022-03-27T16:01:14.000Z</time>
      </trkpt>
      <trkpt lat="45.22773" lon="5.93337">
        <ele>749.86</ele>
        <time>2022-03-27T16:01:19.000Z</time>
      </trkpt>
      <trkpt lat="45.22757" lon="5.93354">
        <ele>750.28</ele>
        <time>2022-03-27T16:01:24.000Z</time>
      </trkpt>
      <trkpt lat="45.22743" lon="5.93373">
        <ele>750.4</ele>
        <time>2022-03-27T16:01:29.000Z</time>
      </trkpt>
      <trkpt lat="45.22729" lon="5.93392">
        <ele>750.97</ele>
        <time>2022-03-27T16:01:34.000Z</time>
      </trkpt>
      <trkpt lat="45.22715" lon="5.93411">
        <ele>753.96</ele>
        <time>2022-03-27T16:01:39.000Z</time>
      </trkpt>
      <trkpt lat="45.22701" lon="5.93428">
        <ele>758.51</ele>
        <time>2022-03-27T16:01:44.000Z</time>
      </trkpt>
      <trkpt lat="45.22685" lon="5.93437">
        <ele>756.34</ele>
        <time>2022-03-27T16:01:49.000Z</time>
      </trkpt>
      <trkpt lat="45.22668" lon="5.93447">
        <ele>757.48</ele>
        <time>2022-03-27T16:01:54.000Z</time>
      </trkpt>
      <trkpt lat="45.2265" lon="5.93453">
        <ele>756.75</ele>
        <time>2022-03-27T16:01:59.000Z</time>
      </trkpt>
      <trkpt lat="45.22635" lon="5.93462">
        <ele>755.7</ele>
        <time>2022-03-27T16:02:04.000Z</time>
      </trkpt>
      <trkpt lat="45.22617" lon="5.93462">
        <ele>757</ele>
        <time>2022-03-27T16:02:09.000Z</time>
      </trkpt>
      <trkpt lat="45.22594" lon="5.93464">
        <ele>755.35</ele>
        <time>2022-03-27T16:02:14.000Z</time>
      </trkpt>
      <trkpt lat="45.22569" lon="5.93459">
        <ele>753.17</ele>
        <time>2022-03-27T16:02:19.000Z</time>
      </trkpt>
      <trkpt lat="45.22539" lon="5.93458">
        <ele>753.67</ele>
        <time>2022-03-27T16:02:24.000Z</time>
      </trkpt>
      <trkpt lat="45.2251" lon="5.93455">
        <ele>751.45</ele>
        <time>2022-03-27T16:02:29.000Z</time>
      </trkpt>
      <trkpt lat="45.22471" lon="5.93426">
        <ele>749.84</ele>
        <time>2022-03-27T16:02:34.000Z</time>
      </trkpt>
      <trkpt lat="45.22435" lon="5.93385">
        <ele>750.9</ele>
        <time>2022-03-27T16:02:39.000Z</time>
      </trkpt>
      <trkpt lat="45.22391" lon="5.93347">
        <ele>748.69</ele>
        <time>2022-03-27T16:02:44.000Z</time>
      </trkpt>
      <trkpt lat="45.22343" lon="5.93328">
        <ele>746.32</ele>
        <time>2022-03-27T16:02:49.000Z</time>
      </trkpt>
      <trkpt lat="45.22296" lon="5.93296">
        <ele>749.11</ele>
        <time>2022-03-27T16:02:54.000Z</time>
      </trkpt>
      <trkpt lat="45.22248" lon="5.93284">
        <ele>749.61</ele>
        <time>2022-03-27T16:02:59.000Z</time>
      </trkpt>
      <trkpt lat="45.22214" lon="5.93319">
        <ele>751.82</ele>
        <time>2022-03-27T16:03:04.000Z</time>
      </trkpt>
      <trkpt lat="45.22173" lon="5.93337">
        <ele>743.77</ele>
        <time>2022-03-27T16:03:09.000Z</time>
      </trkpt>
      <trkpt lat="45.22139" lon="5.9333">
        <ele>741.9</ele>
        <time>2022-03-27T16:03:14.000Z</time>
      </trkpt>
      <trkpt lat="45.22106" lon="5.93317">
        <ele>743.55</ele>
        <time>2022-03-27T16:03:19.000Z</time>
      </trkpt>
      <trkpt lat="45.22076" lon="5.9328">
        <ele>744.95</ele>
        <time>2022-03-27T16:03:24.000Z</time>
      </trkpt>
      <trkpt lat="45.22059" lon="5.93278">
        <ele>744.7</ele>
        <time>2022-03-27T16:03:29.000Z</time>
      </trkpt>
      <trkpt lat="45.22034" lon="5.93251">
        <ele>743.75</ele>
        <time>2022-03-27T16:03:34.000Z</time>
      </trkpt>
      <trkpt lat="45.22012" lon="5.93238">
        <ele>738.98</ele>
        <time>2022-03-27T16:03:39.000Z</time>
      </trkpt>
      <trkpt lat="45.2199" lon="5.93224">
        <ele>735.91</ele>
        <time>2022-03-27T16:03:44.000Z</time>
      </trkpt>
      <trkpt lat="45.21965" lon="5.93224">
        <ele>733.57</ele>
        <time>2022-03-27T16:03:49.000Z</time>
      </trkpt>
      <trkpt lat="45.21939" lon="5.93239">
        <ele>734.33</ele>
        <time>2022-03-27T16:03:54.000Z</time>
      </trkpt>
      <trkpt lat="45.21918" lon="5.93264">
        <ele>733.37</ele>
        <time>2022-03-27T16:03:59.000Z</time>
      </trkpt>
      <trkpt lat="45.21891" lon="5.93291">
        <ele>733.57</ele>
        <time>2022-03-27T16:04:04.000Z</time>
      </trkpt>
      <trkpt lat="45.21863" lon="5.93312">
        <ele>731.44</ele>
        <time>2022-03-27T16:04:09.000Z</time>
      </trkpt>
      <trkpt lat="45.21832" lon="5.93332">
        <ele>730.95</ele>
        <time>2022-03-27T16:04:14.000Z</time>
      </trkpt>
      <trkpt lat="45.21804" lon="5.93353">
        <ele>730.01</ele>
        <time>2022-03-27T16:04:19.000Z</time>
      </trkpt>
      <trkpt lat="45.21778" lon="5.93368">
        <ele>731.06</ele>
        <time>2022-03-27T16:04:24.000Z</time>
      </trkpt>
      <trkpt lat="45.21761" lon="5.93374">
        <ele>727.09</ele>
        <time>2022-03-27T16:04:29.000Z</time>
      </trkpt>
      <trkpt lat="45.21734" lon="5.93373">
        <ele>724.07</ele>
        <time>2022-03-27T16:04:34.000Z</time>
      </trkpt>
      <trkpt lat="45.21709" lon="5.93364">
        <ele>721.62</ele>
        <time>2022-03-27T16:04:39.000Z</time>
      </trkpt>
      <trkpt lat="45.2169" lon="5.9335">
        <ele>727.14</ele>
        <time>2022-03-27T16:04:44.000Z</time>
      </trkpt>
      <trkpt lat="45.21665" lon="5.9335">
        <ele>725.12</ele>
        <time>2022-03-27T16:04:49.000Z</time>
      </trkpt>
      <trkpt lat="45.21646" lon="5.93364">
        <ele>727.53</ele>
        <time>2022-03-27T16:04:54.000Z</time>
      </trkpt>
      <trkpt lat="45.21624" lon="5.93386">
        <ele>727.05</ele>
        <time>2022-03-27T16:04:59.000Z</time>
      </trkpt>
      <trkpt lat="45.216" lon="5.93413">
        <ele>729.35</ele>
        <time>2022-03-27T16:05:04.000Z</time>
      </trkpt>
      <trkpt lat="45.21576" lon="5.9344">
        <ele>731.18</ele>
        <time>2022-03-27T16:05:09.000Z</time>
      </trkpt>
      <trkpt lat="45.2155" lon="5.93467">
        <ele>729.83</ele>
        <time>2022-03-27T16:05:14.000Z</time>
      </trkpt>
      <trkpt lat="45.21524" lon="5.93492">
        <ele>732.3</ele>
        <time>2022-03-27T16:05:19.000Z</time>
      </trkpt>
      <trkpt lat="45.21497" lon="5.93503">
        <ele>729.42</ele>
        <time>2022-03-27T16:05:24.000Z</time>
      </trkpt>
      <trkpt lat="45.21463" lon="5.93515">
        <ele>731.02</ele>
        <time>2022-03-27T16:05:29.000Z</time>
      </trkpt>
      <trkpt lat="45.21433" lon="5.93509">
        <ele>736.73</ele>
        <time>2022-03-27T16:05:34.000Z</time>
      </trkpt>
      <trkpt lat="45.21413" lon="5.93489">
        <ele>742.9</ele>
        <time>2022-03-27T16:05:39.000Z</time>
      </trkpt>
      <trkpt lat="45.21397" lon="5.93473">
        <ele>742.94</ele>
        <time>2022-03-27T16:05:44.000Z</time>
      </trkpt>
      <trkpt lat="45.21387" lon="5.93436">
        <ele>741.42</ele>
        <time>2022-03-27T16:05:49.000Z</time>
      </trkpt>
      <trkpt lat="45.21375" lon="5.93399">
        <ele>743.88</ele>
        <time>2022-03-27T16:05:54.000Z</time>
      </trkpt>
      <trkpt lat="45.21368" lon="5.93356">
        <ele>747.71</ele>
        <time>2022-03-27T16:05:59.000Z</time>
      </trkpt>
      <trkpt lat="45.21364" lon="5.93319">
        <ele>751.34</ele>
        <time>2022-03-27T16:06:04.000Z</time>
      </trkpt>
      <trkpt lat="45.21384" lon="5.93292">
        <ele>751.03</ele>
        <time>2022-03-27T16:06:09.000Z</time>
      </trkpt>
      <trkpt lat="45.21409" lon="5.93274">
        <ele>752.21</ele>
        <time>2022-03-27T16:06:14.000Z</time>
      </trkpt>
      <trkpt lat="45.21435" lon="5.93264">
        <ele>751.56</ele>
        <time>2022-03-27T16:06:19.000Z</time>
      </trkpt>
      <trkpt lat="45.21464" lon="5.93256">
        <ele>749.81</ele>
        <time>2022-03-27T16:06:24.000Z</time>
      </trkpt>
      <trkpt lat="45.21491" lon="5.93245">
        <ele>750.32</ele>
        <time>2022-03-27T16:06:29.000Z</time>
      </trkpt>
      <trkpt lat="45.21516" lon="5.9323">
        <ele>746.94</ele>
        <time>2022-03-27T16:06:34.000Z</time>
      </trkpt>
      <trkpt lat="45.21529" lon="5.93214">
        <ele>744.27</ele>
        <time>2022-03-27T16:06:39.000Z</time>
      </trkpt>
      <trkpt lat="45.21538" lon="5.9322">
        <ele>739.76</ele>
        <time>2022-03-27T16:07:13.000Z</time>
      </trkpt>
      <trkpt lat="45.21551" lon="5.93217">
        <ele>737.35</ele>
        <time>2022-03-27T16:07:18.000Z</time>
      </trkpt>
      <trkpt lat="45.21564" lon="5.93209">
        <ele>733.22</ele>
        <time>2022-03-27T16:07:23.000Z</time>
      </trkpt>
      <trkpt lat="45.21575" lon="5.93198">
        <ele>732.24</ele>
        <time>2022-03-27T16:07:28.000Z</time>
      </trkpt>
      <trkpt lat="45.21596" lon="5.93172">
        <ele>731.33</ele>
        <time>2022-03-27T16:07:33.000Z</time>
      </trkpt>
      <trkpt lat="45.2162" lon="5.93148">
        <ele>731.76</ele>
        <time>2022-03-27T16:07:38.000Z</time>
      </trkpt>
      <trkpt lat="45.21645" lon="5.93119">
        <ele>734.03</ele>
        <time>2022-03-27T16:07:43.000Z</time>
      </trkpt>
      <trkpt lat="45.21667" lon="5.93094">
        <ele>736.94</ele>
        <time>2022-03-27T16:07:48.000Z</time>
      </trkpt>
      <trkpt lat="45.21681" lon="5.93072">
        <ele>739.47</ele>
        <time>2022-03-27T16:07:53.000Z</time>
      </trkpt>
      <trkpt lat="45.21691" lon="5.93075">
        <ele>740.54</ele>
        <time>2022-03-27T16:08:24.000Z</time>
      </trkpt>
      <trkpt lat="45.21703" lon="5.93071">
        <ele>739.17</ele>
        <time>2022-03-27T16:08:29.000Z</time>
      </trkpt>
      <trkpt lat="45.21719" lon="5.93064">
        <ele>738.44</ele>
        <time>2022-03-27T16:08:34.000Z</time>
      </trkpt>
      <trkpt lat="45.21739" lon="5.93049">
        <ele>741.07</ele>
        <time>2022-03-27T16:08:39.000Z</time>
      </trkpt>
      <trkpt lat="45.2177" lon="5.93032">
        <ele>738.15</ele>
        <time>2022-03-27T16:08:44.000Z</time>
      </trkpt>
      <trkpt lat="45.21801" lon="5.93013">
        <ele>736.87</ele>
        <time>2022-03-27T16:08:49.000Z</time>
      </trkpt>
      <trkpt lat="45.21829" lon="5.92989">
        <ele>733.88</ele>
        <time>2022-03-27T16:08:54.000Z</time>
      </trkpt>
      <trkpt lat="45.21853" lon="5.92961">
        <ele>734.17</ele>
        <time>2022-03-27T16:08:59.000Z</time>
      </trkpt>
      <trkpt lat="45.21876" lon="5.92935">
        <ele>735.79</ele>
        <time>2022-03-27T16:09:04.000Z</time>
      </trkpt>
      <trkpt lat="45.21898" lon="5.92905">
        <ele>735.31</ele>
        <time>2022-03-27T16:09:09.000Z</time>
      </trkpt>
      <trkpt lat="45.21923" lon="5.92888">
        <ele>737.85</ele>
        <time>2022-03-27T16:09:14.000Z</time>
      </trkpt>
      <trkpt lat="45.21947" lon="5.92872">
        <ele>741.88</ele>
        <time>2022-03-27T16:09:19.000Z</time>
      </trkpt>
      <trkpt lat="45.21974" lon="5.92854">
        <ele>742.36</ele>
        <time>2022-03-27T16:09:24.000Z</time>
      </trkpt>
      <trkpt lat="45.22002" lon="5.92836">
        <ele>741.79</ele>
        <time>2022-03-27T16:09:29.000Z</time>
      </trkpt>
      <trkpt lat="45.2203" lon="5.92816">
        <ele>740.44</ele>
        <time>2022-03-27T16:09:34.000Z</time>
      </trkpt>
      <trkpt lat="45.22059" lon="5.92805">
        <ele>740.02</ele>
        <time>2022-03-27T16:09:39.000Z</time>
      </trkpt>
      <trkpt lat="45.22087" lon="5.92799">
        <ele>740.16</ele>
        <time>2022-03-27T16:09:44.000Z</time>
      </trkpt>
      <trkpt lat="45.22114" lon="5.92796">
        <ele>738.21</ele>
        <time>2022-03-27T16:09:49.000Z</time>
      </trkpt>
      <trkpt lat="45.2214" lon="5.92796">
        <ele>737.17</ele>
        <time>2022-03-27T16:09:54.000Z</time>
      </trkpt>
      <trkpt lat="45.22168" lon="5.92791">
        <ele>736.47</ele>
        <time>2022-03-27T16:09:59.000Z</time>
      </trkpt>
      <trkpt lat="45.22199" lon="5.92782">
        <ele>737.21</ele>
        <time>2022-03-27T16:10:04.000Z</time>
      </trkpt>
      <trkpt lat="45.22233" lon="5.92773">
        <ele>735.84</ele>
        <time>2022-03-27T16:10:09.000Z</time>
      </trkpt>
      <trkpt lat="45.22265" lon="5.92763">
        <ele>733.21</ele>
        <time>2022-03-27T16:10:14.000Z</time>
      </trkpt>
      <trkpt lat="45.22298" lon="5.92761">
        <ele>729.3</ele>
        <time>2022-03-27T16:10:19.000Z</time>
      </trkpt>
      <trkpt lat="45.22336" lon="5.92771">
        <ele>725.02</ele>
        <time>2022-03-27T16:10:24.000Z</time>
      </trkpt>
      <trkpt lat="45.22375" lon="5.92783">
        <ele>724.33</ele>
        <time>2022-03-27T16:10:29.000Z</time>
      </trkpt>
      <trkpt lat="45.22416" lon="5.92785">
        <ele>726.87</ele>
        <time>2022-03-27T16:10:34.000Z</time>
      </trkpt>
      <trkpt lat="45.2246" lon="5.92776">
        <ele>727.02</ele>
        <time>2022-03-27T16:10:39.000Z</time>
      </trkpt>
      <trkpt lat="45.22502" lon="5.92768">
        <ele>727.73</ele>
        <time>2022-03-27T16:10:44.000Z</time>
      </trkpt>
      <trkpt lat="45.22538" lon="5.92738">
        <ele>727.45</ele>
        <time>2022-03-27T16:10:49.000Z</time>
      </trkpt>
      <trkpt lat="45.22567" lon="5.92706">
        <ele>728</ele>
        <time>2022-03-27T16:10:54.000Z</time>
      </trkpt>
      <trkpt lat="45.22585" lon="5.9268">
        <ele>728.98</ele>
        <time>2022-03-27T16:10:59.000Z</time>
      </trkpt>
      <trkpt lat="45.22593" lon="5.92654">
        <ele>731.68</ele>
        <time>2022-03-27T16:11:04.000Z</time>
      </trkpt>
      <trkpt lat="45.22595" lon="5.92624">
        <ele>732.17</ele>
        <time>2022-03-27T16:11:09.000Z</time>
      </trkpt>
      <trkpt lat="45.22591" lon="5.9259">
        <ele>733.25</ele>
        <time>2022-03-27T16:11:14.000Z</time>
      </trkpt>
      <trkpt lat="45.22588" lon="5.92556">
        <ele>729.72</ele>
        <time>2022-03-27T16:11:19.000Z</time>
      </trkpt>
      <trkpt lat="45.2259" lon="5.92527">
        <ele>732.38</ele>
        <time>2022-03-27T16:11:24.000Z</time>
      </trkpt>
      <trkpt lat="45.22595" lon="5.92497">
        <ele>730.83</ele>
        <time>2022-03-27T16:11:29.000Z</time>
      </trkpt>
      <trkpt lat="45.22602" lon="5.92474">
        <ele>729.82</ele>
        <time>2022-03-27T16:11:34.000Z</time>
      </trkpt>
      <trkpt lat="45.22609" lon="5.92448">
        <ele>731.8</ele>
        <time>2022-03-27T16:11:39.000Z</time>
      </trkpt>
      <trkpt lat="45.22611" lon="5.92411">
        <ele>737.11</ele>
        <time>2022-03-27T16:11:44.000Z</time>
      </trkpt>
      <trkpt lat="45.2262" lon="5.92393">
        <ele>737.88</ele>
        <time>2022-03-27T16:11:49.000Z</time>
      </trkpt>
      <trkpt lat="45.22625" lon="5.9236">
        <ele>736.2</ele>
        <time>2022-03-27T16:11:54.000Z</time>
      </trkpt>
      <trkpt lat="45.22633" lon="5.92335">
        <ele>733.22</ele>
        <time>2022-03-27T16:11:59.000Z</time>
      </trkpt>
      <trkpt lat="45.22642" lon="5.92306">
        <ele>734.28</ele>
        <time>2022-03-27T16:12:04.000Z</time>
      </trkpt>
      <trkpt lat="45.22657" lon="5.92274">
        <ele>734.1</ele>
        <time>2022-03-27T16:12:09.000Z</time>
      </trkpt>
      <trkpt lat="45.22678" lon="5.9224">
        <ele>733.46</ele>
        <time>2022-03-27T16:12:14.000Z</time>
      </trkpt>
      <trkpt lat="45.22698" lon="5.92198">
        <ele>733.09</ele>
        <time>2022-03-27T16:12:19.000Z</time>
      </trkpt>
      <trkpt lat="45.22722" lon="5.9215">
        <ele>733.1</ele>
        <time>2022-03-27T16:12:24.000Z</time>
      </trkpt>
      <trkpt lat="45.22746" lon="5.92102">
        <ele>732.03</ele>
        <time>2022-03-27T16:12:29.000Z</time>
      </trkpt>
      <trkpt lat="45.22763" lon="5.92049">
        <ele>733.29</ele>
        <time>2022-03-27T16:12:34.000Z</time>
      </trkpt>
      <trkpt lat="45.22761" lon="5.91995">
        <ele>732.97</ele>
        <time>2022-03-27T16:12:39.000Z</time>
      </trkpt>
      <trkpt lat="45.22777" lon="5.9195">
        <ele>732.71</ele>
        <time>2022-03-27T16:12:44.000Z</time>
      </trkpt>
      <trkpt lat="45.22813" lon="5.91936">
        <ele>734.13</ele>
        <time>2022-03-27T16:12:49.000Z</time>
      </trkpt>
      <trkpt lat="45.22844" lon="5.91919">
        <ele>736.22</ele>
        <time>2022-03-27T16:12:54.000Z</time>
      </trkpt>
      <trkpt lat="45.22868" lon="5.91894">
        <ele>736.18</ele>
        <time>2022-03-27T16:12:59.000Z</time>
      </trkpt>
      <trkpt lat="45.22889" lon="5.91871">
        <ele>741.56</ele>
        <time>2022-03-27T16:13:04.000Z</time>
      </trkpt>
      <trkpt lat="45.22905" lon="5.91845">
        <ele>741.9</ele>
        <time>2022-03-27T16:13:09.000Z</time>
      </trkpt>
      <trkpt lat="45.2292" lon="5.91812">
        <ele>737.22</ele>
        <time>2022-03-27T16:13:14.000Z</time>
      </trkpt>
      <trkpt lat="45.2294" lon="5.91785">
        <ele>739.77</ele>
        <time>2022-03-27T16:13:19.000Z</time>
      </trkpt>
      <trkpt lat="45.22955" lon="5.91756">
        <ele>741.63</ele>
        <time>2022-03-27T16:13:24.000Z</time>
      </trkpt>
      <trkpt lat="45.22965" lon="5.91732">
        <ele>741.68</ele>
        <time>2022-03-27T16:13:29.000Z</time>
      </trkpt>
      <trkpt lat="45.22973" lon="5.91701">
        <ele>740.64</ele>
        <time>2022-03-27T16:13:34.000Z</time>
      </trkpt>
      <trkpt lat="45.22977" lon="5.91671">
        <ele>742.6</ele>
        <time>2022-03-27T16:13:39.000Z</time>
      </trkpt>
      <trkpt lat="45.22982" lon="5.91639">
        <ele>739.48</ele>
        <time>2022-03-27T16:13:44.000Z</time>
      </trkpt>
      <trkpt lat="45.22984" lon="5.91609">
        <ele>739.53</ele>
        <time>2022-03-27T16:13:49.000Z</time>
      </trkpt>
      <trkpt lat="45.22975" lon="5.91575">
        <ele>740.48</ele>
        <time>2022-03-27T16:13:54.000Z</time>
      </trkpt>
      <trkpt lat="45.22956" lon="5.91543">
        <ele>738.98</ele>
        <time>2022-03-27T16:13:59.000Z</time>
      </trkpt>
      <trkpt lat="45.2295" lon="5.91507">
        <ele>741.03</ele>
        <time>2022-03-27T16:14:04.000Z</time>
      </trkpt>
      <trkpt lat="45.22949" lon="5.91474">
        <ele>742</ele>
        <time>2022-03-27T16:14:09.000Z</time>
      </trkpt>
      <trkpt lat="45.2295" lon="5.91438">
        <ele>740.22</ele>
        <time>2022-03-27T16:14:14.000Z</time>
      </trkpt>
      <trkpt lat="45.22953" lon="5.91409">
        <ele>740.62</ele>
        <time>2022-03-27T16:14:19.000Z</time>
      </trkpt>
      <trkpt lat="45.22973" lon="5.91387">
        <ele>738.59</ele>
        <time>2022-03-27T16:14:24.000Z</time>
      </trkpt>
      <trkpt lat="45.22979" lon="5.91362">
        <ele>738.8</ele>
        <time>2022-03-27T16:14:29.000Z</time>
      </trkpt>
      <trkpt lat="45.22996" lon="5.91337">
        <ele>742.02</ele>
        <time>2022-03-27T16:14:34.000Z</time>
      </trkpt>
      <trkpt lat="45.23019" lon="5.91303">
        <ele>743.95</ele>
        <time>2022-03-27T16:14:39.000Z</time>
      </trkpt>
      <trkpt lat="45.23055" lon="5.91271">
        <ele>748.16</ele>
        <time>2022-03-27T16:14:44.000Z</time>
      </trkpt>
      <trkpt lat="45.23089" lon="5.91237">
        <ele>745.6</ele>
        <time>2022-03-27T16:14:49.000Z</time>
      </trkpt>
      <trkpt lat="45.23137" lon="5.91206">
        <ele>742.44</ele>
        <time>2022-03-27T16:14:54.000Z</time>
      </trkpt>
      <trkpt lat="45.23187" lon="5.91167">
        <ele>737.4</ele>
        <time>2022-03-27T16:14:59.000Z</time>
      </trkpt>
      <trkpt lat="45.23214" lon="5.91086">
        <ele>733.33</ele>
        <time>2022-03-27T16:15:04.000Z</time>
      </trkpt>
      <trkpt lat="45.23266" lon="5.91025">
        <ele>724.98</ele>
        <time>2022-03-27T16:15:09.000Z</time>
      </trkpt>
      <trkpt lat="45.23314" lon="5.90948">
        <ele>720.79</ele>
        <time>2022-03-27T16:15:14.000Z</time>
      </trkpt>
      <trkpt lat="45.23358" lon="5.90856">
        <ele>714.98</ele>
        <time>2022-03-27T16:15:19.000Z</time>
      </trkpt>
      <trkpt lat="45.23393" lon="5.90763">
        <ele>711.73</ele>
        <time>2022-03-27T16:15:24.000Z</time>
      </trkpt>
      <trkpt lat="45.23428" lon="5.90678">
        <ele>702.14</ele>
        <time>2022-03-27T16:15:29.000Z</time>
      </trkpt>
      <trkpt lat="45.23463" lon="5.90603">
        <ele>698.6</ele>
        <time>2022-03-27T16:15:34.000Z</time>
      </trkpt>
      <trkpt lat="45.23473" lon="5.90521">
        <ele>691.94</ele>
        <time>2022-03-27T16:15:39.000Z</time>
      </trkpt>
      <trkpt lat="45.23484" lon="5.90459">
        <ele>690.28</ele>
        <time>2022-03-27T16:15:44.000Z</time>
      </trkpt>
      <trkpt lat="45.23493" lon="5.90409">
        <ele>690.26</ele>
        <time>2022-03-27T16:15:49.000Z</time>
      </trkpt>
      <trkpt lat="45.23501" lon="5.90365">
        <ele>689.34</ele>
        <time>2022-03-27T16:15:54.000Z</time>
      </trkpt>
      <trkpt lat="45.23495" lon="5.90314">
        <ele>688.48</ele>
        <time>2022-03-27T16:15:59.000Z</time>
      </trkpt>
      <trkpt lat="45.23475" lon="5.9027">
        <ele>689.87</ele>
        <time>2022-03-27T16:16:04.000Z</time>
      </trkpt>
      <trkpt lat="45.23453" lon="5.9025">
        <ele>688.47</ele>
        <time>2022-03-27T16:16:09.000Z</time>
      </trkpt>
      <trkpt lat="45.23443" lon="5.90248">
        <ele>694.17</ele>
        <time>2022-03-27T16:17:12.000Z</time>
      </trkpt>
      <trkpt lat="45.23426" lon="5.90255">
        <ele>692.7</ele>
        <time>2022-03-27T16:17:17.000Z</time>
      </trkpt>
      <trkpt lat="45.23397" lon="5.90266">
        <ele>690.7</ele>
        <time>2022-03-27T16:17:22.000Z</time>
      </trkpt>
      <trkpt lat="45.23367" lon="5.90281">
        <ele>692.18</ele>
        <time>2022-03-27T16:17:27.000Z</time>
      </trkpt>
      <trkpt lat="45.23329" lon="5.90303">
        <ele>690.56</ele>
        <time>2022-03-27T16:17:32.000Z</time>
      </trkpt>
      <trkpt lat="45.23288" lon="5.90328">
        <ele>685.48</ele>
        <time>2022-03-27T16:17:37.000Z</time>
      </trkpt>
      <trkpt lat="45.23239" lon="5.90331">
        <ele>685.63</ele>
        <time>2022-03-27T16:17:42.000Z</time>
      </trkpt>
      <trkpt lat="45.23194" lon="5.90328">
        <ele>685.63</ele>
        <time>2022-03-27T16:17:47.000Z</time>
      </trkpt>
      <trkpt lat="45.23156" lon="5.90327">
        <ele>686.32</ele>
        <time>2022-03-27T16:17:52.000Z</time>
      </trkpt>
      <trkpt lat="45.23118" lon="5.90319">
        <ele>684.84</ele>
        <time>2022-03-27T16:17:57.000Z</time>
      </trkpt>
      <trkpt lat="45.2308" lon="5.90322">
        <ele>685.92</ele>
        <time>2022-03-27T16:18:02.000Z</time>
      </trkpt>
      <trkpt lat="45.23042" lon="5.90332">
        <ele>683.71</ele>
        <time>2022-03-27T16:18:07.000Z</time>
      </trkpt>
      <trkpt lat="45.23004" lon="5.90336">
        <ele>683.47</ele>
        <time>2022-03-27T16:18:12.000Z</time>
      </trkpt>
      <trkpt lat="45.22969" lon="5.90361">
        <ele>681.67</ele>
        <time>2022-03-27T16:18:17.000Z</time>
      </trkpt>
      <trkpt lat="45.22943" lon="5.90342">
        <ele>679.87</ele>
        <time>2022-03-27T16:18:22.000Z</time>
      </trkpt>
      <trkpt lat="45.22934" lon="5.90324">
        <ele>678.92</ele>
        <time>2022-03-27T16:18:27.000Z</time>
      </trkpt>
      <trkpt lat="45.22921" lon="5.90303">
        <ele>676.72</ele>
        <time>2022-03-27T16:18:32.000Z</time>
      </trkpt>
      <trkpt lat="45.22906" lon="5.90293">
        <ele>678.62</ele>
        <time>2022-03-27T16:18:37.000Z</time>
      </trkpt>
      <trkpt lat="45.22887" lon="5.90278">
        <ele>682.66</ele>
        <time>2022-03-27T16:18:42.000Z</time>
      </trkpt>
      <trkpt lat="45.22862" lon="5.90253">
        <ele>682.54</ele>
        <time>2022-03-27T16:18:47.000Z</time>
      </trkpt>
      <trkpt lat="45.22841" lon="5.90241">
        <ele>681.4</ele>
        <time>2022-03-27T16:18:52.000Z</time>
      </trkpt>
      <trkpt lat="45.22816" lon="5.90238">
        <ele>681.24</ele>
        <time>2022-03-27T16:18:57.000Z</time>
      </trkpt>
      <trkpt lat="45.22791" lon="5.9024">
        <ele>680.42</ele>
        <time>2022-03-27T16:19:02.000Z</time>
      </trkpt>
      <trkpt lat="45.22765" lon="5.90241">
        <ele>682.23</ele>
        <time>2022-03-27T16:19:07.000Z</time>
      </trkpt>
      <trkpt lat="45.22738" lon="5.90238">
        <ele>683.4</ele>
        <time>2022-03-27T16:19:12.000Z</time>
      </trkpt>
      <trkpt lat="45.22713" lon="5.9024">
        <ele>683.63</ele>
        <time>2022-03-27T16:19:17.000Z</time>
      </trkpt>
      <trkpt lat="45.22685" lon="5.90253">
        <ele>682.5</ele>
        <time>2022-03-27T16:19:22.000Z</time>
      </trkpt>
      <trkpt lat="45.22654" lon="5.90265">
        <ele>682.54</ele>
        <time>2022-03-27T16:19:27.000Z</time>
      </trkpt>
      <trkpt lat="45.22632" lon="5.90281">
        <ele>683.33</ele>
        <time>2022-03-27T16:19:32.000Z</time>
      </trkpt>
      <trkpt lat="45.2262" lon="5.90315">
        <ele>684.17</ele>
        <time>2022-03-27T16:19:37.000Z</time>
      </trkpt>
      <trkpt lat="45.22607" lon="5.90349">
        <ele>685.86</ele>
        <time>2022-03-27T16:19:42.000Z</time>
      </trkpt>
      <trkpt lat="45.22594" lon="5.90379">
        <ele>686.79</ele>
        <time>2022-03-27T16:19:47.000Z</time>
      </trkpt>
      <trkpt lat="45.22585" lon="5.9042">
        <ele>687.18</ele>
        <time>2022-03-27T16:19:52.000Z</time>
      </trkpt>
      <trkpt lat="45.22581" lon="5.90454">
        <ele>686.62</ele>
        <time>2022-03-27T16:19:57.000Z</time>
      </trkpt>
      <trkpt lat="45.22577" lon="5.90494">
        <ele>683.47</ele>
        <time>2022-03-27T16:20:02.000Z</time>
      </trkpt>
      <trkpt lat="45.2256" lon="5.90518">
        <ele>680.83</ele>
        <time>2022-03-27T16:20:07.000Z</time>
      </trkpt>
      <trkpt lat="45.22543" lon="5.90502">
        <ele>680.57</ele>
        <time>2022-03-27T16:20:12.000Z</time>
      </trkpt>
      <trkpt lat="45.2253" lon="5.90473">
        <ele>682.44</ele>
        <time>2022-03-27T16:20:17.000Z</time>
      </trkpt>
      <trkpt lat="45.2252" lon="5.90451">
        <ele>685.77</ele>
        <time>2022-03-27T16:20:22.000Z</time>
      </trkpt>
      <trkpt lat="45.2251" lon="5.90426">
        <ele>687.34</ele>
        <time>2022-03-27T16:20:27.000Z</time>
      </trkpt>
      <trkpt lat="45.22496" lon="5.90404">
        <ele>685.64</ele>
        <time>2022-03-27T16:20:32.000Z</time>
      </trkpt>
      <trkpt lat="45.22475" lon="5.90394">
        <ele>686.07</ele>
        <time>2022-03-27T16:20:37.000Z</time>
      </trkpt>
      <trkpt lat="45.22455" lon="5.90373">
        <ele>686.16</ele>
        <time>2022-03-27T16:20:42.000Z</time>
      </trkpt>
      <trkpt lat="45.22436" lon="5.90346">
        <ele>688.18</ele>
        <time>2022-03-27T16:20:47.000Z</time>
      </trkpt>
      <trkpt lat="45.22417" lon="5.90321">
        <ele>691.46</ele>
        <time>2022-03-27T16:20:52.000Z</time>
      </trkpt>
      <trkpt lat="45.22407" lon="5.90299">
        <ele>690.6</ele>
        <time>2022-03-27T16:20:57.000Z</time>
      </trkpt>
      <trkpt lat="45.22395" lon="5.90267">
        <ele>695.23</ele>
        <time>2022-03-27T16:21:02.000Z</time>
      </trkpt>
      <trkpt lat="45.22387" lon="5.90241">
        <ele>695.5</ele>
        <time>2022-03-27T16:21:07.000Z</time>
      </trkpt>
      <trkpt lat="45.22378" lon="5.90212">
        <ele>696.93</ele>
        <time>2022-03-27T16:21:12.000Z</time>
      </trkpt>
      <trkpt lat="45.22362" lon="5.9019">
        <ele>696.86</ele>
        <time>2022-03-27T16:21:17.000Z</time>
      </trkpt>
      <trkpt lat="45.22345" lon="5.90172">
        <ele>697.95</ele>
        <time>2022-03-27T16:21:22.000Z</time>
      </trkpt>
      <trkpt lat="45.22323" lon="5.90153">
        <ele>699.92</ele>
        <time>2022-03-27T16:21:27.000Z</time>
      </trkpt>
      <trkpt lat="45.22301" lon="5.90137">
        <ele>700.06</ele>
        <time>2022-03-27T16:21:32.000Z</time>
      </trkpt>
      <trkpt lat="45.2228" lon="5.9012">
        <ele>701.99</ele>
        <time>2022-03-27T16:21:37.000Z</time>
      </trkpt>
      <trkpt lat="45.22254" lon="5.90109">
        <ele>705.86</ele>
        <time>2022-03-27T16:21:42.000Z</time>
      </trkpt>
      <trkpt lat="45.2223" lon="5.90103">
        <ele>711.61</ele>
        <time>2022-03-27T16:21:47.000Z</time>
      </trkpt>
      <trkpt lat="45.22208" lon="5.90117">
        <ele>709.08</ele>
        <time>2022-03-27T16:21:52.000Z</time>
      </trkpt>
      <trkpt lat="45.2219" lon="5.90147">
        <ele>708.9</ele>
        <time>2022-03-27T16:21:57.000Z</time>
      </trkpt>
      <trkpt lat="45.22167" lon="5.90177">
        <ele>710.2</ele>
        <time>2022-03-27T16:22:02.000Z</time>
      </trkpt>
      <trkpt lat="45.22142" lon="5.90198">
        <ele>707.28</ele>
        <time>2022-03-27T16:22:07.000Z</time>
      </trkpt>
      <trkpt lat="45.22113" lon="5.90218">
        <ele>707.27</ele>
        <time>2022-03-27T16:22:12.000Z</time>
      </trkpt>
      <trkpt lat="45.22085" lon="5.90242">
        <ele>705.49</ele>
        <time>2022-03-27T16:22:17.000Z</time>
      </trkpt>
      <trkpt lat="45.22052" lon="5.90249">
        <ele>700.61</ele>
        <time>2022-03-27T16:22:22.000Z</time>
      </trkpt>
      <trkpt lat="45.2202" lon="5.90238">
        <ele>699.5</ele>
        <time>2022-03-27T16:22:27.000Z</time>
      </trkpt>
      <trkpt lat="45.21995" lon="5.90226">
        <ele>698.22</ele>
        <time>2022-03-27T16:22:32.000Z</time>
      </trkpt>
      <trkpt lat="45.21975" lon="5.90212">
        <ele>698.51</ele>
        <time>2022-03-27T16:22:37.000Z</time>
      </trkpt>
      <trkpt lat="45.21952" lon="5.9019">
        <ele>697.45</ele>
        <time>2022-03-27T16:22:42.000Z</time>
      </trkpt>
      <trkpt lat="45.21939" lon="5.90164">
        <ele>699.29</ele>
        <time>2022-03-27T16:22:47.000Z</time>
      </trkpt>
      <trkpt lat="45.21925" lon="5.90132">
        <ele>703.23</ele>
        <time>2022-03-27T16:22:52.000Z</time>
      </trkpt>
      <trkpt lat="45.21931" lon="5.901">
        <ele>708.64</ele>
        <time>2022-03-27T16:22:57.000Z</time>
      </trkpt>
      <trkpt lat="45.21934" lon="5.90065">
        <ele>710.35</ele>
        <time>2022-03-27T16:23:02.000Z</time>
      </trkpt>
      <trkpt lat="45.21927" lon="5.90037">
        <ele>713.4</ele>
        <time>2022-03-27T16:23:07.000Z</time>
      </trkpt>
      <trkpt lat="45.21914" lon="5.9002">
        <ele>712.11</ele>
        <time>2022-03-27T16:23:12.000Z</time>
      </trkpt>
      <trkpt lat="45.21893" lon="5.90006">
        <ele>711.67</ele>
        <time>2022-03-27T16:23:17.000Z</time>
      </trkpt>
      <trkpt lat="45.21874" lon="5.89993">
        <ele>715.03</ele>
        <time>2022-03-27T16:23:22.000Z</time>
      </trkpt>
      <trkpt lat="45.21841" lon="5.89979">
        <ele>716.18</ele>
        <time>2022-03-27T16:23:27.000Z</time>
      </trkpt>
      <trkpt lat="45.21807" lon="5.89964">
        <ele>719.69</ele>
        <time>2022-03-27T16:23:32.000Z</time>
      </trkpt>
      <trkpt lat="45.21782" lon="5.89953">
        <ele>718.64</ele>
        <time>2022-03-27T16:23:37.000Z</time>
      </trkpt>
      <trkpt lat="45.21759" lon="5.89931">
        <ele>720.45</ele>
        <time>2022-03-27T16:23:42.000Z</time>
      </trkpt>
      <trkpt lat="45.21733" lon="5.89917">
        <ele>721.64</ele>
        <time>2022-03-27T16:23:47.000Z</time>
      </trkpt>
      <trkpt lat="45.21709" lon="5.89902">
        <ele>721.69</ele>
        <time>2022-03-27T16:23:52.000Z</time>
      </trkpt>
      <trkpt lat="45.21687" lon="5.89883">
        <ele>721.51</ele>
        <time>2022-03-27T16:23:57.000Z</time>
      </trkpt>
      <trkpt lat="45.21659" lon="5.89857">
        <ele>719.24</ele>
        <time>2022-03-27T16:24:02.000Z</time>
      </trkpt>
      <trkpt lat="45.21626" lon="5.89831">
        <ele>715.89</ele>
        <time>2022-03-27T16:24:07.000Z</time>
      </trkpt>
      <trkpt lat="45.21597" lon="5.8981">
        <ele>715.83</ele>
        <time>2022-03-27T16:24:12.000Z</time>
      </trkpt>
      <trkpt lat="45.21569" lon="5.89791">
        <ele>718.21</ele>
        <time>2022-03-27T16:24:17.000Z</time>
      </trkpt>
      <trkpt lat="45.21537" lon="5.89767">
        <ele>721.49</ele>
        <time>2022-03-27T16:24:22.000Z</time>
      </trkpt>
      <trkpt lat="45.21509" lon="5.89749">
        <ele>723.43</ele>
        <time>2022-03-27T16:24:27.000Z</time>
      </trkpt>
      <trkpt lat="45.21479" lon="5.89733">
        <ele>724.83</ele>
        <time>2022-03-27T16:24:32.000Z</time>
      </trkpt>
      <trkpt lat="45.2145" lon="5.89723">
        <ele>727.37</ele>
        <time>2022-03-27T16:24:37.000Z</time>
      </trkpt>
      <trkpt lat="45.21421" lon="5.89723">
        <ele>729.03</ele>
        <time>2022-03-27T16:24:42.000Z</time>
      </trkpt>
      <trkpt lat="45.21393" lon="5.8973">
        <ele>729.16</ele>
        <time>2022-03-27T16:24:47.000Z</time>
      </trkpt>
      <trkpt lat="45.21362" lon="5.89745">
        <ele>729.35</ele>
        <time>2022-03-27T16:24:52.000Z</time>
      </trkpt>
      <trkpt lat="45.21332" lon="5.89761">
        <ele>729.57</ele>
        <time>2022-03-27T16:24:57.000Z</time>
      </trkpt>
      <trkpt lat="45.21301" lon="5.89779">
        <ele>733.96</ele>
        <time>2022-03-27T16:25:02.000Z</time>
      </trkpt>
      <trkpt lat="45.21274" lon="5.89783">
        <ele>736.46</ele>
        <time>2022-03-27T16:25:07.000Z</time>
      </trkpt>
      <trkpt lat="45.21247" lon="5.89784">
        <ele>736.4</ele>
        <time>2022-03-27T16:25:12.000Z</time>
      </trkpt>
      <trkpt lat="45.21222" lon="5.89785">
        <ele>740.48</ele>
        <time>2022-03-27T16:25:17.000Z</time>
      </trkpt>
      <trkpt lat="45.21195" lon="5.89767">
        <ele>741.93</ele>
        <time>2022-03-27T16:25:22.000Z</time>
      </trkpt>
      <trkpt lat="45.21165" lon="5.89752">
        <ele>743.56</ele>
        <time>2022-03-27T16:25:27.000Z</time>
      </trkpt>
      <trkpt lat="45.21137" lon="5.8976">
        <ele>745.78</ele>
        <time>2022-03-27T16:25:32.000Z</time>
      </trkpt>
      <trkpt lat="45.21114" lon="5.89775">
        <ele>747.28</ele>
        <time>2022-03-27T16:25:37.000Z</time>
      </trkpt>
      <trkpt lat="45.21089" lon="5.89775">
        <ele>746.46</ele>
        <time>2022-03-27T16:25:42.000Z</time>
      </trkpt>
      <trkpt lat="45.21066" lon="5.89758">
        <ele>742.87</ele>
        <time>2022-03-27T16:25:47.000Z</time>
      </trkpt>
      <trkpt lat="45.2103" lon="5.89765">
        <ele>744</ele>
        <time>2022-03-27T16:25:52.000Z</time>
      </trkpt>
      <trkpt lat="45.20992" lon="5.89775">
        <ele>745.95</ele>
        <time>2022-03-27T16:25:57.000Z</time>
      </trkpt>
      <trkpt lat="45.20966" lon="5.89749">
        <ele>748.51</ele>
        <time>2022-03-27T16:26:02.000Z</time>
      </trkpt>
      <trkpt lat="45.20976" lon="5.89711">
        <ele>749.74</ele>
        <time>2022-03-27T16:26:07.000Z</time>
      </trkpt>
      <trkpt lat="45.20996" lon="5.89679">
        <ele>750.04</ele>
        <time>2022-03-27T16:26:12.000Z</time>
      </trkpt>
      <trkpt lat="45.21015" lon="5.89636">
        <ele>748.72</ele>
        <time>2022-03-27T16:26:17.000Z</time>
      </trkpt>
      <trkpt lat="45.21022" lon="5.89587">
        <ele>752.58</ele>
        <time>2022-03-27T16:26:22.000Z</time>
      </trkpt>
      <trkpt lat="45.21023" lon="5.89543">
        <ele>754.06</ele>
        <time>2022-03-27T16:26:27.000Z</time>
      </trkpt>
      <trkpt lat="45.21022" lon="5.89491">
        <ele>755.29</ele>
        <time>2022-03-27T16:26:32.000Z</time>
      </trkpt>
      <trkpt lat="45.21038" lon="5.89453">
        <ele>755.92</ele>
        <time>2022-03-27T16:26:37.000Z</time>
      </trkpt>
      <trkpt lat="45.21058" lon="5.89416">
        <ele>758.18</ele>
        <time>2022-03-27T16:26:42.000Z</time>
      </trkpt>
      <trkpt lat="45.21079" lon="5.89374">
        <ele>755.77</ele>
        <time>2022-03-27T16:26:47.000Z</time>
      </trkpt>
      <trkpt lat="45.21101" lon="5.89338">
        <ele>756.89</ele>
        <time>2022-03-27T16:26:52.000Z</time>
      </trkpt>
      <trkpt lat="45.21126" lon="5.89307">
        <ele>761.75</ele>
        <time>2022-03-27T16:26:57.000Z</time>
      </trkpt>
      <trkpt lat="45.21153" lon="5.89299">
        <ele>763.23</ele>
        <time>2022-03-27T16:27:02.000Z</time>
      </trkpt>
      <trkpt lat="45.21178" lon="5.89285">
        <ele>762.38</ele>
        <time>2022-03-27T16:27:07.000Z</time>
      </trkpt>
      <trkpt lat="45.21193" lon="5.89247">
        <ele>762.89</ele>
        <time>2022-03-27T16:27:12.000Z</time>
      </trkpt>
      <trkpt lat="45.21205" lon="5.89213">
        <ele>761.28</ele>
        <time>2022-03-27T16:27:17.000Z</time>
      </trkpt>
      <trkpt lat="45.21229" lon="5.89189">
        <ele>762.59</ele>
        <time>2022-03-27T16:27:22.000Z</time>
      </trkpt>
      <trkpt lat="45.21256" lon="5.89175">
        <ele>766.46</ele>
        <time>2022-03-27T16:27:27.000Z</time>
      </trkpt>
      <trkpt lat="45.21279" lon="5.89165">
        <ele>768.1</ele>
        <time>2022-03-27T16:27:32.000Z</time>
      </trkpt>
      <trkpt lat="45.21306" lon="5.89157">
        <ele>771.16</ele>
        <time>2022-03-27T16:27:37.000Z</time>
      </trkpt>
      <trkpt lat="45.21334" lon="5.89139">
        <ele>772.14</ele>
        <time>2022-03-27T16:27:42.000Z</time>
      </trkpt>
      <trkpt lat="45.21357" lon="5.89124">
        <ele>773.65</ele>
        <time>2022-03-27T16:27:47.000Z</time>
      </trkpt>
      <trkpt lat="45.21386" lon="5.89104">
        <ele>775.27</ele>
        <time>2022-03-27T16:27:52.000Z</time>
      </trkpt>
      <trkpt lat="45.21411" lon="5.89091">
        <ele>780.35</ele>
        <time>2022-03-27T16:27:57.000Z</time>
      </trkpt>
      <trkpt lat="45.21439" lon="5.89071">
        <ele>786.67</ele>
        <time>2022-03-27T16:28:02.000Z</time>
      </trkpt>
      <trkpt lat="45.21469" lon="5.89057">
        <ele>783.99</ele>
        <time>2022-03-27T16:28:07.000Z</time>
      </trkpt>
      <trkpt lat="45.21498" lon="5.89042">
        <ele>785.48</ele>
        <time>2022-03-27T16:28:12.000Z</time>
      </trkpt>
      <trkpt lat="45.21527" lon="5.89034">
        <ele>787.86</ele>
        <time>2022-03-27T16:28:17.000Z</time>
      </trkpt>
      <trkpt lat="45.21553" lon="5.89022">
        <ele>787.25</ele>
        <time>2022-03-27T16:28:22.000Z</time>
      </trkpt>
      <trkpt lat="45.21581" lon="5.89013">
        <ele>793.21</ele>
        <time>2022-03-27T16:28:27.000Z</time>
      </trkpt>
      <trkpt lat="45.21607" lon="5.88984">
        <ele>789.13</ele>
        <time>2022-03-27T16:28:32.000Z</time>
      </trkpt>
      <trkpt lat="45.21635" lon="5.88967">
        <ele>792</ele>
        <time>2022-03-27T16:28:37.000Z</time>
      </trkpt>
      <trkpt lat="45.2166" lon="5.88943">
        <ele>791.41</ele>
        <time>2022-03-27T16:28:42.000Z</time>
      </trkpt>
      <trkpt lat="45.21685" lon="5.88923">
        <ele>792.23</ele>
        <time>2022-03-27T16:28:47.000Z</time>
      </trkpt>
      <trkpt lat="45.21705" lon="5.88893">
        <ele>795.28</ele>
        <time>2022-03-27T16:28:52.000Z</time>
      </trkpt>
      <trkpt lat="45.21703" lon="5.8886">
        <ele>799.46</ele>
        <time>2022-03-27T16:28:57.000Z</time>
      </trkpt>
      <trkpt lat="45.217" lon="5.88846">
        <ele>797.14</ele>
        <time>2022-03-27T16:29:02.000Z</time>
      </trkpt>
      <trkpt lat="45.21691" lon="5.8885">
        <ele>798.2</ele>
        <time>2022-03-27T16:32:11.000Z</time>
      </trkpt>
      <trkpt lat="45.21682" lon="5.88849">
        <ele>796.32</ele>
        <time>2022-03-27T16:32:47.000Z</time>
      </trkpt>
      <trkpt lat="45.21671" lon="5.88842">
        <ele>796.19</ele>
        <time>2022-03-27T16:32:52.000Z</time>
      </trkpt>
      <trkpt lat="45.21644" lon="5.88828">
        <ele>795.62</ele>
        <time>2022-03-27T16:32:57.000Z</time>
      </trkpt>
      <trkpt lat="45.2161" lon="5.88807">
        <ele>791.17</ele>
        <time>2022-03-27T16:33:02.000Z</time>
      </trkpt>
      <trkpt lat="45.2158" lon="5.88766">
        <ele>790.58</ele>
        <time>2022-03-27T16:33:07.000Z</time>
      </trkpt>
      <trkpt lat="45.2153" lon="5.88716">
        <ele>787.47</ele>
        <time>2022-03-27T16:33:12.000Z</time>
      </trkpt>
      <trkpt lat="45.21493" lon="5.88643">
        <ele>784.55</ele>
        <time>2022-03-27T16:33:17.000Z</time>
      </trkpt>
      <trkpt lat="45.21457" lon="5.88563">
        <ele>778.8</ele>
        <time>2022-03-27T16:33:22.000Z</time>
      </trkpt>
      <trkpt lat="45.21429" lon="5.88471">
        <ele>776.41</ele>
        <time>2022-03-27T16:33:27.000Z</time>
      </trkpt>
      <trkpt lat="45.21426" lon="5.8837">
        <ele>775.4</ele>
        <time>2022-03-27T16:33:32.000Z</time>
      </trkpt>
      <trkpt lat="45.21396" lon="5.88296">
        <ele>772.36</ele>
        <time>2022-03-27T16:33:37.000Z</time>
      </trkpt>
      <trkpt lat="45.21331" lon="5.88335">
        <ele>768.91</ele>
        <time>2022-03-27T16:33:42.000Z</time>
      </trkpt>
      <trkpt lat="45.21274" lon="5.8835">
        <ele>764.07</ele>
        <time>2022-03-27T16:33:47.000Z</time>
      </trkpt>
      <trkpt lat="45.21222" lon="5.88353">
        <ele>765.46</ele>
        <time>2022-03-27T16:33:52.000Z</time>
      </trkpt>
      <trkpt lat="45.21169" lon="5.88357">
        <ele>760.94</ele>
        <time>2022-03-27T16:33:57.000Z</time>
      </trkpt>
      <trkpt lat="45.21124" lon="5.88345">
        <ele>760.97</ele>
        <time>2022-03-27T16:34:02.000Z</time>
      </trkpt>
      <trkpt lat="45.21085" lon="5.88322">
        <ele>761.3</ele>
        <time>2022-03-27T16:34:07.000Z</time>
      </trkpt>
      <trkpt lat="45.21052" lon="5.88293">
        <ele>756.76</ele>
        <time>2022-03-27T16:34:12.000Z</time>
      </trkpt>
      <trkpt lat="45.21013" lon="5.88281">
        <ele>755.98</ele>
        <time>2022-03-27T16:34:17.000Z</time>
      </trkpt>
      <trkpt lat="45.20978" lon="5.88278">
        <ele>752.62</ele>
        <time>2022-03-27T16:34:22.000Z</time>
      </trkpt>
      <trkpt lat="45.2094" lon="5.88269">
        <ele>751.86</ele>
        <time>2022-03-27T16:34:27.000Z</time>
      </trkpt>
      <trkpt lat="45.20903" lon="5.88262">
        <ele>749.62</ele>
        <time>2022-03-27T16:34:32.000Z</time>
      </trkpt>
      <trkpt lat="45.20873" lon="5.88264">
        <ele>750.39</ele>
        <time>2022-03-27T16:34:37.000Z</time>
      </trkpt>
      <trkpt lat="45.20863" lon="5.88263">
        <ele>750.39</ele>
        <time>2022-03-27T16:34:46.000Z</time>
      </trkpt>
      <trkpt lat="45.20858" lon="5.88274">
        <ele>750.48</ele>
        <time>2022-03-27T16:35:04.000Z</time>
      </trkpt>
      <trkpt lat="45.20841" lon="5.88296">
        <ele>746.62</ele>
        <time>2022-03-27T16:35:09.000Z</time>
      </trkpt>
      <trkpt lat="45.2081" lon="5.88313">
        <ele>744.2</ele>
        <time>2022-03-27T16:35:14.000Z</time>
      </trkpt>
      <trkpt lat="45.2077" lon="5.88337">
        <ele>742.72</ele>
        <time>2022-03-27T16:35:19.000Z</time>
      </trkpt>
      <trkpt lat="45.20722" lon="5.8834">
        <ele>738.4</ele>
        <time>2022-03-27T16:35:24.000Z</time>
      </trkpt>
      <trkpt lat="45.20674" lon="5.88309">
        <ele>735.95</ele>
        <time>2022-03-27T16:35:29.000Z</time>
      </trkpt>
      <trkpt lat="45.2064" lon="5.88246">
        <ele>737.51</ele>
        <time>2022-03-27T16:35:34.000Z</time>
      </trkpt>
      <trkpt lat="45.20605" lon="5.88199">
        <ele>733.48</ele>
        <time>2022-03-27T16:35:39.000Z</time>
      </trkpt>
      <trkpt lat="45.20583" lon="5.88147">
        <ele>730.94</ele>
        <time>2022-03-27T16:35:44.000Z</time>
      </trkpt>
      <trkpt lat="45.20551" lon="5.88128">
        <ele>724.92</ele>
        <time>2022-03-27T16:35:49.000Z</time>
      </trkpt>
      <trkpt lat="45.20519" lon="5.88135">
        <ele>718.93</ele>
        <time>2022-03-27T16:35:54.000Z</time>
      </trkpt>
      <trkpt lat="45.20493" lon="5.88144">
        <ele>717.92</ele>
        <time>2022-03-27T16:35:59.000Z</time>
      </trkpt>
      <trkpt lat="45.20465" lon="5.8814">
        <ele>717.2</ele>
        <time>2022-03-27T16:36:04.000Z</time>
      </trkpt>
      <trkpt lat="45.20436" lon="5.88136">
        <ele>715.46</ele>
        <time>2022-03-27T16:36:09.000Z</time>
      </trkpt>
      <trkpt lat="45.20407" lon="5.88131">
        <ele>715.96</ele>
        <time>2022-03-27T16:36:14.000Z</time>
      </trkpt>
      <trkpt lat="45.20376" lon="5.8814">
        <ele>717.68</ele>
        <time>2022-03-27T16:36:19.000Z</time>
      </trkpt>
      <trkpt lat="45.2035" lon="5.88155">
        <ele>715.46</ele>
        <time>2022-03-27T16:36:24.000Z</time>
      </trkpt>
      <trkpt lat="45.20325" lon="5.88176">
        <ele>717.23</ele>
        <time>2022-03-27T16:36:29.000Z</time>
      </trkpt>
      <trkpt lat="45.20307" lon="5.882">
        <ele>713.55</ele>
        <time>2022-03-27T16:36:34.000Z</time>
      </trkpt>
      <trkpt lat="45.2029" lon="5.8821">
        <ele>714.83</ele>
        <time>2022-03-27T16:36:39.000Z</time>
      </trkpt>
      <trkpt lat="45.20269" lon="5.88216">
        <ele>718.3</ele>
        <time>2022-03-27T16:36:44.000Z</time>
      </trkpt>
      <trkpt lat="45.20248" lon="5.88219">
        <ele>719.89</ele>
        <time>2022-03-27T16:36:49.000Z</time>
      </trkpt>
      <trkpt lat="45.20229" lon="5.88213">
        <ele>726.23</ele>
        <time>2022-03-27T16:36:54.000Z</time>
      </trkpt>
      <trkpt lat="45.20211" lon="5.88203">
        <ele>724.57</ele>
        <time>2022-03-27T16:36:59.000Z</time>
      </trkpt>
      <trkpt lat="45.20189" lon="5.88182">
        <ele>726.39</ele>
        <time>2022-03-27T16:37:04.000Z</time>
      </trkpt>
      <trkpt lat="45.20175" lon="5.88167">
        <ele>723.28</ele>
        <time>2022-03-27T16:37:09.000Z</time>
      </trkpt>
      <trkpt lat="45.20163" lon="5.88151">
        <ele>724.67</ele>
        <time>2022-03-27T16:37:14.000Z</time>
      </trkpt>
      <trkpt lat="45.20154" lon="5.88125">
        <ele>725.79</ele>
        <time>2022-03-27T16:37:19.000Z</time>
      </trkpt>
      <trkpt lat="45.2015" lon="5.88096">
        <ele>725.75</ele>
        <time>2022-03-27T16:37:24.000Z</time>
      </trkpt>
      <trkpt lat="45.20154" lon="5.88076">
        <ele>725.5</ele>
        <time>2022-03-27T16:37:29.000Z</time>
      </trkpt>
      <trkpt lat="45.20153" lon="5.88048">
        <ele>722.73</ele>
        <time>2022-03-27T16:37:34.000Z</time>
      </trkpt>
      <trkpt lat="45.2015" lon="5.88016">
        <ele>728.03</ele>
        <time>2022-03-27T16:37:39.000Z</time>
      </trkpt>
      <trkpt lat="45.20147" lon="5.87984">
        <ele>733.66</ele>
        <time>2022-03-27T16:37:44.000Z</time>
      </trkpt>
      <trkpt lat="45.20143" lon="5.87955">
        <ele>737.65</ele>
        <time>2022-03-27T16:37:49.000Z</time>
      </trkpt>
      <trkpt lat="45.20138" lon="5.87924">
        <ele>738.41</ele>
        <time>2022-03-27T16:37:54.000Z</time>
      </trkpt>
      <trkpt lat="45.2013" lon="5.87896">
        <ele>740.28</ele>
        <time>2022-03-27T16:37:59.000Z</time>
      </trkpt>
      <trkpt lat="45.20123" lon="5.87864">
        <ele>741.09</ele>
        <time>2022-03-27T16:38:04.000Z</time>
      </trkpt>
      <trkpt lat="45.2012" lon="5.87836">
        <ele>739.85</ele>
        <time>2022-03-27T16:38:09.000Z</time>
      </trkpt>
      <trkpt lat="45.20117" lon="5.87807">
        <ele>741.31</ele>
        <time>2022-03-27T16:38:14.000Z</time>
      </trkpt>
      <trkpt lat="45.20121" lon="5.87776">
        <ele>745.38</ele>
        <time>2022-03-27T16:38:19.000Z</time>
      </trkpt>
      <trkpt lat="45.20125" lon="5.87748">
        <ele>742.67</ele>
        <time>2022-03-27T16:38:24.000Z</time>
      </trkpt>
      <trkpt lat="45.2013" lon="5.87717">
        <ele>744.82</ele>
        <time>2022-03-27T16:38:29.000Z</time>
      </trkpt>
      <trkpt lat="45.20133" lon="5.87685">
        <ele>752.77</ele>
        <time>2022-03-27T16:38:34.000Z</time>
      </trkpt>
      <trkpt lat="45.20137" lon="5.87662">
        <ele>755.07</ele>
        <time>2022-03-27T16:38:39.000Z</time>
      </trkpt>
      <trkpt lat="45.20137" lon="5.87635">
        <ele>760.19</ele>
        <time>2022-03-27T16:38:44.000Z</time>
      </trkpt>
      <trkpt lat="45.20131" lon="5.87607">
        <ele>765.27</ele>
        <time>2022-03-27T16:38:49.000Z</time>
      </trkpt>
      <trkpt lat="45.20124" lon="5.87584">
        <ele>767.27</ele>
        <time>2022-03-27T16:38:54.000Z</time>
      </trkpt>
      <trkpt lat="45.20112" lon="5.87557">
        <ele>767.17</ele>
        <time>2022-03-27T16:38:59.000Z</time>
      </trkpt>
      <trkpt lat="45.20105" lon="5.87526">
        <ele>767.84</ele>
        <time>2022-03-27T16:39:04.000Z</time>
      </trkpt>
      <trkpt lat="45.20106" lon="5.87498">
        <ele>768.73</ele>
        <time>2022-03-27T16:39:09.000Z</time>
      </trkpt>
      <trkpt lat="45.2011" lon="5.8747">
        <ele>768.94</ele>
        <time>2022-03-27T16:39:14.000Z</time>
      </trkpt>
      <trkpt lat="45.20123" lon="5.87443">
        <ele>771.19</ele>
        <time>2022-03-27T16:39:19.000Z</time>
      </trkpt>
      <trkpt lat="45.20138" lon="5.87421">
        <ele>772.23</ele>
        <time>2022-03-27T16:39:24.000Z</time>
      </trkpt>
      <trkpt lat="45.2015" lon="5.87399">
        <ele>774.87</ele>
        <time>2022-03-27T16:39:29.000Z</time>
      </trkpt>
      <trkpt lat="45.20153" lon="5.87373">
        <ele>776.94</ele>
        <time>2022-03-27T16:39:34.000Z</time>
      </trkpt>
      <trkpt lat="45.2015" lon="5.87347">
        <ele>782.27</ele>
        <time>2022-03-27T16:39:39.000Z</time>
      </trkpt>
      <trkpt lat="45.20144" lon="5.87319">
        <ele>784.63</ele>
        <time>2022-03-27T16:39:44.000Z</time>
      </trkpt>
      <trkpt lat="45.20134" lon="5.87293">
        <ele>786.42</ele>
        <time>2022-03-27T16:39:49.000Z</time>
      </trkpt>
      <trkpt lat="45.20123" lon="5.87269">
        <ele>787.87</ele>
        <time>2022-03-27T16:39:54.000Z</time>
      </trkpt>
      <trkpt lat="45.20114" lon="5.87241">
        <ele>786.55</ele>
        <time>2022-03-27T16:39:59.000Z</time>
      </trkpt>
      <trkpt lat="45.20106" lon="5.87216">
        <ele>786.23</ele>
        <time>2022-03-27T16:40:04.000Z</time>
      </trkpt>
      <trkpt lat="45.20096" lon="5.87193">
        <ele>786.71</ele>
        <time>2022-03-27T16:40:09.000Z</time>
      </trkpt>
      <trkpt lat="45.20089" lon="5.87172">
        <ele>786.22</ele>
        <time>2022-03-27T16:40:14.000Z</time>
      </trkpt>
      <trkpt lat="45.2008" lon="5.87148">
        <ele>785.83</ele>
        <time>2022-03-27T16:40:19.000Z</time>
      </trkpt>
      <trkpt lat="45.20077" lon="5.87125">
        <ele>785.78</ele>
        <time>2022-03-27T16:40:24.000Z</time>
      </trkpt>
      <trkpt lat="45.20074" lon="5.87105">
        <ele>786.17</ele>
        <time>2022-03-27T16:40:29.000Z</time>
      </trkpt>
      <trkpt lat="45.20069" lon="5.87083">
        <ele>788.97</ele>
        <time>2022-03-27T16:40:34.000Z</time>
      </trkpt>
      <trkpt lat="45.20074" lon="5.87061">
        <ele>796.5</ele>
        <time>2022-03-27T16:40:39.000Z</time>
      </trkpt>
      <trkpt lat="45.20078" lon="5.87035">
        <ele>801.13</ele>
        <time>2022-03-27T16:40:44.000Z</time>
      </trkpt>
      <trkpt lat="45.20081" lon="5.87012">
        <ele>800.58</ele>
        <time>2022-03-27T16:40:49.000Z</time>
      </trkpt>
      <trkpt lat="45.20086" lon="5.86986">
        <ele>799.7</ele>
        <time>2022-03-27T16:40:54.000Z</time>
      </trkpt>
      <trkpt lat="45.20089" lon="5.86956">
        <ele>797.1</ele>
        <time>2022-03-27T16:40:59.000Z</time>
      </trkpt>
      <trkpt lat="45.20087" lon="5.86922">
        <ele>790.69</ele>
        <time>2022-03-27T16:41:04.000Z</time>
      </trkpt>
      <trkpt lat="45.2008" lon="5.86889">
        <ele>798.5</ele>
        <time>2022-03-27T16:41:09.000Z</time>
      </trkpt>
      <trkpt lat="45.20067" lon="5.86855">
        <ele>804.17</ele>
        <time>2022-03-27T16:41:14.000Z</time>
      </trkpt>
      <trkpt lat="45.20053" lon="5.86824">
        <ele>813.1</ele>
        <time>2022-03-27T16:41:19.000Z</time>
      </trkpt>
      <trkpt lat="45.20041" lon="5.86797">
        <ele>816.29</ele>
        <time>2022-03-27T16:41:24.000Z</time>
      </trkpt>
      <trkpt lat="45.20028" lon="5.86767">
        <ele>813.16</ele>
        <time>2022-03-27T16:41:29.000Z</time>
      </trkpt>
      <trkpt lat="45.20012" lon="5.8674">
        <ele>814.12</ele>
        <time>2022-03-27T16:41:34.000Z</time>
      </trkpt>
      <trkpt lat="45.19998" lon="5.86722">
        <ele>818.17</ele>
        <time>2022-03-27T16:41:39.000Z</time>
      </trkpt>
      <trkpt lat="45.1998" lon="5.86713">
        <ele>818.38</ele>
        <time>2022-03-27T16:41:44.000Z</time>
      </trkpt>
      <trkpt lat="45.19961" lon="5.86711">
        <ele>821.67</ele>
        <time>2022-03-27T16:41:49.000Z</time>
      </trkpt>
      <trkpt lat="45.1994" lon="5.86711">
        <ele>820.81</ele>
        <time>2022-03-27T16:41:54.000Z</time>
      </trkpt>
      <trkpt lat="45.19919" lon="5.86716">
        <ele>821.88</ele>
        <time>2022-03-27T16:41:59.000Z</time>
      </trkpt>
      <trkpt lat="45.19896" lon="5.86717">
        <ele>823.61</ele>
        <time>2022-03-27T16:42:04.000Z</time>
      </trkpt>
      <trkpt lat="45.19875" lon="5.86721">
        <ele>823.21</ele>
        <time>2022-03-27T16:42:09.000Z</time>
      </trkpt>
      <trkpt lat="45.19856" lon="5.86722">
        <ele>822.68</ele>
        <time>2022-03-27T16:42:14.000Z</time>
      </trkpt>
      <trkpt lat="45.19837" lon="5.86724">
        <ele>826.18</ele>
        <time>2022-03-27T16:42:19.000Z</time>
      </trkpt>
      <trkpt lat="45.19817" lon="5.86717">
        <ele>831.25</ele>
        <time>2022-03-27T16:42:24.000Z</time>
      </trkpt>
      <trkpt lat="45.19797" lon="5.86714">
        <ele>835.28</ele>
        <time>2022-03-27T16:42:29.000Z</time>
      </trkpt>
      <trkpt lat="45.19778" lon="5.86712">
        <ele>836.03</ele>
        <time>2022-03-27T16:42:34.000Z</time>
      </trkpt>
      <trkpt lat="45.19758" lon="5.8671">
        <ele>836.89</ele>
        <time>2022-03-27T16:42:39.000Z</time>
      </trkpt>
      <trkpt lat="45.19738" lon="5.86716">
        <ele>841.14</ele>
        <time>2022-03-27T16:42:44.000Z</time>
      </trkpt>
      <trkpt lat="45.19722" lon="5.86732">
        <ele>845.71</ele>
        <time>2022-03-27T16:42:49.000Z</time>
      </trkpt>
      <trkpt lat="45.19717" lon="5.86761">
        <ele>846.87</ele>
        <time>2022-03-27T16:42:54.000Z</time>
      </trkpt>
      <trkpt lat="45.19718" lon="5.86793">
        <ele>850.23</ele>
        <time>2022-03-27T16:42:59.000Z</time>
      </trkpt>
      <trkpt lat="45.19715" lon="5.86821">
        <ele>851.12</ele>
        <time>2022-03-27T16:43:04.000Z</time>
      </trkpt>
      <trkpt lat="45.19701" lon="5.86843">
        <ele>852.71</ele>
        <time>2022-03-27T16:43:09.000Z</time>
      </trkpt>
      <trkpt lat="45.19683" lon="5.86853">
        <ele>857</ele>
        <time>2022-03-27T16:43:14.000Z</time>
      </trkpt>
      <trkpt lat="45.19666" lon="5.8685">
        <ele>857.37</ele>
        <time>2022-03-27T16:43:19.000Z</time>
      </trkpt>
      <trkpt lat="45.19648" lon="5.8685">
        <ele>855.65</ele>
        <time>2022-03-27T16:43:24.000Z</time>
      </trkpt>
      <trkpt lat="45.19631" lon="5.86851">
        <ele>858.96</ele>
        <time>2022-03-27T16:43:29.000Z</time>
      </trkpt>
      <trkpt lat="45.1961" lon="5.8685">
        <ele>862.14</ele>
        <time>2022-03-27T16:43:34.000Z</time>
      </trkpt>
      <trkpt lat="45.19591" lon="5.86853">
        <ele>863.6</ele>
        <time>2022-03-27T16:43:39.000Z</time>
      </trkpt>
      <trkpt lat="45.19569" lon="5.86858">
        <ele>863.05</ele>
        <time>2022-03-27T16:43:44.000Z</time>
      </trkpt>
      <trkpt lat="45.19549" lon="5.86871">
        <ele>861.77</ele>
        <time>2022-03-27T16:43:49.000Z</time>
      </trkpt>
      <trkpt lat="45.19534" lon="5.86903">
        <ele>861.73</ele>
        <time>2022-03-27T16:43:54.000Z</time>
      </trkpt>
      <trkpt lat="45.19531" lon="5.86928">
        <ele>863.78</ele>
        <time>2022-03-27T16:43:59.000Z</time>
      </trkpt>
      <trkpt lat="45.19532" lon="5.86958">
        <ele>867.7</ele>
        <time>2022-03-27T16:44:04.000Z</time>
      </trkpt>
      <trkpt lat="45.19536" lon="5.86985">
        <ele>866.71</ele>
        <time>2022-03-27T16:44:09.000Z</time>
      </trkpt>
      <trkpt lat="45.19545" lon="5.87015">
        <ele>870.04</ele>
        <time>2022-03-27T16:44:14.000Z</time>
      </trkpt>
      <trkpt lat="45.19557" lon="5.87044">
        <ele>870.99</ele>
        <time>2022-03-27T16:44:19.000Z</time>
      </trkpt>
      <trkpt lat="45.19568" lon="5.8707">
        <ele>869.5</ele>
        <time>2022-03-27T16:44:24.000Z</time>
      </trkpt>
      <trkpt lat="45.19586" lon="5.87093">
        <ele>873.04</ele>
        <time>2022-03-27T16:44:29.000Z</time>
      </trkpt>
      <trkpt lat="45.19602" lon="5.87117">
        <ele>869.93</ele>
        <time>2022-03-27T16:44:34.000Z</time>
      </trkpt>
      <trkpt lat="45.1962" lon="5.87142">
        <ele>867.92</ele>
        <time>2022-03-27T16:44:39.000Z</time>
      </trkpt>
      <trkpt lat="45.19643" lon="5.87174">
        <ele>865.32</ele>
        <time>2022-03-27T16:44:44.000Z</time>
      </trkpt>
      <trkpt lat="45.19665" lon="5.87211">
        <ele>868.33</ele>
        <time>2022-03-27T16:44:49.000Z</time>
      </trkpt>
      <trkpt lat="45.19679" lon="5.87258">
        <ele>866.6</ele>
        <time>2022-03-27T16:44:54.000Z</time>
      </trkpt>
      <trkpt lat="45.19685" lon="5.87308">
        <ele>868.51</ele>
        <time>2022-03-27T16:44:59.000Z</time>
      </trkpt>
      <trkpt lat="45.19685" lon="5.87357">
        <ele>867.69</ele>
        <time>2022-03-27T16:45:04.000Z</time>
      </trkpt>
      <trkpt lat="45.19687" lon="5.87397">
        <ele>867.14</ele>
        <time>2022-03-27T16:45:09.000Z</time>
      </trkpt>
      <trkpt lat="45.19689" lon="5.87435">
        <ele>867.5</ele>
        <time>2022-03-27T16:45:14.000Z</time>
      </trkpt>
      <trkpt lat="45.19687" lon="5.8747">
        <ele>867.67</ele>
        <time>2022-03-27T16:45:19.000Z</time>
      </trkpt>
      <trkpt lat="45.19671" lon="5.87504">
        <ele>863.83</ele>
        <time>2022-03-27T16:45:24.000Z</time>
      </trkpt>
      <trkpt lat="45.19654" lon="5.8753">
        <ele>863.72</ele>
        <time>2022-03-27T16:45:29.000Z</time>
      </trkpt>
      <trkpt lat="45.19638" lon="5.87551">
        <ele>867.29</ele>
        <time>2022-03-27T16:45:34.000Z</time>
      </trkpt>
      <trkpt lat="45.19617" lon="5.87577">
        <ele>872.68</ele>
        <time>2022-03-27T16:45:39.000Z</time>
      </trkpt>
      <trkpt lat="45.19595" lon="5.87603">
        <ele>874.69</ele>
        <time>2022-03-27T16:45:44.000Z</time>
      </trkpt>
      <trkpt lat="45.19574" lon="5.87626">
        <ele>873.95</ele>
        <time>2022-03-27T16:45:49.000Z</time>
      </trkpt>
      <trkpt lat="45.19551" lon="5.87647">
        <ele>874.96</ele>
        <time>2022-03-27T16:45:54.000Z</time>
      </trkpt>
      <trkpt lat="45.19524" lon="5.87654">
        <ele>874.02</ele>
        <time>2022-03-27T16:45:59.000Z</time>
      </trkpt>
      <trkpt lat="45.19495" lon="5.87659">
        <ele>878.51</ele>
        <time>2022-03-27T16:46:04.000Z</time>
      </trkpt>
      <trkpt lat="45.19465" lon="5.87665">
        <ele>878.62</ele>
        <time>2022-03-27T16:46:09.000Z</time>
      </trkpt>
      <trkpt lat="45.19435" lon="5.87672">
        <ele>879.26</ele>
        <time>2022-03-27T16:46:14.000Z</time>
      </trkpt>
      <trkpt lat="45.19417" lon="5.87678">
        <ele>876.64</ele>
        <time>2022-03-27T16:46:19.000Z</time>
      </trkpt>
      <trkpt lat="45.19393" lon="5.87675">
        <ele>880.33</ele>
        <time>2022-03-27T16:46:24.000Z</time>
      </trkpt>
      <trkpt lat="45.19375" lon="5.87688">
        <ele>884.46</ele>
        <time>2022-03-27T16:46:29.000Z</time>
      </trkpt>
      <trkpt lat="45.19364" lon="5.87711">
        <ele>878.22</ele>
        <time>2022-03-27T16:46:34.000Z</time>
      </trkpt>
      <trkpt lat="45.19357" lon="5.8773">
        <ele>879.48</ele>
        <time>2022-03-27T16:46:39.000Z</time>
      </trkpt>
      <trkpt lat="45.1935" lon="5.87741">
        <ele>884.69</ele>
        <time>2022-03-27T16:48:09.000Z</time>
      </trkpt>
      <trkpt lat="45.19349" lon="5.87764">
        <ele>882.85</ele>
        <time>2022-03-27T16:48:14.000Z</time>
      </trkpt>
      <trkpt lat="45.1935" lon="5.8779">
        <ele>884.91</ele>
        <time>2022-03-27T16:48:19.000Z</time>
      </trkpt>
      <trkpt lat="45.19347" lon="5.87825">
        <ele>884.9</ele>
        <time>2022-03-27T16:48:24.000Z</time>
      </trkpt>
      <trkpt lat="45.19347" lon="5.87863">
        <ele>886.06</ele>
        <time>2022-03-27T16:48:29.000Z</time>
      </trkpt>
      <trkpt lat="45.19355" lon="5.87902">
        <ele>886.42</ele>
        <time>2022-03-27T16:48:34.000Z</time>
      </trkpt>
      <trkpt lat="45.19372" lon="5.87941">
        <ele>884.58</ele>
        <time>2022-03-27T16:48:39.000Z</time>
      </trkpt>
      <trkpt lat="45.19396" lon="5.87979">
        <ele>885.83</ele>
        <time>2022-03-27T16:48:44.000Z</time>
      </trkpt>
      <trkpt lat="45.19424" lon="5.88022">
        <ele>885.08</ele>
        <time>2022-03-27T16:48:49.000Z</time>
      </trkpt>
      <trkpt lat="45.19437" lon="5.88084">
        <ele>882.73</ele>
        <time>2022-03-27T16:48:54.000Z</time>
      </trkpt>
      <trkpt lat="45.19427" lon="5.88148">
        <ele>882.82</ele>
        <time>2022-03-27T16:48:59.000Z</time>
      </trkpt>
      <trkpt lat="45.19405" lon="5.88207">
        <ele>881.69</ele>
        <time>2022-03-27T16:49:04.000Z</time>
      </trkpt>
      <trkpt lat="45.19398" lon="5.88262">
        <ele>880.41</ele>
        <time>2022-03-27T16:49:09.000Z</time>
      </trkpt>
      <trkpt lat="45.19386" lon="5.88323">
        <ele>877.44</ele>
        <time>2022-03-27T16:49:14.000Z</time>
      </trkpt>
      <trkpt lat="45.19366" lon="5.884">
        <ele>871.95</ele>
        <time>2022-03-27T16:49:19.000Z</time>
      </trkpt>
      <trkpt lat="45.1931" lon="5.88438">
        <ele>869.8</ele>
        <time>2022-03-27T16:49:24.000Z</time>
      </trkpt>
      <trkpt lat="45.19264" lon="5.88452">
        <ele>869.62</ele>
        <time>2022-03-27T16:49:29.000Z</time>
      </trkpt>
      <trkpt lat="45.19212" lon="5.88464">
        <ele>863.48</ele>
        <time>2022-03-27T16:49:34.000Z</time>
      </trkpt>
      <trkpt lat="45.19152" lon="5.88457">
        <ele>857.26</ele>
        <time>2022-03-27T16:49:39.000Z</time>
      </trkpt>
      <trkpt lat="45.19087" lon="5.88451">
        <ele>852.42</ele>
        <time>2022-03-27T16:49:44.000Z</time>
      </trkpt>
      <trkpt lat="45.19025" lon="5.88453">
        <ele>851.53</ele>
        <time>2022-03-27T16:49:49.000Z</time>
      </trkpt>
      <trkpt lat="45.18957" lon="5.88461">
        <ele>849.67</ele>
        <time>2022-03-27T16:49:54.000Z</time>
      </trkpt>
      <trkpt lat="45.18902" lon="5.88469">
        <ele>846.54</ele>
        <time>2022-03-27T16:49:59.000Z</time>
      </trkpt>
      <trkpt lat="45.1885" lon="5.8847">
        <ele>842.01</ele>
        <time>2022-03-27T16:50:04.000Z</time>
      </trkpt>
      <trkpt lat="45.1881" lon="5.88435">
        <ele>835.95</ele>
        <time>2022-03-27T16:50:09.000Z</time>
      </trkpt>
      <trkpt lat="45.18783" lon="5.88393">
        <ele>833.36</ele>
        <time>2022-03-27T16:50:14.000Z</time>
      </trkpt>
      <trkpt lat="45.18756" lon="5.88346">
        <ele>831.89</ele>
        <time>2022-03-27T16:50:19.000Z</time>
      </trkpt>
      <trkpt lat="45.1873" lon="5.883">
        <ele>828.77</ele>
        <time>2022-03-27T16:50:24.000Z</time>
      </trkpt>
      <trkpt lat="45.18708" lon="5.8825">
        <ele>825.35</ele>
        <time>2022-03-27T16:50:29.000Z</time>
      </trkpt>
      <trkpt lat="45.18708" lon="5.88194">
        <ele>820.74</ele>
        <time>2022-03-27T16:50:34.000Z</time>
      </trkpt>
      <trkpt lat="45.18715" lon="5.88132">
        <ele>816.37</ele>
        <time>2022-03-27T16:50:39.000Z</time>
      </trkpt>
      <trkpt lat="45.18714" lon="5.8806">
        <ele>815.93</ele>
        <time>2022-03-27T16:50:44.000Z</time>
      </trkpt>
      <trkpt lat="45.18695" lon="5.87982">
        <ele>810.49</ele>
        <time>2022-03-27T16:50:49.000Z</time>
      </trkpt>
      <trkpt lat="45.18653" lon="5.87903">
        <ele>802.35</ele>
        <time>2022-03-27T16:50:54.000Z</time>
      </trkpt>
      <trkpt lat="45.18591" lon="5.8785">
        <ele>795.28</ele>
        <time>2022-03-27T16:50:59.000Z</time>
      </trkpt>
      <trkpt lat="45.18522" lon="5.87808">
        <ele>789.14</ele>
        <time>2022-03-27T16:51:04.000Z</time>
      </trkpt>
      <trkpt lat="45.18459" lon="5.87787">
        <ele>783.95</ele>
        <time>2022-03-27T16:51:09.000Z</time>
      </trkpt>
      <trkpt lat="45.18395" lon="5.87823">
        <ele>779</ele>
        <time>2022-03-27T16:51:14.000Z</time>
      </trkpt>
      <trkpt lat="45.18335" lon="5.8789">
        <ele>773.79</ele>
        <time>2022-03-27T16:51:19.000Z</time>
      </trkpt>
      <trkpt lat="45.18285" lon="5.87965">
        <ele>769.04</ele>
        <time>2022-03-27T16:51:24.000Z</time>
      </trkpt>
      <trkpt lat="45.18253" lon="5.88017">
        <ele>761.64</ele>
        <time>2022-03-27T16:51:29.000Z</time>
      </trkpt>
      <trkpt lat="45.18247" lon="5.88001">
        <ele>754.5</ele>
        <time>2022-03-27T16:51:34.000Z</time>
      </trkpt>
      <trkpt lat="45.18254" lon="5.87985">
        <ele>750.11</ele>
        <time>2022-03-27T16:51:39.000Z</time>
      </trkpt>
      <trkpt lat="45.18262" lon="5.8794">
        <ele>746.94</ele>
        <time>2022-03-27T16:51:44.000Z</time>
      </trkpt>
      <trkpt lat="45.18262" lon="5.87875">
        <ele>744.77</ele>
        <time>2022-03-27T16:51:49.000Z</time>
      </trkpt>
      <trkpt lat="45.18277" lon="5.87802">
        <ele>738.69</ele>
        <time>2022-03-27T16:51:54.000Z</time>
      </trkpt>
      <trkpt lat="45.18291" lon="5.87738">
        <ele>730.44</ele>
        <time>2022-03-27T16:51:59.000Z</time>
      </trkpt>
      <trkpt lat="45.18297" lon="5.87697">
        <ele>728.2</ele>
        <time>2022-03-27T16:52:04.000Z</time>
      </trkpt>
      <trkpt lat="45.18297" lon="5.8768">
        <ele>724.96</ele>
        <time>2022-03-27T16:52:09.000Z</time>
      </trkpt>
      <trkpt lat="45.183" lon="5.87654">
        <ele>721.48</ele>
        <time>2022-03-27T16:52:14.000Z</time>
      </trkpt>
      <trkpt lat="45.18306" lon="5.87624">
        <ele>717.44</ele>
        <time>2022-03-27T16:52:19.000Z</time>
      </trkpt>
      <trkpt lat="45.18318" lon="5.87591">
        <ele>714.2</ele>
        <time>2022-03-27T16:52:24.000Z</time>
      </trkpt>
      <trkpt lat="45.18328" lon="5.87552">
        <ele>710</ele>
        <time>2022-03-27T16:52:29.000Z</time>
      </trkpt>
      <trkpt lat="45.18343" lon="5.87513">
        <ele>706.98</ele>
        <time>2022-03-27T16:52:34.000Z</time>
      </trkpt>
      <trkpt lat="45.18352" lon="5.87488">
        <ele>704.33</ele>
        <time>2022-03-27T16:52:39.000Z</time>
      </trkpt>
      <trkpt lat="45.18359" lon="5.87468">
        <ele>703.5</ele>
        <time>2022-03-27T16:53:29.000Z</time>
      </trkpt>
      <trkpt lat="45.18372" lon="5.87433">
        <ele>701.04</ele>
        <time>2022-03-27T16:53:34.000Z</time>
      </trkpt>
      <trkpt lat="45.18383" lon="5.874">
        <ele>698.89</ele>
        <time>2022-03-27T16:53:39.000Z</time>
      </trkpt>
      <trkpt lat="45.18385" lon="5.87384">
        <ele>695.62</ele>
        <time>2022-03-27T16:53:44.000Z</time>
      </trkpt>
      <trkpt lat="45.18381" lon="5.87384">
        <ele>690.6</ele>
        <time>2022-03-27T17:02:42.000Z</time>
      </trkpt>
    </trkseg>
  </trk>
</gpx>